GFSSE_500_rhum_000.txt.gz
RH
16 14 13 12 12 12 18 22 16 16 16 21 26 20 18 17 21 22 20 12 9 8 9 9 7 9 12 12 11 11 12 13 10 8 9 10 11 12 13 14 14 10 9
12 12 14 16 16 19 24 26 23 22 18 21 22 25 22 20 24 22 14 13 8 8 8 8 8 8 11 13 13 12 14 14 11 8 8 9 11 12 12 14 15 16 15
13 11 10 15 18 23 28 28 28 26 18 20 22 21 23 16 18 22 15 10 9 8 9 11 12 11 11 12 12 12 13 12 9 9 9 8 10 12 14 13 14 15 20
13 12 14 19 22 28 33 28 29 28 21 26 31 31 28 21 14 7 7 10 10 9 11 12 12 13 13 13 12 11 11 12 11 10 9 6 9 11 11 13 15 16 18
13 15 20 25 33 36 38 31 33 30 32 25 28 34 33 30 21 4 4 8 11 12 13 14 13 13 13 14 14 13 11 11 11 10 9 5 5 11 12 13 13 15 14
14 17 22 25 30 41 37 41 34 39 32 39 35 27 28 30 31 23 14 6 10 13 13 13 13 14 13 12 11 10 8 10 10 8 6 3 4 12 15 17 14 18 16
18 19 22 28 44 48 36 37 44 40 35 35 31 34 32 30 30 30 30 28 20 14 12 13 14 14 13 10 6 5 7 9 9 10 10 6 4 8 14 17 16 15 15
20 20 21 43 56 51 34 35 48 39 39 40 36 34 34 34 34 33 33 31 30 30 27 26 25 25 26 26 19 13 11 10 11 12 14 15 15 14 14 15 16 16 17
22 18 23 36 52 50 34 41 47 39 39 37 27 27 28 28 30 32 33 34 36 38 39 39 36 34 32 30 29 29 28 24 16 14 13 13 13 13 14 17 19 21 24
25 19 19 44 53 46 39 44 52 42 37 32 28 33 34 32 30 29 31 33 34 35 35 37 40 41 39 36 32 29 25 23 23 23 22 22 22 24 26 27 28 27 28
26 20 20 54 54 44 44 43 48 43 35 30 32 34 36 37 38 36 32 30 30 27 24 23 24 24 25 26 26 25 25 25 26 25 25 25 24 23 18 12 7 5 5
29 22 20 21 55 46 45 45 43 48 34 32 36 37 39 42 44 44 42 39 33 30 32 31 28 26 25 22 19 17 14 14 13 12 10 8 4 2 3 5 5 8 13
30 25 19 27 36 44 45 47 41 46 35 35 36 33 36 35 36 46 45 40 39 37 32 31 31 31 33 31 28 25 21 13 6 3 3 3 5 7 12 20 26 30 31
30 26 20 36 32 46 49 52 50 54 42 37 39 44 46 47 46 48 47 44 41 38 36 33 32 33 28 20 14 11 11 8 6 6 7 16 21 24 28 32 30 32 33
30 28 24 39 53 51 59 58 54 53 51 46 49 49 46 47 50 45 42 44 46 42 40 38 38 24 12 9 10 16 18 19 19 23 29 32 32 32 32 32 30 26 23
27 27 27 36 58 62 66 62 63 58 62 59 56 49 51 48 50 33 33 47 48 43 40 35 22 14 11 15 22 33 39 40 40 37 35 33 32 30 27 23 20 18 17
22 23 28 39 52 68 62 63 62 59 63 62 52 52 50 53 45 42 46 52 48 42 39 33 32 20 12 13 18 27 36 37 35 32 30 24 21 20 19 19 18 18 18
17 24 31 38 38 69 62 59 60 62 63 50 48 48 47 40 42 51 53 50 44 46 48 44 32 16 11 21 34 40 41 40 37 33 27 23 22 21 20 18 17 16 16
15 24 32 36 43 62 63 76 71 62 50 41 40 46 51 42 50 50 49 52 50 50 44 31 18 10 12 36 50 46 40 36 33 30 26 23 20 19 18 20 20 21 22
22 22 33 39 51 60 68 70 64 58 48 46 46 48 54 50 46 48 51 56 52 42 26 18 10 10 19 41 44 35 30 28 25 22 21 20 20 21 23 25 27 27 27
30 24 33 44 55 60 67 66 61 52 48 49 45 36 35 53 50 51 53 51 38 20 12 11 11 21 36 40 34 29 26 24 21 20 21 24 26 29 29 28 28 28 28
30 27 31 45 50 65 69 66 61 52 51 48 26 22 41 46 48 48 45 30 13 11 11 16 44 44 40 36 29 26 22 24 26 29 31 32 32 33 33 34 34 34 35
27 34 32 39 47 62 69 66 62 52 49 48 37 39 43 42 37 29 15 10 11 17 42 52 43 33 30 28 28 31 33 32 32 33 34 33 32 33 34 34 34 33 32
22 34 40 35 46 57 61 59 55 50 51 56 52 49 36 22 15 12 12 16 34 57 46 38 35 28 28 31 33 33 32 32 32 31 30 32 31 31 32 33 30 25 21
26 32 24 24 40 48 53 53 48 52 54 57 58 49 25 15 13 14 21 48 62 43 38 32 29 30 32 34 34 33 34 33 31 27 24 24 27 28 23 19 15 11 8
27 29 20 22 36 48 48 46 53 56 54 59 45 22 16 12 17 29 60 59 41 32 32 36 37 37 37 37 39 37 34 30 29 26 24 22 20 20 18 14 10 9 8

GFSSE_500_rhum_003.txt.gz
RH
24 19 14 13 12 11 10 12 14 14 12 12 17 20 20 18 16 21 19 17 15 9 8 9 10 9 9 12 12 11 11 11 12 13 12 9 9 10 12 13 14 14 12
20 17 16 13 12 11 10 12 15 15 15 13 15 17 19 18 18 22 23 16 15 11 8 8 9 8 7 8 11 13 12 12 12 14 14 12 8 9 11 13 15 16 17
19 20 14 12 11 10 11 14 19 20 20 17 16 20 19 22 14 17 21 23 17 11 9 8 9 10 10 11 12 13 13 12 12 12 12 10 9 10 10 13 15 15 15
13 14 14 13 12 11 13 21 25 22 21 19 18 25 26 26 23 19 12 14 13 12 10 9 10 12 12 12 12 11 11 10 10 10 11 10 9 9 6 11 15 17 17
15 17 13 12 12 13 16 25 28 23 20 23 28 24 25 28 30 27 18 4 7 10 12 12 12 13 13 13 13 13 13 13 12 11 11 12 11 10 7 6 14 16 17
18 17 16 14 15 16 19 34 32 26 24 29 26 27 29 29 26 29 30 28 22 12 11 14 14 13 13 14 13 12 10 9 8 7 9 10 9 7 4 3 11 14 16
18 18 18 18 20 20 28 37 34 32 33 31 34 38 34 30 32 31 29 29 30 29 29 24 20 18 17 16 16 16 14 11 9 9 10 10 11 11 8 5 8 14 16
22 24 21 20 21 31 38 40 34 41 37 35 39 33 32 33 34 34 35 36 36 36 35 34 32 31 30 29 28 28 29 28 26 20 13 11 12 13 14 14 12 11 12
28 27 21 19 21 34 42 41 35 44 38 38 37 29 31 33 30 29 28 31 34 34 34 34 36 39 41 42 40 37 34 31 29 27 26 25 18 13 13 14 13 14 14
30 29 27 22 22 33 45 48 43 44 47 40 38 30 34 36 37 38 38 37 33 31 31 28 27 26 27 29 29 32 34 34 32 28 26 23 21 21 22 24 26 28 29
30 29 28 24 22 42 54 52 45 46 54 42 36 32 34 36 38 40 42 44 43 41 37 33 32 32 31 27 23 22 19 15 13 16 18 20 20 20 18 16 13 10 6
33 35 32 26 21 23 50 52 46 50 51 49 37 34 37 40 37 38 40 39 41 44 42 36 33 32 31 31 30 30 30 27 24 17 9 6 5 4 3 3 3 4 6
36 37 31 27 21 26 29 52 46 51 48 53 38 35 41 37 34 42 47 48 48 47 46 42 38 35 35 32 31 27 16 11 12 13 12 9 6 4 6 11 18 23 27
34 34 30 29 23 26 33 36 49 53 55 52 47 41 43 39 43 46 46 52 46 38 40 46 44 36 34 31 22 14 11 9 12 17 18 17 16 18 24 28 32 32 33
28 28 31 30 27 26 45 44 53 64 62 58 61 60 46 48 50 49 50 46 36 40 46 50 46 42 38 28 25 16 14 16 26 36 42 41 40 38 35 32 30 28 27
32 26 25 27 28 28 49 72 77 78 78 68 61 62 59 57 52 50 49 42 46 48 48 46 43 43 45 44 30 17 13 18 27 35 36 36 34 32 30 29 26 22 19
32 29 23 23 26 28 45 76 84 77 72 69 65 66 62 54 51 50 41 45 48 46 47 49 51 54 49 31 20 14 17 28 38 43 43 41 38 34 28 23 21 20 20
27 26 20 21 23 31 49 73 79 64 73 69 66 60 51 50 49 50 47 51 51 49 52 53 51 43 31 23 17 13 19 35 45 47 44 39 35 33 30 27 24 21 19
25 26 16 18 26 34 45 67 69 74 75 63 58 50 45 48 48 53 56 53 46 48 48 43 39 32 25 21 17 16 31 45 43 37 34 30 28 25 23 21 21 21 23
23 26 14 15 28 35 41 65 67 75 67 60 58 48 49 48 37 32 52 49 47 46 44 37 23 13 10 11 15 27 42 39 35 31 28 25 23 22 26 30 31 32 32
22 27 27 21 25 42 45 61 68 70 63 61 52 51 51 34 22 41 43 42 39 31 18 11 11 10 15 46 50 43 41 37 31 27 27 32 34 35 34 34 34 32 32
23 20 33 31 24 42 53 62 69 71 68 63 56 53 48 36 39 45 38 27 18 13 15 19 15 35 51 49 45 37 30 30 33 37 37 36 36 37 36 35 34 33 33
26 22 24 34 27 35 48 60 70 74 68 64 57 49 55 54 51 48 39 21 15 18 21 20 50 55 47 43 36 38 42 41 40 40 41 40 38 36 35 34 34 33 29
32 29 24 31 41 41 40 49 60 68 65 60 52 50 55 57 54 43 22 16 18 24 23 49 58 43 35 38 43 40 43 45 42 40 42 39 35 32 30 28 25 22 20
34 33 29 28 36 46 39 43 50 57 56 53 48 53 55 58 48 26 15 16 22 25 53 59 40 36 44 44 46 49 47 45 47 45 36 31 31 30 28 24 19 16 16
33 32 32 34 34 22 23 31 42 46 47 45 44 52 52 48 29 14 15 24 37 64 56 41 40 46 45 50 52 50 46 53 48 39 31 27 25 26 27 22 19 18 17

GFSSE_500_rhum_006.txt.gz
RH
20 22 20 15 11 10 9 7 6 8 9 9 8 8 9 13 14 12 12 15 19 21 13 10 9 10 10 9 10 11 11 11 10 11 11 12 14 12 10 10 12 14 14
22 20 17 15 13 10 8 7 7 9 12 12 10 9 11 13 15 16 17 22 21 16 16 11 8 8 9 9 7 8 11 12 12 12 12 13 14 14 12 9 11 14 16
17 20 18 15 12 10 8 8 10 13 16 15 14 12 14 16 17 18 12 19 21 22 15 10 8 9 10 11 11 11 12 13 14 14 13 12 12 11 10 9 9 11 16
17 15 15 15 13 11 10 12 16 16 21 20 19 17 18 18 22 25 20 12 7 13 14 13 10 10 11 12 12 13 12 13 13 13 13 12 11 11 12 10 9 7 12
18 19 18 16 15 12 13 16 23 24 26 24 23 27 25 20 18 23 29 28 23 12 7 11 13 13 13 13 14 14 14 14 13 13 12 11 10 10 11 12 10 7 6
20 23 27 21 17 16 18 24 30 30 26 25 29 28 25 23 22 27 27 27 30 30 26 21 15 13 13 13 14 14 13 11 10 9 7 6 7 9 9 10 9 6 3
24 30 33 23 19 19 23 26 37 35 34 36 32 36 35 34 33 32 30 31 32 30 29 30 30 30 29 27 24 24 25 26 27 27 26 24 17 11 11 11 13 14 12
22 29 29 27 22 22 27 39 45 39 38 38 37 38 31 31 31 31 31 32 33 34 35 35 36 36 37 37 37 37 36 35 34 33 32 30 28 28 24 13 12 13 14
28 33 32 30 26 25 33 46 54 44 42 44 38 38 31 34 35 35 38 39 38 38 33 32 32 32 30 28 28 28 30 33 36 38 38 37 34 29 25 24 23 21 19
34 34 35 37 34 30 38 48 59 54 43 51 42 41 32 34 37 37 38 39 40 39 41 42 40 35 32 32 32 32 30 28 26 24 22 18 20 22 23 23 23 23 23
34 34 36 38 31 30 29 52 71 62 53 55 54 42 37 35 37 38 38 37 35 36 35 34 38 40 38 32 30 30 28 28 27 26 26 27 25 20 11 8 9 12 12
38 34 33 40 38 29 25 29 71 72 59 53 55 52 40 39 42 42 38 35 38 42 46 47 43 40 39 37 30 29 30 26 23 18 12 9 13 18 18 15 10 4 2
38 39 39 37 33 34 26 26 32 75 63 53 53 54 47 40 47 44 38 38 45 45 46 41 38 37 37 44 38 34 29 22 16 12 10 10 10 10 9 11 11 13 18
35 38 39 36 33 32 29 25 37 38 64 63 56 52 58 54 52 51 41 47 51 48 44 37 39 43 45 37 31 31 34 32 20 14 12 12 18 25 31 32 34 33 32
34 34 34 34 34 32 30 27 42 42 49 68 64 59 59 65 63 57 49 52 50 47 39 40 46 47 44 44 45 47 36 24 18 14 15 15 21 29 32 34 33 30 29
31 36 31 29 32 31 30 29 33 65 71 84 78 71 68 64 64 58 53 53 49 42 36 42 45 54 56 54 48 37 29 25 22 16 19 27 38 43 44 43 41 37 33
33 30 33 31 26 25 28 28 30 62 82 83 75 78 73 64 60 60 53 51 50 46 51 51 54 53 49 43 39 35 29 23 23 23 29 36 44 47 44 39 36 34 32
40 31 26 31 29 24 25 26 47 70 80 75 76 72 67 63 58 49 51 50 50 55 54 48 48 45 43 42 33 22 11 11 15 28 39 44 41 36 33 30 28 26 24
38 38 28 28 27 19 22 31 51 62 83 78 77 63 58 56 49 49 49 47 40 47 53 47 46 40 26 13 11 10 14 26 41 44 40 36 33 30 27 26 27 30 32
39 37 30 28 28 15 18 25 43 57 75 75 72 59 56 54 51 49 50 28 39 44 44 38 26 15 13 18 18 26 48 49 43 39 34 31 31 34 38 39 39 39 39
43 39 31 26 29 16 20 29 42 49 68 74 69 58 59 55 52 53 36 27 40 45 40 30 15 18 25 22 37 49 50 52 45 37 39 41 42 42 42 41 42 42 40
46 40 36 26 30 37 30 24 43 50 65 75 70 66 64 59 55 51 52 50 52 47 33 16 16 26 25 33 54 56 46 39 44 46 45 46 46 46 46 46 45 42 36
47 43 40 29 25 40 36 25 40 60 68 76 76 73 66 62 54 50 55 59 56 42 23 15 23 24 26 39 55 47 48 50 50 48 51 53 50 52 53 48 40 35 33
47 45 37 35 24 27 36 29 32 48 56 67 72 72 66 61 53 49 52 58 54 34 14 19 24 28 44 59 53 53 54 50 48 45 51 54 57 56 48 40 36 35 33
35 49 37 36 27 25 30 38 42 43 45 50 60 63 60 54 49 44 50 54 42 16 15 25 36 56 62 58 57 55 52 55 57 54 53 57 55 50 42 38 35 31 26
30 48 41 40 34 31 28 28 43 42 38 42 47 48 48 47 42 41 50 43 21 15 25 45 62 66 58 61 58 52 54 57 60 61 53 47 42 43 42 36 29 28 31

GFSSE_500_rhum_009.txt.gz
RH
16 18 21 19 16 12 9 8 6 6 6 7 8 8 8 8 9 10 10 11 12 18 21 19 12 10 9 9 10 10 9 10 12 12 12 11 11 12 13 14 12 11 10
20 25 22 18 16 13 10 8 7 6 7 8 10 9 9 9 10 11 10 12 16 19 16 16 16 12 8 8 9 9 8 10 12 13 13 12 12 13 14 14 13 12 10
21 27 22 17 15 14 11 9 8 8 11 12 13 11 10 11 12 14 15 13 15 20 20 21 15 10 9 10 11 13 12 12 13 13 13 13 12 12 12 12 12 11 9
14 12 16 14 14 13 12 11 10 13 16 18 15 12 13 13 13 17 21 20 14 8 11 15 14 12 11 11 12 13 13 14 14 14 14 14 14 14 13 12 11 12 11
25 16 16 15 14 16 14 14 16 19 24 24 20 18 17 16 16 17 19 26 28 26 21 13 9 11 13 14 13 13 13 13 13 13 12 11 8 7 6 6 8 10 11
87 48 21 24 17 19 17 18 20 26 31 29 26 26 24 24 25 22 23 25 28 27 28 30 29 27 26 24 20 17 16 16 17 19 21 24 24 24 20 14 10 11 12
50 33 37 31 26 22 22 21 22 34 38 36 37 34 36 34 32 31 32 30 32 32 33 34 34 33 33 33 33 34 33 32 32 32 31 32 32 31 30 29 28 21 13
30 26 33 34 34 27 26 26 37 50 45 42 40 39 37 32 32 32 31 32 33 34 34 34 33 33 33 33 33 32 32 32 34 35 36 38 38 38 38 36 34 29 25
32 28 27 39 33 30 31 33 39 57 57 44 44 41 40 32 33 34 36 38 38 38 38 37 36 37 37 35 32 31 31 31 31 30 28 27 26 25 22 21 22 27 27
25 25 41 39 35 34 31 30 37 45 66 53 48 47 42 35 36 37 38 40 39 37 34 32 31 33 34 34 38 38 32 30 29 28 25 24 24 24 26 27 23 16 12
25 38 40 38 36 38 34 31 30 45 63 64 52 55 49 42 36 36 39 42 39 35 36 39 40 39 40 40 38 36 37 32 27 26 23 18 17 15 10 13 21 23 22
26 41 46 45 39 41 36 30 27 30 69 77 65 57 56 52 41 37 41 42 42 38 38 43 46 39 32 36 30 36 39 33 29 27 25 19 13 10 10 9 10 10 11
29 38 41 42 44 45 37 34 28 26 31 69 73 59 54 54 53 42 44 49 46 39 45 50 47 31 34 37 39 42 37 31 35 35 27 21 18 18 12 10 14 19 30
29 35 40 42 40 39 38 36 32 25 34 38 66 70 58 59 55 58 53 55 53 45 45 49 45 32 37 43 46 45 45 43 37 30 27 26 24 20 21 21 17 19 19
34 33 38 40 41 40 38 36 33 28 36 44 49 70 68 61 60 62 68 60 62 49 43 49 42 35 40 43 50 50 49 43 38 34 29 25 23 20 20 26 30 32 36
33 36 36 35 35 34 34 34 34 33 30 53 57 59 68 67 69 68 62 60 58 50 51 50 47 46 48 48 47 45 42 41 36 26 16 13 16 22 28 39 43 45 43
35 34 36 38 35 32 28 29 31 36 34 46 73 82 75 76 74 68 61 61 53 52 51 50 53 53 52 50 46 43 35 19 16 13 12 15 20 30 37 41 40 36 33
42 39 37 35 32 32 32 28 33 39 47 56 75 87 74 77 71 67 59 53 50 50 50 42 40 56 55 49 40 24 17 22 19 19 36 48 46 42 38 34 31 28 28
42 46 44 40 34 26 30 39 30 32 48 60 65 81 74 73 61 58 53 50 51 50 47 30 42 47 40 34 20 18 23 23 28 42 47 47 45 39 34 34 36 39 41
25 45 48 43 37 32 27 31 27 32 44 48 57 76 78 69 56 53 52 53 51 50 24 32 43 44 41 26 14 23 26 26 41 50 49 48 42 44 46 45 43 42 39
13 26 50 47 41 37 31 32 36 20 27 39 50 70 78 69 57 58 57 55 53 52 48 48 51 48 30 16 16 26 28 34 48 49 45 46 47 46 42 42 45 46 44
16 16 35 46 42 40 31 32 36 28 25 42 50 70 77 73 63 64 62 58 53 51 56 60 60 48 23 14 23 33 44 50 52 47 48 51 49 50 53 53 51 51 51
18 16 29 51 44 39 42 39 43 38 29 41 56 63 76 78 72 70 66 61 55 51 54 56 56 42 17 17 28 38 46 52 51 53 53 51 52 55 56 60 63 60 55
18 16 18 40 47 43 48 38 38 43 25 32 51 67 75 76 73 74 67 62 53 49 50 49 51 32 15 27 37 47 55 53 50 45 50 51 57 64 65 63 60 56 53
22 19 18 27 46 48 48 39 31 38 37 29 36 46 52 57 62 62 59 53 48 46 45 46 42 16 20 37 50 55 56 54 51 52 53 58 67 53 58 59 61 62 55
26 22 19 22 47 49 48 44 36 31 37 42 45 45 43 45 48 47 46 43 43 46 42 40 19 18 30 48 58 56 55 60 57 58 64 66 58 54 55 62 65 53 45

GFSSE_500_rhum_012.txt.gz
RH
11 12 13 10 11 14 12 9 8 6 6 6 6 8 8 8 8 9 9 9 10 11 12 14 17 15 12 10 9 10 10 10 10 11 12 12 12 11 12 12 13 15 14
10 15 19 17 14 12 12 10 8 8 7 8 9 9 9 9 9 9 9 11 12 12 14 14 16 17 16 14 9 8 9 9 9 10 13 13 14 14 14 13 13 13 12
12 17 22 21 17 13 10 10 9 8 8 10 11 11 10 9 10 10 11 11 10 11 15 18 19 19 16 12 10 10 11 12 12 12 12 13 13 13 13 12 13 12 12
17 14 14 13 11 11 10 9 9 9 9 11 12 12 12 11 11 11 13 15 15 14 11 15 19 19 16 14 11 11 12 12 13 13 13 13 13 13 13 12 9 8 8
28 31 24 14 12 10 11 11 11 10 13 16 17 16 16 16 14 13 13 16 20 23 24 20 17 13 11 11 12 14 14 14 14 14 14 14 13 14 17 19 19 14 11
77 35 55 69 23 10 12 11 12 13 16 21 23 20 19 19 19 18 17 18 20 23 26 26 28 29 29 29 29 29 29 30 30 29 29 29 30 29 29 30 30 30 30
38 35 66 63 31 18 18 14 15 17 19 26 30 30 28 28 28 29 28 29 28 29 31 32 34 35 35 35 35 34 35 34 34 35 36 37 37 38 38 38 38 37 36
30 31 35 26 25 19 20 22 21 22 29 36 36 38 35 35 32 32 31 32 32 33 35 37 37 36 36 35 34 33 32 32 31 30 29 28 27 27 27 27 27 27 28
37 31 35 34 25 22 22 25 25 25 39 46 42 43 42 40 32 33 32 32 37 39 38 37 35 33 32 31 33 33 35 37 33 31 30 29 28 26 25 27 26 27 28
41 42 36 35 28 26 28 29 26 24 28 42 52 46 52 44 38 35 37 38 39 40 38 36 35 34 37 39 35 36 39 33 34 35 28 26 24 22 19 17 17 14 14
32 38 30 47 42 36 30 33 34 27 28 40 61 54 52 53 45 40 37 39 41 43 39 38 37 38 44 32 26 31 34 34 37 38 31 27 26 23 20 16 11 10 10
30 36 28 26 36 41 36 43 34 28 25 30 55 64 54 54 56 50 42 40 43 45 43 44 39 40 46 28 33 32 33 40 40 34 30 35 32 25 20 16 16 13 12
30 36 32 29 54 90 90 71 43 40 31 26 28 50 62 55 51 54 54 45 41 48 51 49 43 39 48 33 37 43 44 44 44 43 44 37 31 27 26 24 21 21 22
30 31 33 32 42 45 62 44 51 40 36 28 31 36 52 61 54 52 55 57 53 52 59 55 48 39 48 37 37 44 48 46 44 38 34 34 34 30 27 24 22 19 19
34 33 30 32 36 42 74 37 46 38 38 33 31 41 40 52 58 63 62 59 60 60 65 56 50 46 48 44 41 47 49 48 45 39 35 25 21 18 14 12 12 14 18
38 33 31 31 34 36 37 37 37 34 34 34 33 37 53 48 52 56 65 68 63 58 58 54 50 50 50 50 51 56 54 48 42 34 20 27 22 14 13 16 21 23 24
44 34 33 32 33 35 36 36 35 33 33 33 34 40 47 65 67 71 74 75 70 64 57 52 49 50 49 41 53 56 50 43 30 18 27 24 19 24 32 38 40 40 40
46 45 40 38 35 35 34 34 34 33 31 32 38 48 48 57 78 76 76 72 69 62 50 49 50 50 46 30 52 48 40 33 17 21 27 24 29 39 43 44 46 44 40
22 40 45 44 40 35 34 33 29 32 34 42 38 48 49 63 82 76 75 66 59 50 49 51 52 45 27 41 44 45 42 25 16 21 27 28 37 44 44 45 42 42 43
13 17 45 50 44 42 40 37 40 39 36 41 32 38 48 60 80 78 73 57 52 50 53 54 52 51 41 47 51 50 37 20 15 25 28 32 44 45 43 42 42 38 34
14 13 14 46 53 48 45 42 43 45 43 32 29 34 39 52 75 80 75 55 55 58 57 55 52 51 55 59 60 57 40 16 16 29 34 39 44 44 42 39 36 36 38
20 16 15 16 38 56 55 48 52 54 54 34 35 22 32 47 62 76 77 68 61 64 64 60 56 51 50 51 52 55 38 20 21 33 40 44 46 46 48 46 43 45 50
25 22 20 17 19 28 56 56 52 52 50 40 41 27 31 46 56 72 79 76 71 72 72 68 58 52 50 50 49 46 28 20 32 42 49 54 55 54 51 51 52 57 63
26 27 24 21 19 17 35 52 55 57 52 44 47 36 31 46 60 66 78 81 70 67 74 66 54 48 48 48 46 40 18 22 27 38 54 56 60 61 55 55 68 75 67
28 29 27 24 19 19 22 54 58 62 55 38 41 46 26 32 48 56 60 56 54 54 52 47 44 45 48 44 40 22 21 27 31 36 46 52 56 64 64 76 82 71 63
24 26 28 23 19 16 16 34 54 58 50 42 33 38 45 42 47 48 46 43 43 42 39 36 38 39 37 33 23 19 27 30 40 39 42 61 72 79 82 68 63 65 62

GFSSE_500_rhum_015.txt.gz
RH
7 5 6 8 6 6 8 9 9 8 6 6 5 5 5 6 7 7 8 8 8 9 11 14 15 15 15 13 11 10 10 10 10 10 10 11 12 12 12 12 12 12 12
6 8 7 7 9 7 7 8 9 8 7 6 6 6 6 7 8 8 8 8 9 10 12 15 15 14 16 16 16 13 9 8 9 9 10 10 12 12 14 14 14 13 12
10 8 10 8 9 11 10 8 8 8 7 7 6 6 8 8 8 9 9 10 10 10 12 15 16 17 17 18 17 13 11 11 11 11 11 12 12 13 13 13 14 13 13
19 16 14 14 16 13 10 9 8 8 8 8 7 8 9 9 10 10 11 11 12 13 12 12 13 15 18 19 16 14 12 11 12 12 12 13 13 13 13 13 12 10 9
25 17 19 18 19 11 10 9 8 8 8 8 10 10 11 11 11 11 11 12 13 16 17 18 16 16 16 16 15 14 14 14 14 14 14 15 15 16 17 20 24 26 28
44 40 37 24 23 26 24 10 9 8 9 10 12 13 14 13 13 13 14 14 15 14 17 22 22 23 27 30 32 32 32 32 33 33 32 32 32 32 32 34 35 35 34
65 60 67 30 25 32 28 13 12 12 12 12 16 18 18 19 20 20 20 21 21 20 21 22 27 31 33 34 34 34 33 32 31 31 30 29 30 31 30 30 31 30 32
49 33 34 26 24 22 18 13 12 14 16 18 25 27 29 28 26 27 27 28 28 30 31 32 35 36 36 34 33 32 33 35 36 33 32 32 32 31 31 30 30 29 30
28 31 35 24 22 23 23 16 15 15 18 21 35 36 37 39 36 32 31 31 32 32 36 37 37 36 35 33 30 30 30 31 34 34 37 36 31 28 26 25 22 20 18
25 26 26 26 30 28 26 21 19 20 22 22 29 43 39 42 45 43 35 34 34 38 40 40 38 36 35 32 34 31 23 25 32 38 38 34 34 31 28 25 23 20 18
24 22 24 26 29 30 53 20 21 25 26 25 25 32 48 46 50 52 44 38 40 40 42 43 40 38 38 33 38 30 28 25 25 30 36 39 35 28 29 29 25 22 19
28 24 25 28 28 28 37 24 26 30 31 28 25 30 43 52 50 57 58 48 41 40 41 44 43 43 42 36 40 39 36 39 36 33 35 31 34 41 36 31 28 27 24
33 30 28 29 27 25 24 31 49 33 55 37 31 26 31 53 66 57 56 58 56 50 43 43 50 51 44 39 39 46 34 42 45 46 48 45 39 33 32 31 26 24 24
39 36 31 32 31 26 25 50 92 90 42 36 34 32 26 27 39 62 63 54 51 54 56 52 49 51 49 44 41 48 39 38 45 47 49 43 36 33 25 26 21 15 12
46 39 35 32 32 29 25 29 40 62 52 50 44 33 31 28 35 41 51 56 53 53 53 57 55 59 56 45 43 49 50 44 46 46 47 39 36 22 27 22 19 15 13
51 46 40 35 33 30 28 28 34 85 57 36 36 45 34 35 34 46 50 49 53 57 62 59 56 58 54 47 47 49 46 47 48 50 48 39 22 24 28 20 16 16 19
34 54 49 41 38 34 32 29 32 36 37 37 37 36 35 37 37 35 56 60 66 73 76 74 66 61 54 50 49 50 45 36 53 49 40 35 21 23 26 19 18 22 27
16 24 46 49 44 36 34 34 32 32 35 34 34 33 32 34 44 45 48 65 81 76 76 72 70 62 48 50 51 47 32 44 45 45 42 28 19 21 26 22 23 30 34
12 14 15 33 47 44 41 38 36 37 42 39 32 35 34 41 42 49 54 69 83 76 75 66 58 49 50 52 51 43 35 45 53 55 53 40 17 19 26 25 24 32 36
15 13 10 11 25 46 48 43 40 39 42 42 34 37 36 40 35 38 50 60 75 79 75 57 50 51 55 54 52 52 53 55 57 58 58 50 27 18 26 27 27 34 39
21 19 16 13 14 21 39 49 50 46 43 49 48 49 43 36 32 38 52 50 71 82 79 59 55 59 60 59 57 53 52 50 52 53 51 48 26 21 28 28 27 30 31
15 20 24 19 15 13 15 33 50 51 50 51 57 59 64 40 38 30 34 44 59 80 80 73 69 69 71 74 69 58 52 51 51 52 53 44 24 26 28 27 28 31 34
13 14 19 21 22 18 15 15 17 33 55 56 59 60 56 44 41 30 25 42 55 73 79 80 81 78 74 81 80 56 45 46 52 49 40 22 22 26 28 33 38 37 39
16 15 15 18 24 24 18 18 16 17 27 59 58 59 58 52 53 42 31 41 56 64 69 81 84 78 67 60 51 43 43 46 46 37 24 23 25 34 45 50 49 52 56
20 16 18 15 25 25 23 22 20 16 16 56 62 62 61 52 45 51 31 28 45 55 59 58 50 46 45 41 38 38 39 38 32 24 22 26 23 31 36 41 56 64 70
18 18 20 17 21 26 26 26 22 19 20 46 61 65 59 50 37 42 53 52 44 47 50 49 44 38 29 24 27 28 30 29 25 22 21 23 27 45 50 56 64 56 48

GFSSE_500_rhum_021.txt.gz
RH
11 10 8 6 5 4 5 5 4 5 6 7 7 6 6 5 4 4 4 5 6 6 7 7 8 10 12 13 14 15 13 12 12 11 10 10 10 10 10 10 10 10 10
17 13 8 5 5 5 6 5 5 5 6 6 7 7 6 6 5 4 4 5 6 7 8 8 9 10 11 12 12 12 13 14 14 11 11 12 11 10 10 10 11 11 11
26 20 12 8 6 6 5 5 6 6 5 5 6 7 6 6 5 5 5 5 6 8 9 9 10 12 12 13 14 15 16 17 17 16 13 13 12 12 12 12 12 12 12
23 25 20 17 13 8 6 6 6 8 7 7 6 6 7 6 6 6 6 6 6 8 9 10 12 12 12 11 11 11 11 12 12 13 14 14 14 14 14 14 14 13 13
16 17 19 21 24 17 10 8 7 8 7 7 6 6 6 6 6 6 6 7 8 8 10 11 14 15 14 14 14 16 18 20 21 21 22 23 24 26 27 25 24 23 24
13 14 14 16 22 23 16 14 11 8 6 6 5 6 6 6 7 7 8 9 9 10 11 12 14 15 15 16 16 16 20 22 23 24 24 26 28 29 29 30 30 31 32
15 14 14 14 16 21 26 28 22 16 13 9 7 5 6 8 8 9 10 12 14 15 16 17 17 17 19 21 24 28 29 29 28 32 32 32 33 33 32 32 32 32 32
16 16 16 15 19 20 16 19 20 18 18 18 11 9 7 8 9 12 14 17 22 24 24 26 28 29 30 31 33 35 34 33 29 26 23 21 24 30 35 36 36 34 30
18 19 20 18 16 16 14 14 14 14 15 17 15 12 10 10 11 14 18 22 27 29 32 33 33 33 36 36 37 37 35 32 30 28 21 16 17 24 34 37 36 35 33
20 22 20 20 19 18 16 16 17 18 17 17 15 15 16 15 15 18 24 27 29 31 32 33 35 37 40 40 39 39 37 36 34 34 30 29 23 22 30 40 40 38 34
22 24 24 24 23 21 20 19 19 18 17 22 20 17 18 21 21 23 29 33 34 36 37 35 36 39 42 43 43 42 41 40 39 35 35 32 35 35 33 35 40 36 37
16 20 23 25 26 24 23 21 20 21 19 19 22 22 23 23 24 25 26 30 35 41 44 44 38 38 40 42 43 43 44 43 44 40 38 36 38 45 45 44 42 37 33
7 16 19 23 26 27 26 25 24 24 22 20 20 23 26 35 33 32 31 26 28 35 42 45 46 51 50 49 47 48 44 44 51 47 41 43 41 38 45 45 44 42 39
9 8 9 17 24 26 30 30 28 26 26 25 22 22 41 53 58 37 44 40 33 28 28 33 44 50 52 49 49 50 54 55 55 56 50 44 49 48 42 46 48 46 37
8 9 9 8 12 18 32 31 35 32 30 31 30 26 36 49 51 56 40 41 37 34 31 29 33 34 35 34 40 45 51 52 60 60 52 47 51 49 46 47 46 47 36
7 6 7 6 5 7 16 27 36 38 36 33 34 30 29 35 72 64 38 42 40 35 34 33 31 31 32 40 54 60 63 62 66 62 54 52 51 44 36 53 52 44 38
7 5 6 7 5 5 9 15 32 40 40 39 36 34 34 36 38 38 36 38 37 34 31 31 31 33 37 44 57 69 72 72 69 62 51 53 47 34 44 49 56 58 58
8 6 6 6 6 4 6 12 15 28 42 44 40 37 38 42 38 37 41 45 36 35 35 38 37 34 34 43 51 69 75 63 55 51 54 54 53 56 55 55 56 57 58
12 10 8 7 8 8 7 11 12 18 26 47 46 44 41 43 48 46 48 46 37 39 37 34 35 32 34 42 42 64 76 63 52 55 60 62 60 57 55 55 54 53 53
13 13 11 9 9 9 10 11 13 19 25 37 46 48 52 48 44 45 49 54 54 50 51 44 32 30 33 37 44 55 75 76 60 63 70 74 77 76 73 56 50 51 52
14 14 12 10 9 10 23 18 12 13 15 10 16 29 49 53 52 56 52 53 58 58 60 56 42 34 29 29 42 51 67 81 81 78 74 78 73 69 61 59 49 47 52
12 14 14 11 9 8 11 17 19 17 25 24 33 29 20 23 36 50 54 57 58 64 61 55 50 43 35 26 39 53 61 71 77 77 75 70 60 54 48 44 42 41 38
11 14 16 14 10 9 12 27 31 31 31 42 41 35 27 18 21 24 36 40 61 60 59 59 55 52 49 33 34 39 52 60 62 60 52 48 45 35 28 29 24 21 21
10 13 13 14 13 11 14 18 14 22 20 24 28 28 25 17 19 22 23 34 46 59 61 64 64 51 52 54 46 38 41 44 50 49 41 23 14 12 12 15 20 28 32
11 12 14 15 14 13 12 12 14 16 19 23 35 36 33 29 22 22 24 32 36 59 70 68 60 56 43 44 48 47 43 39 36 30 18 18 23 30 36 36 34 34 32
14 13 14 15 16 14 13 13 13 18 22 22 35 39 31 29 28 32 29 48 49 50 66 67 65 61 55 52 49 46 42 36 32 35 43 48 46 49 43 36 32 29 30

GFSSE_500_rhum_024.txt.gz
RH
15 14 7 6 5 4 4 4 5 5 4 5 6 6 7 6 6 5 4 4 4 5 6 6 7 7 8 9 11 13 13 14 14 14 14 11 10 9 10 10 10 10 10
21 20 15 10 6 5 4 4 5 5 5 5 6 6 6 6 6 6 5 5 5 5 5 7 8 8 9 10 11 13 13 13 14 15 14 12 12 13 12 11 10 11 12
19 25 21 14 11 9 6 4 4 5 6 6 5 6 6 6 6 6 6 6 5 6 6 7 8 8 9 11 13 13 14 14 15 15 14 15 14 14 14 14 13 13 13
20 17 19 21 20 16 10 6 5 5 6 7 8 7 6 6 6 7 6 6 6 6 7 8 10 10 10 12 12 11 11 10 11 11 11 12 12 14 15 16 17 17 16
15 16 16 15 20 22 18 15 11 7 6 6 6 7 7 7 7 7 7 6 6 8 8 10 11 12 13 14 15 16 19 21 21 22 19 20 20 20 22 22 23 26 30
11 11 12 11 12 15 20 20 17 15 12 9 8 7 5 6 6 7 8 8 8 9 10 11 11 13 15 16 17 18 18 21 24 25 27 27 28 29 30 31 30 31 31
12 14 14 12 12 12 13 17 24 25 25 17 13 12 10 6 6 6 8 9 10 11 12 13 14 15 17 18 20 23 26 32 33 32 28 23 23 25 26 31 34 35 33
12 13 14 15 15 14 13 13 14 17 18 18 16 17 15 11 9 9 9 10 12 14 18 21 24 25 26 29 28 30 33 35 35 32 30 26 20 17 14 17 27 35 36
12 15 16 17 17 17 16 14 14 15 15 15 15 14 16 14 12 11 11 15 17 22 24 26 29 31 31 34 35 35 38 38 37 36 35 32 26 28 24 20 22 35 40
17 21 20 20 21 20 19 17 16 16 17 17 19 19 16 14 15 15 15 21 26 32 33 33 34 34 35 38 40 39 41 41 40 39 38 36 35 33 34 31 29 29 40
13 25 29 29 23 22 21 20 19 17 17 16 17 20 20 20 20 18 18 21 30 35 39 42 39 38 37 39 43 44 44 46 46 45 44 42 39 40 36 41 40 37 35
8 14 24 22 24 25 24 23 22 21 20 18 17 19 22 21 22 26 26 24 25 30 39 44 50 46 40 39 40 41 43 43 43 45 45 50 48 42 46 41 43 45 44
10 8 12 16 22 27 30 30 28 26 24 23 21 19 22 21 26 35 44 35 32 32 29 28 35 45 46 45 46 47 53 54 54 55 52 54 56 51 46 51 44 42 46
12 12 9 11 16 23 24 27 29 28 27 26 25 23 20 21 23 42 72 50 46 42 36 33 32 29 29 33 38 37 41 42 47 51 55 61 60 58 51 51 50 50 49
10 13 12 11 12 12 22 21 25 30 33 31 32 31 29 27 26 35 41 46 48 38 39 37 34 33 32 31 31 31 35 42 50 52 58 61 61 62 54 53 52 46 42
11 8 8 8 10 12 11 12 16 19 30 36 36 37 36 34 32 28 33 61 67 39 35 38 35 32 31 31 32 34 41 49 61 68 70 70 64 62 53 54 47 34 43
8 6 8 11 6 8 6 8 10 12 23 31 35 38 38 36 34 34 36 36 35 36 40 41 36 35 36 37 36 36 40 49 60 72 70 61 55 52 53 54 55 50 54
7 6 6 15 15 16 7 6 9 16 19 16 26 40 44 42 42 43 40 35 41 46 44 42 33 34 33 35 36 34 40 44 50 72 71 54 54 57 58 60 58 56 54
8 6 7 12 31 14 16 18 20 17 22 21 25 44 54 49 45 42 40 42 45 45 44 47 49 50 52 40 32 31 36 40 45 64 79 64 56 64 68 72 74 74 72
8 8 7 6 9 33 29 31 37 40 30 20 30 32 38 44 46 48 47 47 46 45 46 49 55 59 56 52 44 36 31 32 41 52 70 82 80 80 80 80 81 77 71
10 9 8 7 7 18 40 37 34 36 39 20 22 21 18 19 32 39 47 49 48 50 51 54 54 53 56 54 52 46 40 26 32 51 60 70 78 81 79 75 69 59 55
10 11 11 10 9 8 16 32 26 24 26 21 25 18 26 30 42 34 23 22 24 30 37 47 58 61 59 58 56 52 52 41 33 34 41 51 54 53 51 50 48 43 39
14 14 14 14 12 10 10 15 34 47 44 46 53 47 44 40 41 37 37 23 20 36 33 32 39 58 63 63 62 55 44 47 50 48 47 46 46 46 41 34 25 14 12
13 14 15 16 14 12 12 16 22 19 40 45 43 50 48 50 44 31 32 27 20 24 25 31 38 59 64 68 62 61 52 46 44 45 44 41 38 35 32 31 35 37 39
10 10 12 13 12 10 12 12 19 24 28 34 35 33 34 43 61 57 50 44 35 33 25 36 46 48 57 66 62 64 58 56 54 49 45 41 40 44 49 50 47 45 42
10 10 10 10 12 12 10 9 11 13 16 23 24 26 28 33 46 58 58 45 42 41 40 46 47 44 46 58 61 61 58 57 52 49 52 56 61 68 62 55 49 46 40

GFSSE_500_rhum_027.txt.gz
RH
19 15 12 9 5 5 4 3 3 3 4 4 3 4 6 6 6 6 6 5 4 4 4 4 5 6 7 8 8 8 10 11 13 14 13 13 12 10 10 11 11 10 10
20 22 25 16 11 9 5 4 3 3 4 4 4 4 5 5 6 6 6 6 6 5 5 5 6 7 8 8 9 10 11 12 13 14 15 15 14 14 13 13 12 12 12
22 23 19 18 18 16 10 8 5 3 3 4 5 4 4 5 5 6 6 6 6 6 5 6 6 7 9 10 11 13 13 13 14 15 15 14 14 14 14 14 14 14 14
19 18 16 16 19 21 17 13 10 6 4 4 5 5 6 6 6 6 6 7 7 6 6 7 7 9 10 11 11 12 12 11 11 11 14 17 20 20 21 21 23 25 26
14 14 15 14 14 17 18 18 18 15 11 8 6 6 6 6 6 6 6 7 8 8 8 8 9 9 11 13 14 15 17 20 22 22 21 23 26 27 28 28 28 29 29
10 11 11 11 10 12 13 12 17 20 19 16 13 10 9 8 6 6 6 6 7 8 8 9 10 11 13 16 20 23 24 22 24 26 29 30 29 24 22 23 27 30 32
10 11 11 11 10 11 12 11 11 13 17 19 21 20 16 13 12 10 8 7 8 10 11 12 13 14 14 16 19 23 25 27 30 33 33 32 32 29 22 19 16 15 20
11 11 12 13 14 13 12 12 11 14 19 16 14 14 14 14 16 15 12 10 11 13 17 18 20 22 23 23 25 30 32 35 35 35 35 36 36 34 30 26 26 22 18
10 12 14 14 14 15 16 16 15 13 15 16 16 16 16 16 16 15 14 14 12 15 19 20 24 27 28 31 33 35 36 38 39 38 39 39 39 39 36 34 32 33 26
10 11 12 14 16 18 18 19 19 17 15 16 17 18 17 18 18 16 16 16 15 17 22 27 30 31 32 34 36 37 41 42 43 42 42 44 45 45 44 40 38 38 40
9 10 13 20 28 24 22 22 21 20 18 17 16 17 18 18 19 20 22 22 21 20 21 27 33 40 40 37 40 40 42 45 46 47 45 45 45 47 51 48 43 45 44
7 7 13 23 25 29 22 20 22 23 22 21 21 19 19 18 18 20 21 23 27 28 26 26 29 34 41 44 44 42 40 41 42 42 42 42 46 50 50 58 52 47 50
6 6 9 18 19 30 19 20 23 24 24 24 24 23 20 19 20 19 20 27 36 37 33 35 34 33 30 28 31 37 44 46 47 46 46 48 46 50 55 56 59 54 50
8 8 7 13 13 13 14 17 24 23 22 26 25 26 25 23 23 24 24 25 45 55 44 38 36 36 35 34 32 30 31 32 33 32 31 32 34 37 45 57 61 61 54
10 11 11 12 13 11 12 15 21 21 21 19 25 30 32 31 30 30 29 30 30 34 53 54 42 36 35 33 32 32 32 33 34 35 37 41 50 57 63 62 63 64 55
11 20 15 12 13 13 12 12 12 12 14 16 22 31 34 35 36 36 34 32 30 31 38 44 35 36 38 34 32 34 35 36 38 38 42 44 56 67 68 64 61 55 54
8 9 16 21 19 12 10 9 8 9 9 12 21 32 34 34 38 40 39 40 37 35 39 37 41 41 39 34 33 32 34 38 36 35 44 42 54 74 66 55 54 55 53
7 7 8 8 21 25 26 24 11 8 10 16 13 23 29 35 44 45 46 44 41 40 37 43 45 45 43 42 46 48 46 37 34 33 41 44 48 71 72 54 58 63 66
7 6 6 6 6 10 21 40 43 28 23 14 21 25 28 32 43 54 52 46 48 45 45 44 43 44 44 45 51 53 53 51 45 39 33 34 44 54 75 79 70 71 75
8 7 6 5 6 7 9 31 47 49 35 39 38 34 25 24 32 39 46 50 48 50 50 47 46 45 47 51 52 52 54 54 50 47 43 28 32 49 60 69 75 76 76
8 7 8 7 7 8 11 18 40 57 61 51 57 46 29 26 28 32 37 37 41 42 41 43 38 38 38 45 52 56 59 57 53 48 49 47 38 34 34 41 48 48 47
9 10 10 9 7 7 9 11 11 18 43 57 55 54 45 28 22 23 31 30 30 27 19 19 18 24 30 29 32 41 51 56 56 57 46 40 43 46 46 44 41 41 38
11 12 12 11 10 8 8 12 16 24 22 29 46 63 59 50 43 33 37 36 45 47 37 22 19 23 22 28 26 35 52 59 61 60 56 52 50 49 46 44 41 38 36
13 13 13 14 13 12 10 10 19 21 23 28 40 52 65 75 70 63 51 52 56 46 38 34 25 27 24 26 36 39 34 48 60 61 56 54 52 50 46 43 42 41 41
16 15 15 14 14 14 14 13 14 21 20 19 23 27 36 52 73 69 72 72 61 62 63 55 42 38 31 31 42 40 36 35 39 49 50 54 52 48 46 42 41 41 40
13 13 13 13 13 12 12 11 10 13 20 22 27 29 35 44 51 52 58 56 61 63 62 72 58 44 48 46 43 38 40 37 36 43 53 55 52 50 47 44 43 44 46

GFSSE_500_rhum_030.txt.gz
RH
10 17 12 10 11 6 3 3 3 2 3 3 3 3 2 4 5 6 6 6 6 5 5 5 5 5 5 6 7 8 8 9 10 11 12 12 12 14 12 11 12 12 12
21 20 19 14 14 13 9 7 4 4 3 3 3 4 4 3 5 6 6 6 6 6 6 6 5 5 6 6 7 8 9 11 12 12 13 14 14 14 14 14 14 14 14
21 19 19 18 17 17 12 10 9 8 6 4 3 3 4 4 4 4 5 5 6 6 6 6 6 6 7 8 9 9 10 12 13 14 14 14 13 12 13 14 17 19 20
18 18 18 16 15 15 15 15 14 13 10 6 5 4 4 4 4 5 5 5 5 6 6 7 7 7 8 9 10 10 11 12 12 11 12 16 22 23 24 25 26 26 29
13 14 13 12 12 12 13 13 15 16 16 16 13 10 7 6 6 5 5 6 6 6 6 7 8 8 10 12 13 14 14 14 16 20 22 21 23 28 28 25 22 21 23
11 10 9 8 7 7 10 10 10 10 11 13 14 16 17 15 12 10 8 6 6 6 7 8 10 11 12 13 15 16 19 21 21 20 22 24 30 30 29 28 24 21 19
8 8 8 8 8 8 10 9 8 10 10 11 12 11 13 13 16 16 16 13 11 10 8 8 9 13 15 17 17 18 20 20 20 24 28 30 33 33 33 34 33 27 26
10 9 9 10 10 10 10 10 11 11 12 12 13 13 13 12 12 12 13 14 14 13 12 12 13 15 19 23 24 24 25 28 29 32 34 35 37 36 37 38 37 36 33
11 9 9 10 11 11 12 12 13 12 13 14 15 15 16 16 16 16 16 15 15 15 14 16 18 21 27 30 30 33 35 36 37 38 39 39 40 39 40 42 43 42 38
8 8 8 9 10 12 13 14 15 15 14 15 15 16 16 16 16 17 19 20 21 20 18 18 21 24 31 34 36 37 37 37 39 41 42 43 44 46 46 43 43 47 46
7 8 8 9 10 10 15 19 20 20 18 17 18 17 17 18 18 17 16 18 19 21 23 23 23 25 27 33 39 40 39 38 38 41 44 45 47 46 43 41 45 49 54
8 7 7 7 8 11 17 25 32 26 21 22 20 21 20 20 20 18 17 17 18 21 23 23 26 29 28 28 28 33 39 40 41 41 42 43 44 45 45 46 45 45 52
12 8 9 9 10 14 24 26 33 26 21 23 23 24 24 24 23 23 22 22 20 19 20 24 30 33 32 33 32 32 31 30 29 29 31 32 36 32 32 32 34 34 37
7 9 14 12 9 11 15 16 19 19 18 22 26 25 27 28 27 25 26 26 26 24 27 33 34 33 37 36 34 33 33 32 32 32 31 32 33 34 33 35 43 50 54
7 7 8 9 10 10 16 18 15 13 13 16 24 27 30 30 30 28 28 29 29 28 28 28 28 41 63 45 31 31 33 32 32 32 32 34 35 35 38 38 52 64 66
7 8 8 9 9 9 11 12 16 11 10 11 14 19 21 23 25 30 32 33 32 31 32 31 32 35 32 32 38 35 33 30 30 29 30 33 34 35 40 37 49 69 63
9 8 8 14 19 16 18 13 18 26 19 11 9 10 11 12 18 29 33 37 37 36 35 36 36 36 35 40 40 38 36 36 39 42 42 35 31 31 38 40 43 70 62
9 8 8 15 23 20 18 27 30 27 25 18 16 13 12 12 13 21 26 31 40 45 43 42 40 39 40 41 38 42 41 42 51 52 50 48 44 38 33 33 44 55 74
9 9 9 10 13 17 9 10 23 35 47 56 44 24 20 18 22 24 18 26 38 48 50 47 44 43 43 42 44 45 41 49 50 49 48 47 44 43 40 29 32 44 55
8 8 8 8 8 8 9 9 17 24 30 44 57 58 43 40 32 25 19 22 35 46 51 47 48 45 44 37 40 30 32 36 38 42 48 52 50 46 45 45 40 35 34
7 7 8 9 10 9 9 10 9 12 39 42 51 67 62 64 50 38 36 59 34 32 32 39 41 28 22 21 21 24 27 26 24 25 33 44 52 57 49 38 36 38 40
9 7 7 8 9 9 9 10 11 12 13 21 42 50 72 70 70 78 49 30 37 29 27 26 30 29 21 18 18 25 22 24 28 30 35 48 56 56 52 50 48 47 45
8 9 8 8 9 8 8 10 9 12 12 13 13 21 34 73 72 72 68 51 26 27 31 36 46 51 43 29 19 21 24 24 28 37 35 35 44 49 48 46 45 46 45
8 8 8 8 10 11 10 10 11 12 12 14 24 36 39 38 49 70 79 79 72 58 61 51 56 60 48 44 35 33 32 28 32 38 36 36 30 33 34 38 45 46 46
9 9 9 8 8 10 12 12 12 13 15 15 16 26 33 40 39 58 86 96 93 95 97 92 81 66 73 71 61 48 41 38 41 41 37 41 36 32 36 40 44 44 44
10 10 10 11 12 12 12 12 11 11 12 12 18 19 30 37 35 41 45 62 75 80 90 89 90 78 72 80 84 80 57 44 49 53 48 44 40 39 41 46 50 48 45

GFSSE_500_rhum_033.txt.gz
RH
6 7 11 10 6 4 4 3 3 2 2 2 2 2 3 3 2 5 6 6 6 6 6 6 6 5 5 6 6 7 8 8 8 9 11 12 12 13 13 13 13 13 13
11 13 15 17 13 8 8 7 6 4 3 3 3 2 3 3 3 3 5 6 6 6 6 6 6 6 6 6 7 8 9 9 10 11 12 14 14 14 14 13 13 13 14
16 17 16 15 14 13 12 11 10 9 8 8 6 4 3 3 3 4 4 4 4 5 6 6 6 6 7 7 8 8 10 10 11 13 14 14 14 12 12 15 18 19 20
19 19 17 16 15 15 14 13 13 13 12 12 11 8 6 5 4 4 4 4 5 5 5 6 7 7 7 7 7 8 9 10 11 12 12 12 14 18 17 18 21 20 18
15 15 15 14 13 12 13 12 11 12 12 12 13 13 13 12 9 7 5 5 5 6 6 7 8 8 9 10 10 11 11 12 13 14 16 18 17 18 21 23 24 25 22
12 11 11 10 8 8 7 7 6 6 7 6 8 8 9 11 13 14 13 12 10 8 7 7 7 7 8 10 11 12 14 16 17 20 22 20 22 26 29 30 30 30 30
9 9 9 9 7 6 7 8 7 7 7 7 7 8 7 8 8 9 10 12 14 15 14 12 10 10 10 10 11 14 15 17 18 20 23 27 30 32 32 34 35 35 35
9 10 10 10 9 9 8 8 8 8 8 8 7 8 8 9 10 9 10 12 11 12 13 14 13 13 13 13 14 18 23 24 26 29 32 34 36 36 37 37 40 40 40
11 10 10 10 10 9 7 8 9 8 8 9 10 11 11 12 12 14 13 14 15 14 14 15 15 16 18 20 22 24 26 29 32 34 36 38 38 38 40 41 43 42 39
7 9 10 10 10 10 10 10 11 11 12 13 12 12 13 14 14 14 14 13 14 18 21 21 21 21 19 19 25 29 32 33 35 37 38 40 39 40 42 43 43 41 41
8 9 10 10 9 10 10 10 11 14 21 21 20 15 15 16 15 15 15 14 12 12 15 18 19 21 21 22 23 24 25 31 34 36 38 40 40 40 40 40 40 44 46
7 7 6 6 7 8 9 10 12 17 27 33 25 17 17 17 16 17 18 18 15 15 16 17 15 18 21 25 26 28 28 28 28 28 29 30 31 31 33 31 32 32 32
9 8 7 7 6 7 8 8 12 25 30 36 27 20 19 20 20 22 22 22 21 20 19 17 19 18 22 24 29 31 31 32 32 32 32 31 30 30 30 31 32 33 33
10 9 10 11 8 8 8 9 12 20 22 27 20 16 17 22 23 24 25 24 24 25 25 26 24 23 27 26 31 37 38 31 25 27 27 30 31 30 31 32 33 34 36
10 9 10 8 7 9 18 13 11 16 18 17 13 11 14 23 23 20 19 20 22 25 25 28 29 28 26 30 41 41 28 28 30 30 29 28 28 27 26 28 32 32 35
7 8 8 8 8 8 8 8 26 10 15 14 10 9 9 12 12 13 14 14 18 20 22 26 29 30 30 32 33 32 33 36 34 33 34 31 32 35 37 34 29 30 36
8 8 10 8 9 9 9 11 10 9 10 14 27 26 16 9 9 9 8 10 19 18 21 26 31 33 35 38 34 34 37 35 32 38 33 40 49 49 46 42 41 34 31
10 9 10 10 9 8 10 17 18 19 25 22 18 25 33 13 15 10 12 11 17 19 20 26 32 37 40 40 38 38 36 37 37 34 33 40 42 43 42 45 41 40 35
10 9 9 9 9 8 11 15 20 21 28 31 38 44 56 46 26 13 16 17 20 19 17 21 28 34 42 42 38 35 34 27 28 24 24 20 19 21 28 35 37 43 43
8 8 7 8 9 10 9 17 21 24 23 20 22 29 46 62 68 54 34 30 25 20 16 19 19 24 30 31 31 28 21 18 20 24 21 22 20 19 25 34 43 51 46
8 7 7 8 9 9 9 9 9 10 14 12 12 22 32 43 60 72 62 63 43 39 46 39 24 22 20 22 24 20 17 17 19 24 19 20 28 27 21 28 38 46 47
9 8 7 6 8 8 9 9 10 10 9 11 12 20 24 45 56 73 80 74 80 79 49 53 35 28 25 25 32 34 27 24 20 20 23 22 26 32 30 26 20 23 26
9 9 7 6 6 8 8 8 9 10 10 12 14 13 25 30 31 49 66 82 79 82 76 50 36 27 30 33 40 48 44 32 30 31 32 30 32 37 33 34 30 25 26
8 8 8 7 7 7 8 8 8 8 10 12 13 15 15 21 19 26 32 42 80 90 84 74 69 56 49 54 49 60 53 61 59 52 45 41 41 44 41 39 38 34 33
7 7 7 7 7 7 7 8 8 8 8 10 13 14 16 19 28 34 43 46 49 66 81 92 95 94 96 92 89 86 75 74 74 80 73 57 49 52 51 50 45 41 39
11 10 9 9 8 8 8 8 8 8 11 11 13 14 15 17 19 24 37 45 52 61 77 93 96 92 97 99 97 97 95 84 81 79 80 84 70 64 60 62 52 49 47

GFSSE_500_rhum_036.txt.gz
RH
6 6 5 5 5 4 4 4 4 4 4 3 2 2 2 3 3 2 2 5 5 6 6 6 6 6 6 5 6 6 7 8 10 10 10 12 12 12 13 14 13 13 13
8 8 9 10 12 11 7 5 4 3 3 3 3 3 2 2 2 3 3 2 4 5 5 6 5 6 6 6 6 7 8 9 10 11 11 12 13 14 14 14 12 12 14
12 14 14 15 15 14 13 11 10 9 9 8 7 7 6 4 3 3 3 3 3 3 4 4 5 5 6 6 7 8 9 10 10 11 12 12 13 13 12 14 18 17 18
20 20 19 18 17 16 16 15 14 13 13 12 12 12 10 8 6 6 5 4 4 4 5 5 5 5 6 7 8 9 10 11 12 12 12 12 11 14 18 17 19 21 22
21 18 16 16 15 14 13 13 12 11 11 11 10 11 12 12 13 13 12 9 6 5 4 4 5 6 6 7 8 9 10 12 13 14 14 16 20 20 19 22 26 27 27
15 14 13 12 11 10 8 8 6 5 5 5 5 5 5 5 6 7 8 11 12 12 12 9 8 8 8 7 8 8 9 10 12 14 15 18 18 20 24 27 30 32 32
13 11 9 9 8 7 7 7 6 6 7 6 5 5 5 4 4 5 5 5 6 8 10 12 13 13 13 12 12 11 11 13 14 16 18 20 23 25 30 34 34 35 35
10 10 10 9 9 8 8 7 7 7 6 6 5 5 6 6 6 6 6 6 6 8 9 9 10 11 12 13 14 14 15 18 21 23 24 27 31 33 34 36 36 38 39
9 10 11 11 10 9 8 6 5 6 5 6 7 8 9 9 9 9 9 10 10 10 11 12 15 16 16 16 16 16 17 21 23 25 28 31 33 36 37 38 40 40 43
11 10 9 10 9 8 7 6 6 6 6 6 10 14 15 14 12 12 12 12 12 12 12 14 15 14 16 17 18 18 20 22 25 27 28 31 32 34 36 40 40 38 39
9 8 8 6 6 7 7 7 7 7 8 8 12 20 21 18 12 14 13 13 14 13 13 11 11 13 12 14 17 19 23 25 26 28 29 30 31 33 34 35 36 36 37
6 6 6 6 6 6 7 8 7 7 8 8 16 21 26 21 13 12 13 15 16 16 15 14 13 15 15 15 17 22 25 28 30 30 30 30 30 30 30 30 30 31 31
8 7 6 6 6 6 6 6 6 6 7 8 19 25 25 20 12 13 15 15 17 19 17 17 19 18 18 20 19 23 24 28 31 32 30 26 26 26 25 28 29 30 30
11 9 8 7 7 7 9 8 6 6 7 8 13 20 20 12 11 14 19 19 18 18 18 18 20 21 24 23 22 24 26 28 28 28 24 25 26 26 26 27 26 25 26
13 13 10 11 9 10 9 8 8 8 14 9 9 12 13 11 10 11 17 17 16 16 14 17 20 23 25 25 25 24 26 30 29 29 31 31 31 31 30 30 30 35 35
11 8 8 8 9 8 9 9 8 8 14 11 12 11 14 11 9 9 10 9 9 9 10 13 17 19 21 22 25 28 31 33 32 34 34 29 34 24 34 46 48 46 42
10 8 7 6 7 8 9 10 10 10 15 10 20 14 9 13 26 16 10 8 7 6 7 10 14 14 16 22 30 32 34 35 36 34 31 33 24 21 28 31 33 36 37
12 11 10 8 7 7 8 10 11 13 18 14 18 29 33 21 16 33 24 13 12 10 9 9 14 12 16 24 32 33 34 35 34 31 26 21 18 18 16 15 15 16 19
11 11 10 9 9 7 8 9 11 16 18 24 28 33 30 38 44 39 43 29 17 12 13 15 18 15 14 20 30 31 33 34 29 26 20 19 20 19 22 19 14 16 19
10 10 10 9 10 10 8 8 9 10 10 18 26 37 37 33 37 42 44 57 60 40 26 23 24 20 16 21 22 24 28 26 21 17 15 16 22 18 18 25 24 20 18
11 10 10 10 10 9 9 10 10 10 10 10 10 11 18 25 29 32 45 50 58 69 57 50 42 32 40 34 23 24 21 22 21 18 18 17 17 18 20 20 23 27 26
11 10 10 10 10 9 8 7 8 10 9 12 10 10 11 12 19 30 32 44 58 63 79 76 80 73 51 54 41 30 24 27 33 37 33 30 24 27 29 28 29 31 30
11 10 10 10 10 10 9 8 6 7 9 9 9 11 13 13 15 26 33 34 46 64 75 86 86 86 83 68 38 31 30 32 37 44 47 39 46 48 46 42 38 37 39
10 9 9 8 8 8 8 8 7 6 6 9 10 9 11 11 11 14 26 44 34 45 42 82 92 99 95 83 69 61 42 40 51 56 59 64 69 74 76 71 62 48 49
8 7 7 7 8 8 7 7 7 7 7 8 9 11 13 14 13 16 39 60 55 45 45 45 59 83 87 85 92 92 92 90 88 96 96 94 88 88 81 78 84 84 65
14 14 14 13 12 12 11 10 10 9 9 9 9 10 14 18 20 18 16 32 44 44 40 56 64 71 73 74 93 98 98 97 97 97 97 92 90 84 80 72 95 79 66

GFSSE_500_rhum_039.txt.gz
RH
11 6 5 4 3 3 3 3 4 4 5 4 4 3 2 2 2 2 2 2 2 3 4 5 6 5 6 6 6 6 6 7 8 9 10 10 11 12 12 14 14 14 13
7 6 6 6 5 6 7 5 4 3 3 3 3 3 3 3 2 2 2 3 3 2 2 3 4 4 5 5 6 6 6 8 9 10 12 12 14 14 14 14 14 12 15
8 9 10 10 10 12 12 12 11 10 8 7 7 6 6 6 6 5 4 3 3 3 3 3 3 3 4 4 5 6 7 8 9 10 11 12 12 12 12 12 17 17 17
14 14 16 17 17 16 16 15 14 14 13 12 12 12 12 12 11 10 9 9 7 6 4 4 4 4 4 5 6 6 7 8 8 9 10 11 12 13 15 19 18 21 23
21 22 21 19 17 16 14 14 13 12 11 11 10 10 10 10 10 10 11 11 12 12 12 9 8 6 5 6 6 6 6 7 8 9 10 12 14 18 21 20 21 26 28
25 21 17 14 12 12 11 10 8 8 6 5 4 4 4 4 4 4 3 4 4 4 6 8 11 13 12 12 12 11 10 10 10 11 12 15 17 19 22 24 27 29 32
19 16 15 13 11 10 9 8 6 6 5 5 4 4 3 3 3 3 3 3 3 3 4 5 6 8 9 11 12 13 13 13 13 14 15 17 20 22 24 27 28 33 34
15 15 14 11 9 8 6 6 6 6 5 4 3 3 3 3 3 4 4 4 4 4 4 5 7 8 10 11 11 13 14 15 16 17 18 20 24 28 32 33 32 34 36
14 13 11 9 8 7 6 6 5 5 4 3 4 4 4 5 8 10 10 7 6 6 6 7 7 7 9 12 16 17 18 18 18 20 21 22 26 31 34 35 34 36 37
11 10 10 10 9 8 7 6 4 4 4 4 4 5 5 10 13 13 12 9 9 9 8 9 8 9 8 9 10 10 14 16 18 19 20 21 25 27 30 31 32 32 33
11 10 9 8 8 6 5 4 4 4 4 4 4 4 6 13 17 19 15 10 10 10 10 10 9 8 8 10 11 12 15 18 20 23 26 27 28 29 29 29 29 29 29
11 11 9 6 5 4 4 5 5 5 5 5 4 5 5 14 19 21 17 11 9 10 11 12 12 12 12 13 14 15 14 16 19 24 29 28 29 29 27 26 26 26 27
8 6 5 5 4 5 5 5 5 5 5 5 5 5 6 12 15 20 16 8 10 12 12 11 13 14 15 16 18 16 15 16 19 23 30 27 26 23 24 25 26 26 27
7 6 6 6 6 6 6 6 6 7 8 7 6 6 7 8 9 11 10 9 9 14 14 12 10 12 12 14 15 16 16 17 20 22 23 25 26 28 29 27 26 25 27
8 7 6 8 9 8 8 7 8 9 9 7 6 7 16 8 8 10 11 7 7 12 13 12 10 9 10 13 13 14 18 20 21 26 30 31 32 32 27 25 14 20 30
8 8 10 12 11 11 14 12 9 8 7 6 7 8 13 11 16 9 12 11 9 8 9 9 10 10 9 12 11 11 17 22 25 28 34 32 34 29 23 15 15 16 17
9 8 8 9 8 8 7 7 7 6 11 7 7 6 13 10 17 21 14 17 24 17 8 8 8 8 7 11 13 12 16 23 29 30 31 35 28 19 16 16 14 12 12
10 10 11 10 9 9 8 7 7 6 7 7 9 16 16 15 16 28 35 32 19 28 22 13 12 10 10 10 14 13 18 26 30 34 31 32 24 18 18 18 19 19 15
9 9 10 10 9 9 9 9 10 14 13 18 12 15 18 23 26 34 34 35 44 40 42 42 23 12 11 14 18 15 16 25 31 36 34 29 22 16 18 20 17 18 20
10 11 11 11 11 11 10 9 10 11 13 14 20 17 12 10 11 18 37 43 32 46 48 57 61 55 34 24 25 24 17 19 24 31 28 25 18 14 14 18 18 18 18
11 11 12 12 13 12 10 9 9 8 8 8 11 13 18 22 24 16 13 16 22 32 37 43 55 65 73 59 46 39 33 33 22 25 25 25 21 19 20 20 19 24 26
11 11 13 13 12 11 11 10 9 10 9 8 8 8 13 13 13 12 12 13 13 14 25 39 45 56 64 77 76 73 66 50 48 37 27 26 29 37 39 34 30 40 44
10 12 12 12 12 11 10 10 10 10 10 9 9 8 10 9 10 10 12 10 11 12 12 26 45 52 58 66 81 86 85 84 68 42 35 32 32 38 47 44 51 60 66
10 11 11 11 11 11 10 9 8 8 8 8 8 9 10 10 10 10 19 20 16 26 25 25 47 80 74 86 82 91 96 90 92 79 62 53 66 73 62 59 66 76 79
11 11 10 10 9 8 8 9 9 8 8 8 8 8 8 11 12 14 13 12 15 26 32 41 55 70 81 79 71 80 88 100 99 94 93 97 95 96 97 97 98 95 93
10 9 8 8 10 14 14 14 13 12 12 11 10 10 10 10 10 14 18 20 20 22 32 42 51 52 67 77 75 82 93 96 89 85 85 96 100 96 96 97 96 95 93

GFSSE_500_rhum_042.txt.gz
RH
12 12 12 7 4 3 3 3 3 3 3 4 4 3 3 2 2 2 2 2 2 2 2 2 3 4 5 5 5 5 5 6 6 7 8 9 10 10 11 12 12 13 12
8 9 6 4 4 4 4 5 4 3 3 3 3 3 3 3 3 3 3 4 3 3 3 3 3 3 4 4 4 5 5 5 6 7 7 8 9 10 11 11 11 12 15
7 7 6 6 6 7 8 8 8 8 8 7 7 7 7 8 8 9 8 7 6 5 6 5 4 4 4 4 4 5 6 6 7 7 8 9 10 11 11 11 12 16 16
9 9 9 9 11 12 14 14 14 14 13 13 12 12 12 12 13 12 12 13 13 12 12 12 10 7 6 5 5 5 6 6 6 7 9 10 11 11 12 15 18 17 20
13 13 14 14 15 17 17 15 14 13 13 12 12 11 10 9 8 6 4 4 4 4 4 5 8 10 12 12 11 10 10 9 9 9 9 10 12 14 16 18 20 20 24
18 20 20 19 18 17 15 14 12 11 10 9 7 5 4 3 3 3 3 2 2 2 3 3 3 4 6 8 10 12 13 13 13 12 12 13 15 17 19 21 23 25 27
25 25 23 19 16 15 14 13 12 10 8 8 5 4 3 3 2 2 2 2 2 2 2 3 3 4 5 6 8 10 10 12 13 13 15 17 19 20 21 24 30 32 33
28 26 20 16 15 14 13 11 8 6 5 5 4 4 3 2 2 2 3 4 5 5 4 4 3 4 4 5 7 8 11 15 16 17 18 18 19 20 22 28 30 33 33
26 20 16 14 14 12 10 7 5 5 5 4 4 3 2 2 2 3 5 8 8 8 5 4 3 4 5 4 5 6 8 11 12 14 16 16 17 19 22 24 27 29 31
18 16 14 14 12 8 6 6 6 5 4 3 3 3 3 3 3 3 5 9 12 9 6 6 5 5 5 6 6 6 7 7 8 9 10 15 21 23 26 27 28 28 28
14 14 13 10 9 8 8 7 5 4 3 3 3 4 4 3 3 4 7 11 14 11 7 6 6 6 6 7 8 8 8 8 8 9 10 11 19 22 21 23 24 23 24
14 12 10 9 8 8 6 5 4 3 3 3 4 3 3 4 4 5 8 12 15 10 6 6 8 7 8 10 10 9 9 10 10 10 12 11 17 21 18 22 22 22 22
13 11 10 9 8 6 5 4 4 4 4 4 4 5 6 5 5 7 7 9 10 7 6 6 9 8 9 10 10 10 9 10 10 13 13 13 14 16 20 22 25 26 22
12 10 9 8 6 6 5 5 4 4 4 5 5 7 6 5 6 15 8 7 9 9 6 6 10 11 10 10 10 10 10 10 10 15 12 16 17 22 26 28 25 16 10
12 10 9 8 7 6 6 6 7 7 8 8 8 8 6 5 5 10 11 13 8 10 8 7 7 8 7 8 8 9 11 11 8 17 15 19 22 26 26 28 16 13 10
11 11 9 8 8 8 8 10 10 11 15 7 6 6 6 5 5 9 12 13 16 11 15 18 11 7 7 7 6 6 8 12 9 12 21 22 29 31 29 29 15 12 12
12 11 10 8 8 8 9 8 7 6 7 7 5 6 6 6 10 12 12 12 23 31 27 17 23 29 13 12 10 9 8 10 11 8 21 25 28 34 32 28 14 14 14
13 12 12 10 17 8 8 8 10 10 8 9 10 12 13 14 10 16 18 19 24 27 31 45 38 32 34 29 16 11 11 12 16 13 12 28 26 30 27 20 15 16 17
16 13 11 10 10 9 10 10 11 11 10 10 14 16 22 17 16 11 10 9 11 17 26 45 38 38 45 50 58 48 27 19 20 21 14 16 30 33 26 19 14 16 18
18 16 13 10 10 10 10 9 10 10 9 8 8 12 18 25 21 15 19 23 19 20 14 13 18 27 32 33 40 48 66 64 41 32 26 18 18 23 28 20 15 14 14
21 19 16 12 10 11 10 10 10 12 14 9 9 9 17 25 30 26 17 23 16 12 23 20 19 15 20 31 39 43 50 55 67 63 47 40 38 20 19 29 23 23 23
18 20 18 14 11 11 11 13 11 10 10 10 10 10 10 17 21 28 38 34 30 34 27 39 29 30 28 18 28 39 41 55 66 82 79 74 56 47 30 27 29 35 41
17 16 16 14 12 12 13 12 12 11 10 11 11 10 10 9 12 22 28 26 34 36 30 34 45 52 68 74 56 49 52 64 72 85 97 96 90 77 48 36 36 38 42
12 12 12 12 11 11 11 11 11 11 10 8 8 8 8 8 8 7 18 20 20 27 31 55 57 64 64 73 74 74 75 69 90 92 95 96 96 97 95 94 90 94 97
13 12 11 11 11 11 10 10 10 8 7 8 11 12 11 9 9 10 10 9 11 18 28 38 36 37 62 68 70 72 66 75 91 98 91 95 90 93 98 100 100 98 97
14 11 11 11 10 10 9 9 8 13 15 15 14 14 13 12 11 11 11 11 12 10 11 20 31 28 25 61 73 80 79 85 80 83 93 94 95 96 94 90 97 98 97

GFSSE_500_rhum_045.txt.gz
RH
9 10 10 15 13 6 4 4 4 3 3 3 3 3 3 3 3 3 3 3 3 3 3 3 3 3 3 3 3 4 4 5 5 5 5 6 7 8 8 9 10 10 10
7 7 8 8 5 4 4 5 5 5 4 3 3 3 3 4 4 4 5 6 7 7 6 5 6 5 4 4 4 4 5 5 6 6 6 7 8 8 9 10 11 11 12
7 7 6 5 4 5 6 6 6 6 7 7 7 7 8 10 11 12 11 11 11 12 12 12 12 12 11 8 7 6 6 5 6 6 7 7 8 8 9 10 12 13 16
8 7 7 6 6 8 9 10 12 13 13 13 12 12 12 13 13 13 13 12 10 8 6 5 5 5 8 9 10 11 11 10 8 8 8 8 9 10 11 12 13 15 16
9 9 9 9 9 11 13 15 15 15 14 13 13 13 13 11 8 4 3 3 3 2 2 2 2 2 3 3 4 6 8 10 12 12 12 12 12 13 15 16 17 18 21
12 12 13 13 13 14 16 17 16 15 14 13 12 10 8 5 3 3 2 2 2 2 2 2 2 2 2 3 3 4 6 9 10 11 13 13 14 15 17 18 20 22 25
16 16 18 19 19 19 18 16 14 13 12 12 10 7 5 4 3 2 2 2 2 3 4 4 4 4 4 3 3 4 5 7 10 13 14 15 15 16 17 19 20 24 28
20 22 23 23 22 20 17 16 14 12 8 6 5 4 4 3 2 2 2 2 3 5 6 7 6 4 3 3 4 4 6 7 10 12 14 13 15 17 17 18 21 24 25
27 28 27 25 22 18 16 15 13 8 6 5 5 4 3 2 2 2 2 2 3 5 8 8 7 4 4 3 4 5 5 6 6 6 7 8 10 12 15 18 23 26 26
32 30 27 24 19 16 15 12 8 6 5 4 3 3 3 3 3 2 2 2 4 6 8 10 6 4 4 4 4 5 6 6 6 6 5 7 7 10 14 18 21 23 22
34 29 23 19 16 15 12 8 7 6 5 3 3 3 3 3 3 3 3 3 4 6 8 8 5 4 4 5 6 6 6 6 7 6 7 8 9 10 13 15 14 15 16
32 26 18 15 14 13 10 8 7 6 4 3 3 3 3 4 4 4 4 5 7 6 6 6 4 4 5 6 6 6 6 6 9 7 7 9 10 12 14 15 14 16 16
29 22 16 14 13 10 9 8 6 5 4 4 4 4 3 4 5 4 4 12 12 7 6 6 6 5 5 8 9 8 6 6 9 10 8 9 10 12 15 17 18 20 20
23 19 16 13 11 10 8 7 6 5 5 5 5 5 5 6 6 6 5 6 9 10 10 8 9 6 5 6 7 7 6 5 6 11 10 9 10 13 15 17 20 23 24
18 16 14 12 10 9 8 7 6 6 6 7 8 10 8 5 5 5 5 5 10 11 15 12 9 12 13 12 6 6 5 4 5 7 10 8 10 13 17 23 24 25 21
19 16 13 12 10 9 8 8 8 7 9 8 7 6 5 4 5 5 6 8 8 8 9 21 26 22 16 18 26 19 9 9 8 8 10 12 9 10 14 18 21 22 15
17 15 12 11 10 10 9 8 7 7 7 6 6 6 6 6 7 8 9 8 14 16 18 20 23 28 40 41 27 28 31 23 15 11 11 16 14 12 15 19 22 21 16
17 15 13 12 11 10 9 10 10 8 10 9 10 8 8 9 12 15 16 16 12 10 10 10 11 16 30 38 36 37 42 46 49 48 26 18 20 16 14 18 22 21 17
17 15 14 14 12 12 15 21 10 8 8 8 9 7 8 9 9 10 21 25 19 14 16 20 18 16 13 16 19 32 33 34 38 39 61 63 39 30 21 18 18 21 21
19 18 15 15 15 13 12 11 9 8 9 10 16 31 32 24 25 21 22 16 22 28 22 18 20 20 22 25 17 13 19 35 40 42 46 60 72 57 42 31 24 20 23
50 24 19 16 13 15 15 12 10 9 11 18 11 8 16 21 20 19 18 21 25 26 32 39 34 30 42 43 31 25 19 17 17 34 47 50 68 84 76 52 48 33 26
24 22 21 20 18 16 16 14 12 10 11 11 11 10 9 8 8 12 16 17 24 32 35 38 38 41 43 44 61 66 52 50 61 62 43 52 63 68 93 94 83 67 46
25 22 22 20 20 18 17 15 12 10 10 10 12 12 12 11 9 7 6 7 30 33 33 38 42 52 60 72 77 88 90 81 73 73 74 62 64 89 89 100 100 98 89
24 21 20 19 18 16 14 13 11 10 8 9 10 10 11 10 8 8 8 10 10 17 28 35 30 32 56 78 78 86 89 83 74 78 81 72 81 84 95 96 90 92 98
22 19 17 14 12 11 11 10 10 10 10 10 8 8 8 11 14 14 14 13 13 12 15 26 32 29 29 43 60 72 72 94 81 88 95 100 94 89 94 99 96 86 90
14 13 12 13 13 11 12 11 11 10 9 9 8 9 13 16 15 14 13 12 10 12 20 28 30 33 39 41 38 42 45 58 62 71 89 98 99 99 97 96 98 99 88

GFSSE_500_rhum_048.txt.gz
RH
11 11 12 13 17 15 8 4 3 3 3 3 3 3 3 3 4 4 5 6 6 6 7 7 5 5 6 5 4 4 4 5 5 5 6 6 6 7 8 9 10 10 11
9 8 8 9 11 10 4 4 5 6 6 6 6 6 5 5 7 9 10 11 11 11 12 11 11 11 11 11 10 8 7 7 6 6 6 6 7 8 9 9 10 12 12
8 6 5 7 7 5 5 6 7 8 8 10 9 9 10 11 12 12 13 13 13 13 12 11 9 8 6 6 7 8 9 9 9 9 8 8 8 9 9 10 10 11 14
8 6 6 6 5 6 8 8 10 12 13 13 13 13 13 13 14 13 11 7 4 3 3 2 2 2 2 2 3 4 6 8 9 10 11 11 11 11 11 12 13 15 17
10 8 7 7 7 8 9 11 13 15 16 15 14 14 14 13 10 6 4 3 3 2 2 2 2 2 2 3 3 4 6 7 8 8 10 12 12 13 13 14 16 18 20
12 9 9 9 9 10 12 14 16 17 16 14 14 13 12 9 6 4 3 2 2 2 2 3 4 5 5 4 4 4 4 6 8 8 9 11 12 13 14 15 17 18 17
12 12 11 12 13 14 15 18 17 15 13 13 14 12 8 5 4 3 2 2 2 2 3 5 5 6 6 4 4 4 4 4 6 8 10 11 12 13 15 17 18 15 15
13 13 14 16 18 20 21 20 17 14 12 10 9 7 5 4 3 2 2 2 2 2 3 4 7 7 6 5 4 3 4 4 4 5 6 6 6 7 9 10 11 12 18
17 16 18 21 23 24 23 20 17 15 13 10 6 5 4 3 2 2 2 2 2 2 3 4 6 8 6 4 4 4 4 5 5 5 5 6 5 7 8 11 14 17 21
21 21 22 25 27 26 23 19 16 15 12 6 5 4 3 3 3 2 2 2 2 2 3 4 5 6 5 4 4 5 6 6 5 4 5 5 5 6 7 8 13 15 13
25 26 28 30 29 25 21 17 16 12 8 6 5 4 3 3 3 3 3 3 3 4 5 5 5 4 4 4 4 5 6 6 6 6 5 6 7 8 8 10 11 13 13
41 39 35 32 28 22 18 16 14 10 7 6 5 4 3 3 3 3 4 4 4 7 10 8 6 4 5 5 4 4 7 8 6 5 5 6 6 7 9 11 13 16 15
41 37 35 32 27 21 17 15 12 9 7 6 5 4 4 4 4 5 6 6 5 4 7 6 7 7 6 6 5 4 5 6 6 5 4 5 7 6 8 12 16 18 19
47 38 34 31 26 20 16 13 10 8 6 6 5 5 6 6 6 5 4 4 4 3 4 6 10 13 9 8 10 12 12 6 5 5 4 4 6 8 8 9 12 16 20
49 36 32 28 23 20 16 13 10 8 7 6 6 7 8 12 9 5 4 4 4 4 4 6 7 9 14 17 16 14 13 19 18 9 10 8 7 9 10 10 14 17 22
40 36 35 25 19 16 13 11 10 8 8 8 8 8 6 5 6 4 4 4 4 5 6 10 13 15 17 20 23 26 30 28 25 30 30 19 12 11 15 15 13 18 21
37 38 37 32 21 15 12 11 10 9 8 8 7 8 7 7 7 6 7 10 13 14 14 12 11 10 11 14 15 18 20 28 34 40 44 53 55 29 16 19 19 16 21
34 31 26 21 16 14 12 11 10 9 10 10 9 9 10 8 9 8 8 10 10 15 21 20 16 15 18 18 16 13 12 19 33 38 40 44 51 64 66 44 30 24 20
32 25 21 19 16 14 17 17 14 13 17 16 9 8 8 10 10 13 18 22 23 19 21 20 24 25 24 20 23 25 22 19 18 16 20 30 42 50 61 71 63 41 33
30 25 22 21 18 15 14 14 12 11 11 12 9 9 11 17 38 27 22 23 23 30 21 19 24 29 30 38 38 33 28 38 34 33 30 27 33 46 55 61 77 81 53
28 25 24 23 21 19 16 14 13 13 12 11 11 20 24 32 29 32 22 14 12 13 16 17 21 30 34 40 41 43 56 53 42 52 64 66 62 63 40 48 63 77 94
30 27 26 26 31 32 21 18 16 15 15 13 12 11 9 10 13 10 10 9 10 9 8 8 27 44 59 63 69 65 60 67 81 78 77 89 94 86 81 81 68 73 77
41 32 35 46 47 49 39 16 15 16 17 17 14 12 10 8 8 8 8 8 8 7 7 9 14 26 30 49 62 69 59 46 67 86 90 88 93 93 90 90 95 90 87
33 30 27 24 22 20 20 17 15 15 14 14 12 11 10 11 10 10 9 7 6 9 14 15 14 15 28 36 47 54 54 66 61 57 78 94 98 96 96 97 94 94 93
33 30 27 24 22 20 18 18 17 15 12 10 9 9 10 12 11 10 8 8 14 16 16 14 12 12 14 25 45 59 73 58 58 66 56 59 72 86 96 90 98 98 97
34 29 26 24 22 20 19 16 13 12 13 13 12 13 10 9 9 8 14 17 16 15 12 10 9 9 11 17 21 32 32 33 36 53 54 58 81 80 81 63 69 89 98

GFSSE_500_rhum_051.txt.gz
RH
16 16 17 17 15 18 17 9 4 3 3 3 3 3 3 4 5 6 8 10 11 11 12 12 12 12 12 11 11 11 10 9 8 8 7 6 6 7 7 8 9 10 11
16 12 11 11 11 13 14 6 4 4 4 5 7 7 8 8 10 11 12 12 13 13 13 12 10 10 7 6 5 6 7 7 7 8 9 8 8 8 8 9 10 10 11
18 12 7 8 7 8 8 4 5 6 8 10 12 13 13 12 13 13 13 13 11 6 3 2 2 2 2 2 2 3 3 4 7 8 9 10 10 11 10 11 12 12 13
15 8 8 6 7 6 5 6 9 12 13 14 14 14 13 13 14 13 11 7 4 3 2 2 2 2 2 2 3 3 3 4 6 6 8 8 10 11 12 12 13 14 15
11 8 7 6 6 6 6 8 10 13 16 16 15 15 14 14 13 10 6 4 3 2 2 2 2 3 4 5 4 4 4 4 5 5 6 7 9 11 12 13 14 15 16
8 9 9 7 7 8 10 12 13 14 17 17 16 15 14 14 10 5 4 3 2 2 2 2 3 4 5 6 5 4 4 3 3 3 4 5 6 8 11 12 14 16 17
8 8 10 9 9 11 13 16 18 17 17 16 15 15 13 8 4 4 3 2 2 2 2 2 3 4 5 6 6 5 4 3 3 4 4 4 5 6 6 7 11 14 14
9 10 10 11 11 13 17 21 21 19 16 14 12 13 11 5 4 3 2 2 2 2 2 2 3 3 4 6 5 4 3 3 4 4 5 5 4 4 5 5 6 8 10
11 11 13 14 15 18 22 23 23 19 17 15 13 8 6 4 3 2 2 2 2 2 2 2 3 3 4 5 5 3 3 3 4 4 4 4 4 5 5 5 7 9 12
14 16 17 18 19 22 24 26 24 20 17 16 14 7 5 4 3 2 2 2 2 2 2 3 3 4 4 4 4 3 3 4 5 5 4 4 3 4 4 5 6 8 11
18 18 20 22 24 26 28 26 23 19 17 16 10 6 5 4 3 2 2 2 3 3 4 4 7 7 6 5 4 5 4 4 5 6 6 5 4 4 5 5 6 7 10
23 24 24 26 28 30 30 26 22 18 16 14 10 6 5 4 4 3 3 4 4 4 4 4 4 4 4 6 6 5 5 4 4 5 5 5 5 4 6 7 6 7 8
35 32 35 37 37 35 32 28 21 17 15 12 9 6 5 5 5 5 5 5 4 4 4 3 3 4 5 8 9 8 7 8 11 12 8 5 5 5 6 8 8 8 11
51 51 48 42 38 36 33 27 21 17 14 10 8 6 6 6 6 7 10 9 6 4 3 3 3 4 5 6 7 9 14 17 17 15 17 18 9 7 8 8 10 10 10
61 61 54 47 40 36 32 26 20 16 13 10 8 7 7 7 7 7 5 4 4 4 4 4 5 6 7 9 11 12 14 17 20 25 31 29 26 27 21 14 11 14 15
62 61 56 50 41 33 30 25 21 16 13 10 8 8 8 7 7 5 5 6 5 6 7 9 11 12 12 12 11 11 11 12 12 17 23 33 37 38 40 45 43 20 16
64 57 52 51 41 33 29 24 21 17 13 10 9 8 8 7 7 8 9 8 8 7 6 8 9 12 18 19 16 14 14 17 20 18 17 23 42 42 39 44 55 61 42
48 50 49 45 40 39 33 27 19 15 12 10 9 9 10 10 8 8 8 8 7 9 12 16 20 19 20 17 22 24 25 24 26 28 30 29 30 26 29 38 45 51 69
47 46 44 42 38 36 30 23 17 14 12 11 10 12 17 12 8 8 11 12 22 31 24 24 27 30 24 22 21 27 30 33 36 39 38 39 47 50 54 44 34 42 54
47 42 40 38 34 28 22 18 16 14 18 18 13 12 11 11 9 10 17 34 25 27 24 16 12 11 12 14 12 20 39 44 38 48 59 68 72 73 67 76 81 66 51
50 44 39 36 33 29 24 20 16 16 15 14 13 13 13 12 14 30 19 19 28 15 12 11 10 10 9 8 10 42 60 51 63 69 64 62 70 89 90 90 96 96 93
51 45 40 35 31 29 27 24 19 16 16 16 15 15 14 15 18 13 14 18 15 8 9 10 11 9 8 9 13 15 22 31 51 58 66 59 62 70 98 100 98 97 96
51 48 41 35 29 27 25 22 22 37 40 28 17 15 14 14 14 12 10 8 8 9 9 10 9 8 12 15 16 16 15 22 32 45 64 62 66 81 78 84 90 92 94
43 45 45 38 34 30 28 31 41 44 39 21 19 18 20 18 15 11 8 13 17 15 10 8 8 15 17 16 13 11 12 16 18 34 40 37 64 48 60 69 84 86 88
63 42 41 47 51 52 48 38 28 24 19 17 16 17 17 15 13 11 11 13 12 10 8 8 14 18 14 10 10 12 14 10 18 19 15 22 23 34 56 43 46 48 73
65 58 44 37 35 33 31 28 28 25 19 17 16 16 12 12 12 12 12 12 10 9 9 15 18 18 12 10 8 7 11 13 12 13 17 11 9 10 11 23 31 44 53

GFSSE_500_rhum_054.txt.gz
RH
21 27 25 24 25 19 17 16 9 4 3 3 3 3 3 4 6 9 11 12 12 13 12 11 9 8 8 5 5 4 4 5 5 5 6 7 8 8 8 9 9 10 10
23 18 16 13 13 12 13 15 8 4 4 4 5 6 9 10 12 12 13 12 12 10 5 3 2 2 2 2 2 2 2 3 4 5 6 7 8 9 10 11 11 11 12
28 23 17 11 10 8 9 11 6 4 6 9 12 14 14 13 13 14 13 11 8 4 3 2 2 2 2 2 2 2 3 4 4 5 5 5 6 7 8 10 11 12 12
34 23 16 10 8 7 6 7 5 7 12 14 15 15 14 14 14 14 12 8 5 3 2 2 2 2 2 3 4 4 5 4 4 4 4 4 4 4 6 7 8 10 11
26 16 10 8 7 7 6 5 8 12 15 17 16 16 15 15 15 12 8 5 4 3 2 2 2 2 2 3 4 5 5 4 3 3 3 3 3 4 4 4 6 7 10
11 10 8 8 8 8 8 9 11 12 15 17 17 16 16 15 13 7 4 3 3 2 2 2 2 2 2 3 3 4 4 3 3 2 2 3 3 4 4 5 4 5 6
8 8 8 8 8 10 11 14 15 16 17 17 17 16 16 15 10 5 4 3 2 2 2 2 2 2 2 3 3 4 4 3 3 2 3 3 3 3 3 4 4 4 5
8 8 8 8 9 10 14 18 20 21 20 18 17 16 16 13 7 4 3 2 2 2 2 2 2 2 2 2 3 4 3 3 3 3 3 3 3 3 3 3 3 4 5
9 9 9 10 11 12 16 20 23 23 22 19 16 15 12 10 6 4 3 2 2 2 2 2 2 2 3 4 4 4 4 3 3 3 3 4 4 4 4 4 4 4 5
10 11 12 13 14 16 18 22 24 24 23 20 18 16 11 7 5 4 3 2 2 2 2 3 3 4 5 5 5 4 4 4 4 4 3 4 4 5 4 4 4 5 5
12 14 15 17 18 20 22 24 26 25 23 20 18 16 12 7 5 4 4 3 3 3 3 3 4 4 4 4 4 5 6 6 6 5 6 7 7 6 4 4 4 6 7
15 16 17 18 20 23 25 27 28 27 24 21 19 16 12 8 6 5 4 4 4 5 4 4 3 3 3 3 4 5 6 6 6 7 9 11 12 12 8 4 4 4 6
20 20 20 23 24 26 28 30 31 28 25 21 18 16 12 8 6 5 5 5 6 9 7 4 3 3 3 4 4 5 6 8 9 11 13 16 19 22 21 19 13 10 8
28 26 29 29 30 35 38 37 34 30 25 21 18 15 11 8 6 6 6 6 6 4 4 3 4 4 6 7 8 9 10 10 11 12 13 15 15 15 20 28 32 33 25
45 46 44 40 41 43 42 38 35 32 26 21 18 15 11 8 7 7 7 6 5 6 6 6 6 8 8 9 9 9 12 14 14 14 14 15 16 16 17 22 28 32 38
56 53 52 51 51 53 50 44 37 31 26 22 18 14 11 9 8 7 7 7 8 8 8 8 6 6 9 11 13 16 20 20 20 21 23 22 23 23 22 21 21 20 26
63 58 55 54 58 58 52 45 37 30 25 20 16 13 11 9 8 9 9 8 8 7 8 8 13 24 22 23 26 28 23 18 19 25 27 29 36 39 39 34 32 32 32
59 70 68 65 62 58 54 50 40 33 28 24 18 14 12 10 9 10 13 9 8 9 10 16 27 22 23 21 19 18 13 15 13 16 27 35 43 46 48 56 66 58 46
65 67 69 73 68 58 52 47 41 39 36 29 20 16 13 11 11 14 13 10 9 10 18 34 29 31 26 16 10 9 9 9 8 12 40 62 59 66 69 70 71 72 79
64 65 64 62 57 52 48 45 42 37 30 25 18 15 16 17 12 11 12 11 11 26 26 20 27 19 13 12 9 10 9 8 8 16 36 42 47 63 62 76 75 74 82
72 59 54 51 50 48 46 41 36 30 24 20 18 16 17 14 12 13 15 13 13 14 16 16 18 11 10 10 10 10 8 10 15 19 31 51 46 56 62 68 66 65 68
90 76 60 54 48 44 42 38 34 28 23 20 18 17 16 16 16 16 16 14 14 14 15 12 10 9 10 11 10 8 8 15 17 14 13 20 35 41 50 53 53 68 72
81 83 76 61 54 48 44 39 36 32 27 23 20 19 24 31 31 17 15 16 15 14 12 10 10 13 13 11 9 10 14 16 16 12 12 16 14 25 28 32 30 31 32
76 77 74 68 57 50 45 40 37 34 29 25 22 27 34 38 34 24 23 15 15 13 10 12 16 16 12 9 9 18 17 16 12 11 7 8 16 14 18 20 19 21 20
87 65 60 52 52 52 49 43 36 32 28 28 34 40 35 24 19 19 18 17 14 11 14 15 16 13 9 9 17 17 12 11 8 7 6 8 9 11 11 11 10 9 18
65 74 73 58 44 42 45 51 52 50 50 48 42 28 24 22 19 18 18 14 12 15 17 16 14 10 9 18 19 13 10 8 9 9 7 7 8 12 14 11 11 13 11

GFSSE_500_rhum_057.txt.gz
RH
29 26 30 26 23 25 20 17 13 6 3 3 4 3 3 4 6 10 12 12 12 11 9 6 3 2 2 2 2 2 2 2 3 4 4 4 4 4 4 5 6 7 8
31 24 23 22 20 18 14 14 14 6 3 4 5 6 8 12 13 14 13 12 10 8 5 3 2 2 1 1 2 2 3 4 4 4 3 3 3 2 3 4 5 6 8
37 30 20 15 12 10 9 10 11 6 5 7 11 13 14 14 14 14 13 11 9 6 4 2 2 1 1 2 2 3 4 4 4 3 3 2 2 2 3 3 4 5 7
42 33 23 16 12 7 7 6 7 5 8 12 15 16 15 15 15 14 12 9 6 4 2 2 2 2 2 2 2 3 4 4 3 3 2 2 2 2 2 3 3 4 5
47 35 24 17 9 6 6 6 6 7 11 15 17 16 16 15 14 12 8 5 3 3 2 2 2 2 2 2 2 3 3 3 3 2 2 2 2 3 3 3 3 3 3
45 35 20 12 7 7 7 6 7 11 14 16 17 17 16 16 14 11 6 4 3 2 2 2 2 2 2 2 2 2 3 3 2 2 2 2 3 3 3 3 3 2 3
44 26 12 10 8 8 8 9 11 12 16 19 19 18 17 16 14 9 5 3 2 2 2 2 2 2 2 2 2 3 3 3 3 3 3 3 3 3 3 3 3 3 3
29 13 9 8 9 9 11 13 16 18 20 20 19 18 17 16 15 9 5 3 2 2 2 2 2 2 2 2 3 4 4 3 3 3 4 3 3 3 3 4 4 3 3
15 11 10 8 9 10 12 14 20 24 24 22 20 18 17 17 15 10 6 4 3 2 2 2 2 2 3 3 4 3 3 4 4 5 5 5 5 6 6 6 5 4 3
11 10 10 11 10 11 13 17 21 24 25 23 21 18 18 17 14 11 6 4 4 3 3 3 3 4 4 3 3 2 2 3 4 6 6 6 7 8 10 11 10 7 4
11 11 11 12 13 14 16 19 22 25 26 24 22 20 19 16 14 10 6 5 4 4 5 5 5 4 3 3 3 3 3 4 5 7 8 9 10 13 15 17 18 17 15
13 11 13 13 15 17 19 23 25 26 27 26 24 22 20 18 15 10 6 5 5 5 6 8 6 4 3 3 3 5 6 8 8 9 10 10 11 12 12 12 12 14 20
13 12 14 15 17 18 21 25 28 30 30 28 26 22 20 19 16 12 8 6 6 6 6 4 4 4 4 5 7 8 8 8 9 12 14 15 14 13 13 14 15 15 16
19 15 16 17 19 22 25 27 31 36 34 31 27 24 21 19 16 12 9 7 6 6 5 6 7 7 7 6 6 8 11 14 18 19 18 18 18 20 21 21 22 21 18
36 19 20 21 22 26 29 34 41 41 37 34 30 26 22 20 16 13 10 8 7 7 7 8 7 7 7 8 18 20 21 23 24 23 19 17 17 18 24 27 32 32 29
46 32 26 29 33 37 38 42 46 43 42 37 31 26 23 19 15 13 10 8 8 8 8 8 7 9 10 23 23 21 20 19 19 14 11 10 9 10 19 30 33 34 42
89 45 42 42 47 48 49 51 53 52 45 38 31 26 22 19 16 14 10 9 9 11 10 8 8 10 17 25 23 26 20 12 9 8 9 9 7 11 33 52 49 54 60
94 73 46 49 53 52 53 56 60 54 49 43 36 29 24 22 17 14 11 10 11 13 10 9 10 15 32 28 29 25 12 10 9 10 9 8 9 14 21 32 36 41 50
95 94 64 51 56 58 63 64 63 60 55 47 40 37 34 27 18 14 14 13 12 11 12 11 13 21 20 16 14 14 10 9 10 10 9 10 14 18 30 31 26 30 36
93 96 95 68 60 63 65 66 65 59 53 48 44 40 35 27 20 17 18 17 12 12 16 15 13 14 14 14 12 8 9 12 12 9 11 15 17 17 19 18 17 20 26
96 98 84 87 74 65 66 66 64 56 49 46 41 36 31 27 21 18 17 15 13 14 16 16 21 16 14 12 9 11 13 13 11 10 13 16 14 12 12 13 13 12 19
95 97 92 80 73 66 63 61 55 50 47 44 40 35 31 26 23 20 19 17 18 22 16 20 23 15 15 13 11 14 16 14 10 13 16 15 13 14 12 10 11 12 11
93 95 96 97 92 74 62 56 52 48 45 43 40 36 32 28 25 23 22 23 35 37 26 41 21 16 14 12 11 15 18 14 10 15 14 13 12 9 10 11 11 11 11
98 95 94 95 94 94 79 60 54 49 46 42 38 35 32 29 27 23 24 28 39 35 23 18 17 15 12 15 17 14 12 9 12 17 15 10 9 12 13 11 11 13 15
90 91 92 90 85 91 95 92 70 56 49 44 41 38 35 32 35 38 41 42 27 21 19 18 16 12 16 23 19 15 10 13 18 14 11 7 8 8 9 11 14 16 15
88 92 99 88 77 76 77 75 71 66 61 56 52 45 40 41 46 46 41 29 27 22 19 16 14 22 24 22 14 10 13 18 14 11 7 9 9 11 12 16 16 18 16

GFSSE_500_rhum_060.txt.gz
RH
43 30 32 28 25 24 22 19 16 9 4 3 5 4 3 4 5 9 11 12 10 9 8 5 3 2 2 1 1 2 2 3 4 4 3 3 2 2 2 2 3 3 4
44 31 26 28 24 22 22 16 16 11 4 4 4 5 7 10 12 13 13 11 10 8 6 4 2 2 1 1 2 2 3 4 4 3 3 2 2 2 2 2 2 3 3
45 34 24 21 19 15 13 11 11 12 4 5 8 12 13 13 14 14 12 10 9 6 4 2 2 2 2 2 2 2 3 3 3 3 2 2 2 2 2 3 3 2 2
50 40 29 20 13 11 7 7 7 8 6 9 13 15 15 15 14 13 11 8 6 4 3 2 2 2 2 2 2 2 2 2 2 2 2 2 2 2 2 2 2 3 3
53 47 34 23 16 12 7 6 6 6 7 13 16 17 16 15 15 13 10 6 4 3 2 2 2 2 2 2 2 2 2 2 2 2 2 2 2 2 2 2 2 3 3
47 51 40 26 17 12 6 6 6 7 10 14 17 17 16 16 15 12 8 5 3 2 2 2 2 2 2 2 2 2 3 3 3 3 3 3 3 3 3 2 3 4 4
38 48 46 27 15 9 6 7 8 12 13 16 18 18 17 16 16 14 8 5 3 2 2 2 2 2 2 2 2 3 3 3 3 3 3 4 4 4 5 6 6 6 5
29 43 46 20 12 9 7 8 11 15 18 20 20 19 18 17 17 14 10 6 4 3 2 2 2 2 2 3 3 3 2 2 2 3 4 4 5 6 7 8 9 10 10
26 36 37 14 11 11 10 11 14 20 22 22 21 20 19 18 17 16 12 8 5 4 4 3 3 4 4 4 3 3 3 3 3 4 5 6 7 7 8 9 10 11 12
22 26 22 12 11 11 11 12 17 24 25 25 23 21 19 19 18 17 14 9 6 5 4 4 5 5 5 4 3 3 3 3 5 7 7 8 9 9 10 10 10 10 10
16 18 16 15 12 11 12 14 19 24 26 26 24 22 20 19 18 18 14 10 6 5 5 6 7 7 5 3 3 3 5 7 8 9 9 11 14 15 15 14 13 14 14
19 14 12 14 13 12 13 16 19 24 27 28 26 24 22 20 19 17 13 10 7 6 6 6 5 4 4 4 5 6 6 8 12 13 15 18 18 17 15 15 18 19 20
13 11 12 12 12 13 14 18 21 25 29 30 29 27 24 22 21 19 16 12 9 7 6 6 5 5 7 7 7 6 8 15 18 19 21 21 19 17 16 14 14 18 22
38 13 11 11 13 14 16 19 22 26 29 31 33 30 27 24 23 21 18 15 11 8 7 6 7 8 7 7 7 9 19 20 19 20 17 12 8 8 8 8 8 11 23
42 28 13 13 14 16 17 19 24 27 32 37 37 34 31 27 24 22 20 17 13 9 8 8 8 8 7 8 9 14 20 20 23 20 12 8 8 9 9 7 7 12 32
53 50 32 16 15 17 19 22 26 31 37 42 40 38 34 29 26 24 21 19 15 10 9 9 10 9 8 9 10 18 25 26 26 16 10 9 10 11 9 7 10 14 22
53 65 64 29 18 20 21 26 31 37 42 45 48 44 37 32 28 26 23 19 16 12 10 11 12 10 10 10 17 22 16 16 14 12 9 11 12 10 9 9 14 18 26
50 71 79 86 26 22 27 34 40 45 51 56 54 46 42 38 32 27 25 23 19 14 13 13 11 11 13 13 12 13 15 17 13 9 11 13 13 10 10 14 16 17 16
66 75 83 93 81 39 39 45 49 55 62 60 55 52 50 45 39 36 34 28 22 18 18 16 12 14 17 14 18 18 15 14 10 10 14 14 12 10 12 16 16 14 12
50 78 95 93 97 88 56 58 57 56 59 60 60 57 52 47 43 40 33 27 24 20 19 16 13 15 16 20 35 21 16 14 11 13 16 15 11 12 15 16 14 12 9
52 53 79 91 89 96 94 71 62 63 60 62 62 60 55 48 42 38 33 28 25 22 19 17 16 24 22 23 51 32 17 15 12 15 17 14 12 14 15 14 12 8 7
75 68 67 77 90 98 94 92 77 62 61 63 64 61 54 46 42 39 34 29 26 23 21 20 21 33 44 26 32 18 16 14 14 16 16 14 13 15 15 12 8 8 8
94 90 87 99 94 88 92 90 88 82 69 65 63 56 50 46 43 40 36 31 27 26 22 21 31 40 36 23 18 17 15 13 22 20 13 13 16 15 13 9 8 9 8
96 97 97 96 90 92 94 94 83 73 68 64 59 55 51 48 45 41 36 32 29 28 28 36 41 34 23 20 19 16 13 26 26 22 12 15 16 14 11 12 11 9 11
92 89 95 97 97 95 89 96 95 87 82 80 70 59 54 50 47 43 38 35 32 29 33 46 42 29 26 20 15 17 28 23 19 14 11 16 14 10 13 12 11 15 16
81 85 98 97 96 93 89 90 86 87 92 90 69 61 56 52 48 47 43 39 38 46 50 41 30 25 20 15 29 29 26 21 13 12 17 15 11 9 11 12 14 18 19

GFSSE_500_rhum_063.txt.gz
RH
54 44 36 32 25 23 23 19 16 12 5 3 5 5 4 4 5 7 9 11 10 8 7 5 4 2 1 1 1 2 3 3 3 3 2 2 2 2 2 2 2 2 2
61 46 31 30 28 25 23 20 16 14 6 3 3 4 5 7 10 12 12 11 10 8 6 4 2 2 1 2 2 2 3 3 3 2 2 2 2 2 2 2 2 2 2
56 49 35 25 27 23 20 17 14 13 8 4 6 9 11 12 13 13 11 10 8 6 4 3 2 2 2 2 2 2 2 2 2 2 2 2 2 2 2 2 2 2 2
59 48 35 24 20 18 14 11 9 9 9 6 9 13 15 14 13 12 11 9 6 4 3 2 2 2 2 2 2 2 2 2 2 3 3 2 3 3 3 2 2 3 4
59 52 42 29 21 15 11 7 6 7 8 8 12 14 16 15 14 13 11 8 5 3 2 2 2 2 2 2 2 2 2 3 3 3 2 3 3 3 4 4 5 5 6
62 54 49 38 25 18 13 7 5 6 8 10 13 15 16 16 16 14 11 7 4 3 2 2 2 2 2 2 2 2 3 3 3 2 3 3 4 4 6 6 6 7 8
62 54 47 43 30 19 12 7 5 6 9 13 15 16 17 17 16 15 12 7 5 4 3 2 2 2 2 2 3 3 3 2 2 3 3 5 6 7 7 8 8 9 9
62 53 39 44 35 20 12 7 6 7 11 15 18 19 19 18 17 16 14 11 8 5 4 3 3 3 4 4 4 3 3 3 3 4 6 8 8 9 11 12 13 13 12
64 47 31 48 38 18 11 7 7 11 15 18 20 20 20 19 18 17 16 13 10 6 5 4 4 4 5 5 5 4 3 3 4 6 8 11 12 14 15 15 15 13 13
46 28 25 43 41 15 11 8 9 13 19 21 22 21 20 19 19 19 18 15 11 8 6 5 5 5 6 5 4 3 4 5 5 7 13 15 16 16 15 14 13 12 13
25 22 27 35 33 13 11 11 12 14 21 25 25 24 22 21 20 20 18 16 12 10 7 6 6 5 5 4 5 6 7 5 6 13 16 18 17 15 13 12 9 9 9
33 24 20 28 27 13 12 12 13 16 23 27 27 25 23 22 21 20 19 17 14 11 8 7 6 6 5 6 7 8 7 6 13 18 18 19 17 11 8 8 8 10 9
44 32 19 20 24 18 18 12 14 17 24 28 29 28 27 25 23 22 21 20 17 13 10 7 6 6 7 8 7 7 8 10 16 19 21 22 16 9 8 10 12 12 9
31 33 25 13 12 11 18 15 14 17 23 29 31 31 30 28 26 24 23 22 20 16 12 9 8 8 8 8 7 8 9 11 17 22 23 20 12 8 10 13 14 10 8
48 33 41 33 18 13 11 14 15 18 22 27 32 34 35 34 31 28 25 24 22 19 14 12 10 9 9 10 9 9 10 18 22 16 16 15 11 8 14 16 14 12 9
47 39 34 41 33 16 13 12 15 17 21 27 32 38 39 37 36 32 28 26 23 20 18 16 13 11 11 11 10 11 12 14 14 14 16 14 8 9 17 17 16 11 12
28 26 24 40 41 22 16 14 16 18 22 26 33 39 42 44 42 36 31 28 26 24 23 19 15 15 15 12 12 16 16 16 22 19 15 12 9 14 18 18 16 12 13
32 30 32 34 63 50 26 16 16 19 23 28 36 44 46 49 45 42 42 37 33 32 28 21 19 19 17 13 13 16 16 25 34 27 16 14 11 15 19 20 16 12 14
35 32 30 31 54 70 70 32 19 20 25 33 41 49 51 54 51 50 47 42 40 38 32 26 21 20 17 14 14 17 19 21 43 39 18 15 12 16 21 22 14 13 15
34 31 30 34 57 72 80 93 25 22 30 39 46 51 55 59 59 58 52 47 43 38 32 27 22 21 18 17 19 28 37 34 29 23 17 15 13 21 23 17 14 14 15
44 38 35 36 54 66 82 84 96 64 42 48 53 56 57 60 63 63 58 50 44 41 36 30 26 23 22 22 24 31 39 33 24 19 17 14 17 24 22 15 13 14 16
56 54 48 45 48 60 77 83 89 94 94 75 70 69 68 66 65 68 61 51 46 43 40 34 32 29 28 24 35 39 38 26 21 19 15 15 24 22 18 15 13 15 13
95 67 60 56 51 51 54 60 70 90 96 96 89 73 73 68 66 66 59 51 47 45 42 37 33 32 28 28 38 41 38 33 24 16 17 20 21 17 16 13 15 15 11
89 96 73 66 67 66 66 65 83 73 90 89 74 71 71 70 68 62 56 53 50 47 44 40 36 32 28 32 46 42 30 27 18 21 26 26 21 15 14 15 16 12 9
84 88 97 95 87 83 81 90 98 82 81 85 88 85 78 73 68 64 66 62 54 51 47 42 36 31 36 50 47 34 24 26 25 30 30 28 22 15 15 16 12 11 12
86 87 86 96 97 98 98 96 94 95 98 86 81 86 80 76 79 79 67 60 55 51 45 44 40 46 51 43 35 28 30 29 33 32 30 28 19 14 16 12 12 12 15

GFSSE_500_rhum_066.txt.gz
RH
54 50 46 40 33 26 23 21 14 12 8 5 4 6 5 5 4 5 8 9 9 9 7 5 4 2 2 1 1 2 2 2 2 2 2 2 2 2 2 2 2 2 2
60 55 46 39 33 27 23 21 18 16 10 5 3 4 4 5 7 9 10 10 9 8 6 4 3 2 2 1 2 2 2 2 2 2 2 2 2 2 3 3 3 3 4
63 60 53 34 29 28 24 21 19 16 13 6 4 5 6 9 12 12 11 10 8 7 4 3 2 2 2 2 2 2 2 2 2 3 3 3 3 3 4 4 5 5 6
66 58 54 43 24 25 23 19 16 14 12 8 5 7 10 12 13 12 11 10 8 5 4 2 2 2 2 2 2 2 2 3 3 3 3 3 4 4 6 7 7 7 8
71 60 52 40 28 20 19 15 10 8 9 8 7 9 12 13 13 13 12 9 6 4 3 2 2 2 2 2 2 2 2 3 2 3 3 4 6 8 8 10 11 12 12
70 63 56 47 35 23 15 12 8 5 7 8 8 9 12 14 14 14 13 9 5 4 3 2 2 2 2 2 2 3 3 3 3 3 4 6 9 11 11 14 14 14 14
71 63 58 51 44 32 20 13 8 5 6 8 10 11 14 15 16 15 14 11 8 5 4 3 3 3 3 3 4 4 4 3 3 4 6 8 13 15 16 15 14 14 13
75 67 59 51 43 38 25 15 10 6 5 8 12 14 16 17 17 16 15 14 12 8 5 4 4 4 4 5 5 5 4 3 4 5 7 12 15 16 15 13 14 14 10
78 69 61 53 39 35 32 17 9 6 6 9 13 17 19 19 18 18 17 16 14 11 7 6 5 5 5 5 5 4 4 5 6 5 10 15 17 16 13 11 12 11 9
82 73 65 57 36 28 32 20 9 7 8 12 16 20 21 20 19 19 19 18 16 12 10 7 6 6 5 5 4 5 6 7 6 7 12 14 17 16 13 10 11 13 14
91 81 75 50 29 30 32 22 10 8 10 14 19 21 22 22 21 21 20 19 17 15 13 11 8 7 6 6 6 7 7 7 7 10 12 16 19 19 13 9 10 16 18
99 91 68 28 27 33 37 22 10 9 11 17 21 25 25 23 22 22 21 20 19 18 15 13 10 8 7 7 7 7 7 8 8 10 16 19 17 15 13 8 12 19 19
91 94 46 23 23 32 35 23 13 11 12 17 22 27 27 26 24 24 22 22 21 19 16 14 12 9 8 8 8 8 9 8 9 14 20 16 16 22 16 8 12 20 20
86 98 47 34 22 24 31 25 18 12 13 17 22 27 29 30 29 27 25 25 24 22 18 16 15 14 11 10 10 10 10 9 11 14 14 12 15 18 13 8 14 20 21
70 61 37 36 35 24 21 22 24 19 13 16 22 27 30 32 33 33 31 28 26 24 22 20 20 17 15 13 13 12 11 12 17 17 25 37 31 20 13 10 15 21 22
76 70 63 52 41 41 35 23 16 14 14 17 21 26 29 33 36 36 36 35 29 26 25 25 24 22 19 16 17 16 13 14 17 17 24 39 48 28 15 11 13 23 23
66 69 68 59 56 47 37 28 16 15 14 17 19 23 27 32 38 39 42 40 34 33 31 30 30 27 22 21 21 19 18 15 16 18 21 37 42 25 16 13 13 24 25
40 46 56 50 50 63 40 38 28 18 17 16 18 21 26 32 36 42 49 44 44 43 39 38 36 30 24 22 22 21 21 18 22 30 43 42 33 22 16 13 16 26 25
32 33 39 40 39 43 30 42 46 38 25 16 17 20 24 30 40 48 56 52 53 50 46 44 40 34 29 25 25 24 25 23 26 32 40 36 27 23 17 14 22 26 24
41 37 33 35 36 30 30 32 55 65 59 28 18 20 23 32 42 53 60 60 59 58 54 48 44 39 33 30 31 28 28 28 36 40 38 29 32 27 18 17 26 24 24
44 42 39 36 38 35 31 31 46 61 83 73 28 21 23 35 47 55 63 64 65 68 63 53 48 44 42 39 38 34 34 30 41 42 39 31 28 23 18 25 25 25 24
81 47 47 41 37 36 32 32 35 53 68 74 90 67 38 48 55 60 66 68 66 68 67 57 51 48 46 41 40 39 38 32 38 47 40 24 19 25 28 27 27 26 22
92 91 83 56 47 42 41 37 44 60 72 77 85 82 82 100 86 72 70 66 67 65 62 56 52 50 48 44 41 41 46 38 48 43 32 26 27 28 30 29 28 24 16
85 83 94 95 64 52 58 50 49 49 54 61 60 79 76 77 80 73 73 67 71 70 66 60 60 58 51 61 56 38 37 48 50 43 31 36 33 33 31 29 27 19 14
77 93 94 94 84 93 80 76 60 58 53 49 51 48 58 73 88 79 74 71 72 75 72 72 70 58 56 62 56 45 49 49 40 40 42 35 33 33 30 29 19 15 15
78 64 66 85 80 85 95 93 86 82 71 68 72 74 73 81 83 79 78 76 75 78 81 79 71 68 71 70 67 52 49 44 37 38 37 33 30 30 32 30 16 15 13

GFSSE_500_rhum_069.txt.gz
RH
50 48 45 44 40 36 28 25 23 13 9 6 4 5 5 5 4 4 5 8 9 9 8 5 3 2 2 1 1 2 2 2 2 2 3 3 3 3 3 4 5 6 7
52 50 48 45 41 35 26 22 21 16 12 8 4 4 4 4 6 7 9 10 10 8 6 4 3 2 2 1 2 2 2 2 2 3 3 3 4 5 6 8 9 10 10
56 56 54 47 42 35 29 23 20 18 15 11 5 3 5 7 9 11 11 10 9 7 5 3 2 2 2 1 2 2 2 2 3 3 3 4 7 8 9 11 13 13 13
61 61 60 55 38 31 27 25 20 17 15 12 6 4 7 10 12 12 12 11 9 6 3 2 2 2 2 2 2 2 2 3 3 3 4 6 9 11 12 14 15 14 15
67 64 60 57 49 29 24 23 19 15 12 12 7 6 8 11 12 13 12 11 8 4 3 2 2 2 2 2 2 2 3 4 3 3 4 7 9 14 15 16 14 14 15
71 72 63 54 46 36 20 19 14 9 8 10 8 8 10 11 12 13 13 11 8 5 3 3 2 2 2 2 3 4 4 4 4 4 6 8 13 16 16 15 13 16 15
78 76 70 61 49 37 24 16 13 8 5 6 8 10 11 13 14 15 14 13 10 7 5 4 4 4 4 4 4 5 5 4 4 5 6 10 14 16 15 13 12 14 16
79 73 70 64 56 47 38 23 15 9 6 6 8 11 14 15 16 16 16 15 14 11 8 6 5 5 5 5 5 5 4 4 6 6 7 11 13 16 16 13 12 13 17
85 78 71 67 59 50 43 34 22 12 7 6 8 12 16 18 18 18 17 17 15 13 10 8 7 6 5 5 5 5 6 7 7 7 8 10 14 17 18 14 11 10 16
87 80 74 70 64 54 39 35 29 15 8 6 8 12 17 20 20 19 19 19 17 15 13 11 9 7 6 6 6 6 7 7 7 8 9 11 18 17 13 16 16 9 16
94 84 77 73 68 59 44 28 30 19 9 7 10 14 19 21 21 20 21 21 20 18 16 14 12 9 8 7 7 7 7 8 8 8 9 16 21 18 20 26 16 8 14
95 93 82 79 76 58 41 29 27 25 10 8 12 16 20 22 22 23 23 22 22 21 20 18 16 13 11 10 9 8 9 10 9 10 13 16 20 21 17 22 16 9 13
93 96 94 85 84 42 31 25 25 31 12 10 14 18 22 24 25 24 24 24 23 23 22 20 18 17 15 14 12 12 13 12 10 12 17 19 29 41 45 31 15 12 12
97 90 89 92 88 49 30 30 32 34 17 13 13 20 25 27 28 28 28 26 26 25 24 23 21 22 19 16 14 14 16 16 14 15 19 18 22 33 50 44 19 15 12
96 97 96 94 73 40 36 34 34 33 22 18 14 18 26 27 30 32 32 32 31 29 27 26 25 25 24 21 19 19 20 19 17 18 16 17 26 43 46 40 25 16 13
95 93 97 95 96 49 41 39 35 29 26 26 17 17 22 27 30 33 36 38 37 36 32 28 28 28 28 25 23 22 22 21 22 21 20 23 35 45 44 38 27 20 14
96 97 95 87 90 63 54 54 53 40 20 19 17 17 19 23 28 33 38 41 43 44 37 37 37 36 37 36 31 28 26 23 23 24 24 27 34 44 42 37 33 24 16
52 68 98 93 87 87 72 68 58 44 31 17 17 18 18 19 23 28 36 43 47 51 45 47 46 44 42 40 37 33 29 28 26 27 29 38 46 44 43 39 33 26 19
61 50 63 79 87 97 84 75 63 55 39 26 18 18 17 17 19 24 30 39 49 58 56 56 54 52 48 44 43 39 36 34 32 31 32 40 45 46 44 35 25 22 25
46 54 40 40 50 64 66 66 67 53 36 46 41 34 24 17 17 20 25 34 47 57 62 62 62 62 58 52 47 45 44 40 38 36 33 35 43 48 41 32 36 29 29
88 62 60 46 45 42 38 36 34 28 30 37 50 62 52 37 19 21 22 28 44 55 60 62 60 59 62 56 51 48 48 44 42 44 46 37 48 46 37 36 35 31 31
92 86 87 69 65 58 67 48 35 35 32 29 31 52 73 92 74 61 57 51 46 55 60 62 58 59 62 59 52 52 53 48 52 50 42 45 51 42 36 38 33 32 30
74 96 99 87 81 78 55 49 42 34 39 38 34 35 59 78 81 89 91 87 67 56 57 71 72 68 64 65 61 57 58 58 64 62 48 56 48 35 40 35 33 32 30
86 83 92 90 99 97 92 92 91 64 41 48 45 49 74 70 77 80 78 74 75 77 72 67 63 61 60 62 67 68 64 63 70 68 59 52 49 41 40 34 32 31 37
97 97 92 95 95 96 90 96 95 98 84 70 68 53 52 52 58 57 65 74 72 89 90 89 87 84 71 69 71 72 72 78 78 72 70 52 46 44 37 34 32 38 38
65 89 87 85 82 90 100 94 96 94 96 96 96 82 62 52 58 58 74 89 90 89 92 81 73 66 64 75 85 85 83 80 73 75 73 56 49 41 39 34 39 41 28

GFSSE_500_rhum_072.txt.gz
RH
52 48 45 43 41 39 36 31 27 22 12 7 5 4 5 5 4 4 5 6 9 9 8 6 4 2 2 2 2 2 2 2 2 4 4 4 5 8 9 11 13 14 14
53 50 46 43 42 39 35 28 24 20 14 9 5 4 5 5 4 6 7 9 10 9 7 4 3 2 2 2 2 2 2 2 4 4 4 5 8 10 12 13 15 15 15
55 53 49 46 44 41 36 27 22 20 17 12 6 4 4 5 6 8 10 10 10 8 6 4 2 2 2 2 2 2 2 3 4 4 4 5 10 12 14 16 15 14 16
53 55 54 51 47 42 37 30 23 20 17 14 9 5 5 7 9 10 10 11 10 8 5 3 2 2 2 2 2 2 2 3 4 4 4 7 10 14 16 16 15 15 17
59 57 57 56 54 39 33 28 24 21 16 13 11 7 7 9 11 12 12 11 10 7 4 3 2 2 2 2 2 3 4 4 4 4 5 7 12 14 16 15 14 15 18
64 61 60 59 58 52 30 24 22 17 12 10 11 9 9 11 12 13 13 12 10 6 4 3 3 2 2 3 4 4 4 5 4 4 6 8 12 14 16 15 14 13 16
66 66 65 61 56 51 38 22 18 14 9 7 10 10 11 13 14 14 14 13 12 9 6 5 4 4 4 4 5 5 5 4 4 6 6 9 11 14 17 17 14 12 12
72 70 71 67 59 50 37 26 18 13 8 6 7 11 13 14 15 16 16 15 14 12 10 8 6 5 5 5 5 5 4 6 7 7 7 9 12 18 20 18 16 21 13
80 80 79 73 67 59 49 38 25 17 10 8 6 10 14 15 16 17 17 17 16 15 13 10 8 7 6 6 5 5 6 6 7 7 8 9 17 23 26 21 27 23 12
93 81 77 74 70 63 56 47 39 22 12 9 8 9 12 16 19 19 18 19 19 17 15 12 11 9 8 6 6 6 7 7 8 9 9 11 17 22 27 22 25 27 13
96 92 82 76 72 67 61 50 38 35 21 9 9 11 13 17 20 21 20 20 20 20 17 16 14 11 9 8 8 8 8 9 10 10 11 15 18 23 32 43 45 35 20
96 96 90 84 78 72 65 56 42 31 28 14 9 11 14 20 23 23 22 22 22 22 22 21 19 17 15 13 12 12 12 14 15 14 16 20 21 22 25 42 47 38 24
96 96 95 96 91 79 71 57 44 30 33 20 11 14 17 21 23 24 24 24 24 24 24 24 23 22 22 21 18 17 16 19 20 22 22 24 24 21 30 47 45 40 28
97 96 95 96 97 94 76 56 42 33 34 28 14 14 18 23 26 26 27 26 26 26 26 26 25 25 25 25 25 24 24 26 25 25 27 29 28 25 33 45 44 39 31
96 96 96 96 98 97 88 47 35 36 34 33 22 16 16 20 26 29 30 31 31 31 31 30 28 26 27 28 30 29 26 26 27 27 28 31 33 33 34 45 44 40 37
95 96 96 97 95 96 95 59 40 36 35 34 28 22 16 17 24 30 32 33 35 37 38 38 35 30 30 32 35 35 32 30 29 28 29 34 36 39 47 49 47 43 36
96 92 94 96 96 96 96 67 47 39 36 35 34 28 24 16 17 23 30 33 36 39 42 46 40 38 41 40 41 40 37 34 33 32 34 35 38 41 47 47 45 43 35
94 92 96 96 96 96 97 84 76 69 42 44 36 30 23 19 17 19 23 28 34 41 44 50 50 49 51 50 49 46 43 42 40 39 39 39 40 41 40 44 48 42 36
94 92 94 94 96 96 95 94 98 87 79 60 52 38 29 17 17 18 19 22 26 33 42 48 53 55 57 57 58 56 52 48 46 46 46 45 45 46 46 44 49 41 36
97 94 90 93 94 96 95 93 94 99 88 68 70 56 44 34 26 19 19 18 20 24 33 43 53 58 60 59 60 61 58 53 50 49 50 50 51 55 51 48 51 42 38
95 95 85 94 97 87 68 84 93 95 71 62 58 52 40 56 63 57 36 20 19 21 27 37 44 52 58 60 59 60 62 61 56 54 55 54 58 66 68 66 55 38 40
76 71 93 93 92 96 92 61 46 51 60 54 35 31 32 31 40 71 79 79 49 45 39 39 47 54 57 61 65 67 67 67 63 60 62 55 60 70 73 66 63 42 41
72 100 99 96 96 94 87 88 88 81 72 72 42 33 34 32 32 48 61 74 88 92 89 82 70 62 59 68 72 60 58 66 72 68 64 62 66 86 87 77 66 44 39
80 90 96 96 96 96 96 92 85 80 84 83 78 77 80 59 54 54 55 70 74 79 83 79 76 81 80 75 74 79 68 60 52 55 68 76 85 82 76 67 54 48 39
86 69 76 66 94 92 96 95 100 94 90 99 89 94 92 95 96 94 92 84 92 89 75 75 70 68 71 72 72 72 69 64 60 56 62 84 79 74 72 71 55 44 40
62 72 89 91 100 98 94 96 97 96 96 97 97 96 97 97 93 95 96 93 86 71 71 73 75 80 81 77 76 78 69 63 63 63 64 72 68 66 72 75 59 46 42

GFSSE_500_rhum_075.txt.gz
RH
45 43 43 47 43 38 36 32 30 29 23 11 6 4 5 5 5 4 4 5 6 8 8 7 5 3 2 2 2 2 2 2 3 4 5 6 9 11 13 14 15 15 15
38 39 41 47 45 40 38 34 30 26 20 12 7 4 5 5 5 5 6 7 8 9 8 6 4 3 2 2 2 2 2 2 4 5 5 6 10 12 14 14 15 15 16
48 45 43 43 45 42 40 36 27 24 19 14 9 4 4 4 5 6 8 8 9 9 8 6 4 3 2 2 2 2 2 2 4 4 5 6 10 12 14 15 15 15 17
48 48 48 48 47 45 42 37 28 23 19 16 12 6 4 5 6 8 10 10 10 10 8 5 3 2 2 2 2 2 2 3 4 4 4 7 10 12 13 15 15 16 16
53 53 52 52 49 47 44 39 31 24 20 17 14 9 7 8 9 10 10 11 11 9 6 4 3 2 2 2 2 2 3 4 4 4 4 6 9 10 12 16 17 17 15
62 56 58 55 53 49 44 38 30 24 20 16 14 11 9 10 11 12 12 12 11 10 7 4 3 3 2 3 3 4 4 5 5 4 5 7 9 11 16 20 22 19 18
78 62 59 57 56 55 51 37 25 22 16 12 11 11 10 10 12 12 13 13 13 11 9 6 5 4 4 4 5 5 5 4 4 6 6 8 9 14 21 26 25 27 29
90 73 67 63 61 57 54 48 28 19 12 9 8 9 11 12 14 14 14 14 14 14 12 10 6 5 5 5 5 5 5 6 7 7 7 8 10 16 22 26 26 29 32
93 78 77 72 66 59 53 46 32 20 13 8 7 9 11 14 15 16 17 16 16 16 15 12 9 7 7 6 6 6 6 7 7 7 8 10 13 18 22 29 36 39 38
94 86 84 81 71 63 55 47 36 26 18 11 9 8 10 14 16 18 19 19 18 18 17 16 13 12 10 8 7 7 7 8 9 11 11 13 17 21 23 25 36 43 40
98 98 93 89 79 71 63 56 47 39 25 16 10 9 10 14 17 19 21 20 20 20 20 18 16 16 14 11 10 10 10 12 15 17 17 19 24 26 25 26 39 44 39
97 97 95 94 86 75 67 60 52 44 39 29 14 10 12 15 18 20 22 22 21 22 22 21 21 20 18 16 17 16 17 18 22 23 24 26 29 29 30 29 37 44 42
96 96 94 95 94 86 74 65 56 47 36 32 25 13 12 17 20 22 24 24 23 23 23 24 24 24 22 22 22 22 23 22 25 27 28 28 31 33 34 36 37 45 45
96 95 95 94 97 92 89 74 63 50 41 35 28 20 13 14 19 23 26 26 25 25 26 26 27 27 26 26 26 27 27 25 27 29 29 30 33 36 38 41 46 50 49
96 97 97 96 93 91 89 83 67 54 44 36 33 26 17 14 16 22 26 29 29 29 30 30 31 32 31 28 28 30 33 34 32 31 32 35 37 40 42 43 45 47 47
95 96 96 96 97 93 93 79 66 61 52 43 36 33 26 18 14 16 22 28 30 32 33 35 36 38 38 34 34 36 38 39 38 36 37 39 42 42 43 44 44 45 45
92 92 96 96 96 96 91 92 71 63 56 51 47 41 33 26 19 16 17 22 30 34 36 38 39 41 44 40 43 44 44 45 42 42 43 44 45 46 47 48 49 51 47
78 92 95 96 96 97 96 96 95 72 51 46 51 51 40 33 29 22 18 18 23 29 33 37 41 44 52 49 51 53 53 53 52 50 48 47 48 49 50 51 52 56 47
94 95 95 95 95 96 96 96 94 92 80 58 51 59 59 36 30 24 19 19 21 22 26 30 37 44 51 57 58 60 60 60 59 57 54 51 50 51 54 53 55 64 65
97 90 91 91 92 96 96 97 94 93 93 65 69 74 63 62 46 36 28 24 23 20 20 21 25 32 41 50 60 64 61 60 60 59 61 60 56 56 58 59 59 62 74
78 96 96 94 91 91 95 96 97 97 88 86 98 79 91 79 72 62 50 53 51 36 26 19 20 25 33 39 47 58 64 67 71 69 66 65 64 65 60 61 66 72 77
48 62 92 95 96 94 95 95 93 91 95 86 87 78 68 61 58 41 35 42 57 76 82 55 25 28 37 48 42 49 60 80 75 71 68 70 70 65 58 61 71 84 84
30 38 53 93 86 83 93 94 91 90 94 80 62 60 51 56 55 36 33 34 48 61 77 80 87 83 87 96 80 69 67 71 70 81 81 78 72 67 68 73 81 82 74
43 36 50 60 82 94 96 88 80 95 96 96 94 92 80 80 76 59 48 54 56 58 65 68 82 90 93 90 79 71 62 52 58 57 69 66 62 59 60 70 77 74 71
46 40 46 58 64 75 97 100 94 94 100 98 96 96 96 96 95 93 92 96 96 96 96 94 92 87 94 83 77 74 75 63 60 55 59 69 65 58 60 70 73 64 67
40 48 58 55 75 69 86 76 79 81 96 96 97 96 97 96 97 96 96 96 96 97 97 96 96 96 93 80 70 76 79 79 72 61 67 66 61 67 66 66 69 68 68

GFSSE_500_rhum_078.txt.gz
RH
38 34 32 36 35 35 37 34 29 29 29 21 10 6 5 5 5 4 4 5 6 7 7 8 6 5 4 3 2 2 2 2 3 5 6 8 10 12 12 13 14 15 17
35 33 33 35 36 34 37 36 32 30 28 20 10 6 4 5 5 5 5 5 6 8 8 8 6 4 3 2 2 2 2 2 4 5 5 6 9 11 12 12 13 16 18
40 40 40 39 38 36 36 39 35 31 26 19 12 7 4 4 4 5 7 7 8 8 8 8 6 4 3 2 2 2 2 2 4 4 5 6 8 11 11 12 15 18 19
41 39 40 42 41 41 39 39 37 31 24 20 14 9 6 4 5 6 8 9 10 10 9 8 5 3 2 2 2 2 2 3 4 4 4 5 8 10 10 13 18 21 23
48 43 44 42 44 46 44 42 39 33 24 20 17 13 8 6 7 8 9 10 10 10 9 7 4 3 2 2 2 2 3 4 4 4 4 6 8 9 11 17 22 25 25
56 49 48 48 47 49 48 44 41 35 27 20 17 13 11 9 9 9 10 10 11 11 10 8 5 4 3 3 4 4 4 5 5 4 5 7 8 9 14 20 23 27 30
64 59 53 53 52 52 52 47 43 38 29 22 17 13 12 10 10 10 11 12 12 12 11 10 8 7 5 5 5 5 5 5 5 6 7 7 8 11 16 21 26 30 34
65 72 67 58 56 56 55 52 43 34 29 22 14 12 11 11 12 13 14 14 14 14 13 13 12 10 8 6 6 5 5 6 6 7 7 8 10 15 19 22 25 31 37
80 82 81 66 60 60 59 54 51 39 25 19 13 10 9 11 12 13 15 16 16 16 16 15 14 12 9 8 8 6 6 7 7 8 10 11 14 20 24 25 26 33 39
83 83 86 88 69 63 61 58 52 47 32 18 12 8 8 10 12 13 15 17 18 17 18 17 16 14 13 12 10 8 8 8 9 12 14 14 20 25 27 29 30 33 41
88 91 97 93 80 72 66 59 50 44 31 18 14 9 8 9 12 14 16 18 19 19 19 20 19 17 17 16 13 12 12 12 15 19 21 22 26 29 32 33 36 38 42
96 98 99 97 84 76 68 60 52 40 30 22 18 12 11 10 11 13 17 20 21 21 21 22 21 21 22 20 19 20 20 21 22 24 27 29 29 32 34 36 40 43 46
98 96 96 96 94 83 71 64 58 51 45 36 28 19 14 12 11 13 17 20 22 22 22 23 24 24 25 24 24 25 26 27 29 29 30 31 32 33 36 40 42 44 45
97 96 96 93 96 95 89 78 64 56 50 42 37 29 20 15 14 16 19 21 24 25 24 25 26 26 27 28 27 27 28 30 31 32 32 33 35 37 40 41 43 45 47
97 96 98 97 95 96 95 91 66 57 52 45 38 31 26 19 15 15 20 23 25 28 27 28 28 29 31 32 32 31 30 31 34 36 36 36 37 40 43 44 46 47 50
96 96 96 97 96 94 95 94 86 71 57 49 43 35 30 24 19 15 14 19 24 27 29 30 32 34 36 36 37 36 35 38 39 40 40 40 41 43 44 44 47 50 52
96 96 95 96 97 96 96 97 96 83 66 58 47 39 34 30 26 20 16 14 18 23 29 32 34 36 38 40 42 43 42 44 46 47 48 49 50 48 46 46 46 51 53
96 94 94 97 96 96 96 95 95 97 92 77 61 51 43 36 31 27 24 19 17 18 22 29 34 37 41 42 44 48 48 51 55 56 56 56 56 54 49 53 54 56 59
92 96 94 95 96 97 95 97 96 95 94 95 67 50 46 43 36 36 32 28 24 20 20 21 25 30 33 38 43 47 54 58 61 61 60 60 58 54 59 61 61 64 56
95 91 90 91 96 94 88 91 96 96 95 94 95 76 47 41 38 38 41 35 27 21 21 20 20 21 22 26 30 39 48 54 59 59 58 56 62 63 62 63 62 64 62
96 84 96 95 96 95 95 96 96 97 94 96 97 97 82 54 52 48 51 58 59 44 31 29 26 24 21 19 22 28 34 37 48 58 64 65 65 62 60 70 74 66 62
92 97 97 95 93 97 96 97 96 95 96 96 84 87 85 83 58 56 72 66 60 46 42 46 54 61 52 30 21 20 34 50 54 58 58 70 63 72 76 71 65 60 58
96 93 86 91 91 94 94 91 95 94 96 96 97 94 93 93 72 72 72 82 82 84 65 53 48 54 67 74 76 75 69 85 86 89 90 87 77 76 67 65 64 59 58
55 75 58 49 67 90 91 95 95 96 96 96 96 95 96 96 92 85 90 92 95 96 94 85 84 85 83 87 77 85 90 83 79 74 78 75 72 71 62 64 70 65 62
71 72 62 41 53 59 60 82 94 92 95 95 96 93 99 97 96 97 97 97 97 98 96 96 96 96 98 97 93 95 87 75 74 64 63 66 67 63 65 75 72 64 67
91 83 73 53 40 42 59 75 74 67 96 94 96 96 95 99 95 96 96 97 96 96 98 96 94 97 97 98 97 96 94 92 87 74 64 61 70 73 77 79 78 72 69

GFSSE_500_rhum_081.txt.gz
RH
36 34 31 30 30 27 28 30 27 26 28 27 19 9 6 6 5 4 4 4 4 5 6 6 7 6 4 3 2 2 2 2 3 5 6 8 9 11 11 11 12 14 17
38 32 31 30 32 31 30 31 29 28 29 28 19 8 5 5 5 5 5 4 5 6 6 7 7 6 4 3 2 2 2 2 3 5 5 6 8 10 10 10 11 16 18
40 39 36 31 31 33 30 33 31 30 30 28 21 10 5 5 5 5 5 4 6 7 8 8 8 6 4 3 2 2 2 2 3 4 5 5 7 8 9 10 15 18 21
44 44 42 38 33 34 33 35 35 33 31 27 22 12 7 4 4 4 5 6 7 8 8 8 7 5 4 2 2 2 2 3 4 4 5 5 6 8 9 11 17 20 23
52 49 45 39 41 38 36 37 38 36 33 27 21 15 10 6 6 5 6 8 8 9 9 9 7 5 3 3 2 3 3 4 4 5 5 5 6 8 9 14 18 21 25
58 54 47 43 42 39 39 41 40 39 36 29 20 17 14 9 8 8 8 9 9 10 10 9 8 6 5 4 4 4 5 5 5 4 5 6 7 8 12 17 20 23 26
58 54 52 48 48 43 42 44 44 42 39 33 22 18 15 12 10 10 11 10 10 10 11 11 11 9 8 6 6 6 5 5 5 6 7 7 8 11 16 21 22 24 27
59 58 55 55 53 50 48 47 48 44 42 36 27 20 17 14 12 11 12 12 12 11 11 12 13 12 11 9 8 7 6 6 6 7 7 9 11 14 20 24 25 26 29
67 60 61 65 58 56 53 52 51 47 42 37 29 23 18 14 12 12 12 13 13 13 13 13 13 13 13 12 11 10 8 8 8 8 10 12 14 19 25 27 27 29 33
83 66 65 69 68 61 59 57 56 54 45 33 28 21 15 13 11 12 12 14 14 16 16 16 15 16 16 15 14 12 10 9 10 11 15 19 20 25 28 28 30 34 37
98 78 73 70 79 74 66 60 58 58 54 42 25 18 12 9 8 10 11 13 15 18 18 18 18 19 18 18 18 15 13 13 14 17 22 25 26 28 30 30 33 35 38
96 98 91 82 87 83 75 68 65 60 55 44 34 19 12 9 8 8 11 14 15 18 20 19 20 21 21 21 22 20 20 22 22 25 26 28 29 30 32 33 35 36 37
96 94 95 96 95 92 85 80 68 60 51 43 31 19 14 10 10 10 10 13 14 17 20 21 21 22 23 24 24 24 25 26 27 28 30 30 31 32 34 36 38 38 38
91 97 96 96 96 94 93 84 71 59 42 36 27 22 17 14 13 14 12 12 16 18 20 22 23 24 25 26 27 27 27 27 28 29 31 34 35 35 36 38 40 40 40
97 97 97 96 98 96 93 89 78 65 52 45 36 31 28 23 21 18 17 15 16 19 22 24 24 25 27 28 30 31 32 31 30 31 34 36 38 38 39 41 43 42 41
94 97 96 97 97 96 96 95 94 83 65 53 50 42 39 35 28 21 18 17 18 21 24 26 26 27 29 31 32 34 34 35 35 36 40 41 42 44 45 47 46 44 43
96 94 96 97 96 95 93 92 95 93 79 85 62 47 44 37 30 24 19 17 17 19 23 26 28 29 30 32 34 36 37 37 39 40 40 42 45 46 48 49 49 48 50
93 90 97 94 96 94 92 93 98 96 96 94 67 63 52 42 36 30 24 20 18 17 20 24 27 29 31 31 35 36 37 38 38 37 39 42 44 45 47 50 51 53 60
88 92 83 87 96 96 97 97 96 95 96 95 84 69 57 53 45 40 34 29 24 22 20 19 20 22 24 28 31 32 34 33 33 34 37 40 41 45 49 51 53 54 56
75 93 97 96 96 96 95 96 95 96 92 96 90 86 88 75 60 53 41 34 31 29 29 26 24 21 20 18 19 21 23 23 24 25 29 31 35 40 44 51 54 56 65
94 92 89 96 95 96 94 97 97 98 96 95 96 98 88 96 79 55 43 33 28 26 24 25 23 20 19 17 17 18 17 17 18 21 25 27 28 34 41 42 56 67 64
96 95 96 96 97 96 97 96 97 96 96 95 96 100 97 95 92 91 70 64 48 42 52 59 51 48 42 36 31 35 35 29 28 24 26 28 32 42 57 63 66 57 58
97 96 96 95 96 96 97 96 96 97 97 96 95 97 94 94 95 96 96 96 96 94 94 95 82 65 50 57 62 51 63 73 71 70 85 87 85 83 78 69 70 66 60
96 97 98 96 95 95 96 96 96 96 97 96 96 95 95 96 97 97 96 97 90 95 97 96 98 97 96 94 91 75 69 77 88 100 98 93 96 94 81 74 64 61 62
95 93 88 90 92 95 95 94 96 97 96 96 97 98 96 96 98 97 97 97 97 95 96 97 96 100 95 95 95 93 88 92 98 93 100 96 90 80 75 72 67 62 71
96 86 74 76 81 93 93 96 95 96 96 97 97 96 97 97 97 96 97 97 97 95 97 97 96 97 97 97 96 96 98 97 96 93 80 85 84 81 76 74 65 68 73

GFSSE_500_rhum_084.txt.gz
RH
29 26 33 32 25 23 24 24 24 25 24 24 26 18 8 8 7 6 4 4 4 4 4 5 6 6 5 4 3 2 2 2 2 5 6 7 8 10 10 10 11 14 16
32 28 29 33 28 23 25 25 26 28 25 25 26 18 8 6 6 5 5 4 4 4 4 6 6 6 6 4 3 2 2 2 2 4 5 6 7 8 9 9 12 14 17
38 35 35 36 31 30 27 26 27 29 28 27 27 21 9 5 5 5 5 4 4 5 6 6 7 7 5 4 3 2 2 2 2 4 5 6 6 7 8 9 12 16 18
39 38 38 36 35 32 30 29 28 31 31 30 27 22 11 6 5 5 5 4 5 6 6 7 8 6 4 4 3 2 2 2 3 4 5 5 6 7 8 10 15 18 19
46 41 40 39 36 34 34 32 30 32 33 32 28 23 14 7 5 5 5 6 6 6 7 8 8 7 5 4 3 3 4 4 4 5 5 5 6 7 8 13 18 20 20
54 45 43 42 41 38 36 35 34 34 35 34 29 24 17 11 8 7 6 7 8 8 8 8 8 8 7 6 6 5 5 5 5 5 5 6 7 8 11 16 20 21 22
66 52 48 45 46 42 37 37 39 38 37 37 31 24 19 15 12 9 9 8 9 9 8 8 9 10 10 9 8 8 7 6 6 6 6 7 8 10 14 19 22 22 22
79 64 53 50 52 49 42 40 40 41 41 39 35 28 21 17 14 12 11 10 10 11 10 10 10 11 11 11 10 10 9 8 7 7 8 8 10 14 18 23 23 22 25
92 78 63 57 60 53 47 46 44 43 43 41 39 34 26 18 16 14 12 12 12 12 12 11 12 12 12 12 12 12 12 11 9 9 9 12 14 17 22 25 24 26 28
96 96 79 67 63 62 54 50 49 47 45 43 41 37 30 21 16 13 12 12 13 13 13 13 13 13 14 14 14 15 14 12 11 11 12 17 21 23 26 27 28 30 30
96 96 95 78 72 71 62 57 53 50 48 46 43 38 32 23 15 13 12 12 13 13 13 13 14 14 15 17 17 17 17 15 15 16 18 22 25 27 28 28 29 30 32
96 95 96 96 84 80 72 64 58 55 54 52 48 39 28 23 16 13 10 11 12 13 14 14 15 15 16 18 19 20 20 19 20 22 24 26 27 29 30 30 31 32 34
97 97 96 97 95 93 80 70 68 63 60 58 54 46 34 21 15 12 9 8 10 12 13 15 16 16 17 18 20 22 23 23 24 25 26 28 30 31 31 32 33 34 36
95 96 96 97 96 96 90 80 73 70 66 62 54 46 36 26 15 11 9 9 10 13 15 15 17 18 20 21 22 24 25 26 26 26 27 28 30 32 34 34 35 37 40
95 96 95 96 96 95 97 96 85 76 67 62 53 46 32 24 16 12 12 12 12 12 14 17 18 20 22 23 24 26 27 28 29 28 29 29 30 34 36 37 39 42 44
90 97 96 96 97 97 95 96 95 85 76 71 55 44 38 25 18 15 13 14 16 16 16 17 19 21 23 24 26 27 29 30 30 28 28 29 32 36 37 39 44 45 45
96 95 91 94 96 96 96 94 96 94 86 73 53 47 40 29 22 19 26 28 22 20 19 18 20 22 23 25 28 28 29 31 30 28 27 30 32 33 35 38 44 46 48
94 95 92 97 97 97 96 97 96 88 88 71 53 45 41 34 31 35 41 28 26 22 20 18 19 19 21 24 27 28 29 29 29 28 30 30 29 30 32 35 39 37 44
96 78 90 96 96 97 96 99 99 94 90 94 83 62 54 45 39 89 64 35 29 25 22 19 16 15 16 20 24 24 23 25 24 25 28 26 26 28 26 27 31 38 40
86 84 90 96 96 95 95 96 94 95 95 94 93 85 78 61 90 94 48 40 35 31 24 24 22 20 18 17 17 16 16 18 20 21 20 21 21 22 21 23 26 30 36
76 66 91 95 97 93 95 96 94 94 98 95 96 94 97 95 95 89 78 52 47 47 38 34 30 28 27 26 24 21 20 18 17 17 17 17 17 19 20 20 23 27 36
84 93 92 95 95 95 97 95 97 96 96 98 96 95 95 91 90 96 94 85 76 65 60 38 30 26 24 23 25 24 23 24 24 24 29 30 37 42 46 61 67 70 67
99 92 97 99 93 95 95 96 96 92 95 96 96 96 96 91 94 98 95 97 97 93 71 70 88 67 54 62 58 57 46 43 52 60 65 70 66 66 75 76 79 83 80
98 97 96 97 96 97 97 96 96 97 96 97 96 99 98 96 97 96 97 97 97 96 96 96 97 98 96 97 100 96 85 78 76 72 76 79 80 87 90 94 92 90 84
96 97 96 96 97 97 97 97 96 96 97 96 97 97 96 96 95 97 97 96 97 96 96 97 97 96 96 96 96 97 99 95 98 96 98 97 97 94 95 95 88 81 76
96 94 97 98 97 98 96 97 96 96 96 97 97 97 97 95 97 97 96 97 97 96 97 96 97 96 97 96 97 97 97 96 97 95 99 98 96 96 95 95 90 79 71

GFSSE_500_rhum_087.txt.gz
RH
30 27 25 23 28 28 24 24 23 20 19 19 21 23 20 12 14 11 6 4 4 4 4 4 5 6 6 5 4 3 2 2 2 4 6 7 8 9 8 9 10 12 15
36 32 28 26 29 31 26 23 24 22 20 20 20 24 22 11 7 7 6 5 4 4 4 5 6 6 6 5 4 3 2 2 2 4 5 5 7 7 7 8 9 14 15
47 38 32 30 32 36 28 25 24 25 21 22 22 24 23 12 6 5 5 5 4 4 5 5 6 6 6 5 4 2 2 2 2 3 4 5 6 6 7 8 12 16 16
64 51 37 31 33 40 34 29 28 26 25 23 24 25 25 15 6 5 5 5 4 5 5 6 6 6 6 5 4 3 2 2 3 4 4 5 5 6 7 9 14 17 16
79 66 47 37 33 37 39 36 33 30 29 27 26 27 26 20 9 5 4 5 5 5 6 6 6 6 6 6 5 4 4 4 4 4 5 5 6 6 7 11 16 18 17
92 80 60 45 37 37 39 39 38 34 32 30 30 29 26 23 14 6 6 5 6 7 7 7 6 7 7 7 7 6 6 6 6 5 5 6 6 7 9 14 18 19 19
95 88 74 54 44 40 41 40 40 38 36 33 33 31 28 23 16 9 8 8 7 8 8 8 7 7 8 9 9 9 8 8 7 7 7 7 7 9 13 17 20 20 20
81 87 83 66 54 46 43 43 42 42 40 38 37 34 32 25 19 13 10 9 9 9 10 9 9 9 8 8 10 10 10 10 9 8 8 8 9 12 15 20 21 21 22
96 80 80 76 60 57 49 46 45 42 44 42 39 37 36 32 21 15 13 10 11 10 11 11 10 10 10 9 10 10 11 11 11 10 10 10 13 16 20 22 23 24 25
91 96 90 82 78 62 61 55 52 45 46 45 42 40 37 34 25 18 15 13 11 12 12 11 11 11 11 11 11 11 13 13 13 12 12 13 17 21 24 25 26 26 26
95 97 91 90 83 80 69 71 60 53 47 47 45 42 40 36 31 23 17 14 13 12 13 12 12 11 11 11 12 13 14 15 15 15 16 18 21 24 25 26 26 26 26
91 98 96 98 97 84 74 72 72 58 53 49 48 45 42 39 33 27 19 15 13 13 12 12 12 11 11 11 12 13 14 17 18 18 20 22 24 25 27 28 27 28 29
84 93 91 96 97 96 87 79 78 69 57 54 51 47 43 40 33 26 20 13 12 11 11 12 11 11 12 13 14 16 17 18 20 21 22 24 25 26 28 27 29 30 32
80 80 94 97 92 96 94 90 84 80 68 61 60 54 45 36 29 24 18 14 12 11 10 10 11 11 13 16 17 17 19 20 22 23 24 25 25 25 25 26 29 31 34
65 88 94 95 96 96 96 97 93 86 84 69 66 61 55 45 34 27 19 13 12 10 10 10 12 15 15 16 18 19 20 21 23 24 25 25 24 24 25 26 30 29 33
62 63 78 95 96 96 94 96 94 95 91 82 70 64 55 47 42 32 24 17 13 11 11 11 12 15 17 19 19 19 21 22 24 24 26 24 22 23 25 29 30 32 34
81 60 60 95 96 96 96 96 95 92 92 93 80 64 56 48 40 33 25 23 15 13 13 14 42 15 18 18 20 21 21 23 24 25 25 25 26 26 27 29 31 32 34
96 93 66 96 95 95 96 96 96 93 90 95 94 82 61 49 41 34 30 25 19 14 16 69 39 20 20 19 20 23 23 23 23 25 26 29 32 33 34 34 34 31 28
92 89 89 91 91 94 94 96 96 94 90 91 94 95 90 57 46 34 29 24 20 18 59 77 21 21 20 19 18 20 22 22 21 21 26 27 26 30 31 30 28 26 25
90 96 90 94 83 96 94 95 95 97 94 95 95 94 94 69 50 43 35 50 22 23 83 46 24 23 21 19 18 17 18 18 19 19 19 20 20 23 26 24 25 24 23
98 97 92 86 81 80 93 93 96 96 96 96 95 93 91 77 88 89 87 83 30 44 95 42 27 26 27 22 24 25 21 20 19 20 21 20 18 18 19 21 20 21 29
94 97 93 68 79 89 94 95 96 95 97 95 87 72 85 95 95 95 96 79 42 76 94 59 72 41 66 48 35 32 29 27 24 22 20 21 18 21 23 34 43 57 62
86 76 70 68 80 89 95 96 98 96 96 97 95 94 94 99 96 96 94 96 86 96 93 89 86 88 84 80 55 72 66 53 35 37 44 40 40 42 54 65 65 74 81
97 93 95 89 95 97 96 96 97 96 96 98 96 97 95 96 96 95 95 97 97 94 99 99 98 100 97 96 94 97 95 99 87 87 73 61 53 56 72 75 91 87 86
97 98 97 97 98 97 97 97 97 96 96 97 96 96 87 95 96 95 92 96 97 95 96 94 97 97 97 95 96 97 97 96 96 86 82 92 97 92 87 85 89 89 84
98 97 97 97 95 97 97 97 96 96 96 97 96 96 96 97 97 96 96 96 96 96 97 96 96 96 97 96 96 97 95 97 97 97 96 95 94 96 96 92 90 93 88

GFSSE_500_rhum_093.txt.gz
RH
18 48 35 26 24 22 22 17 18 18 25 27 26 20 17 17 19 18 18 15 9 5 4 4 4 4 4 5 5 5 4 2 2 3 6 7 7 8 7 8 8 12 12
5 32 46 38 28 26 25 21 18 19 23 27 26 22 18 17 17 19 13 13 9 5 4 4 4 4 4 4 5 5 4 3 2 2 4 5 6 6 6 7 9 12 12
5 9 51 48 39 30 27 25 22 23 24 26 27 24 20 18 17 19 14 8 7 5 5 5 5 5 4 5 5 5 4 3 2 2 3 4 5 6 6 7 10 13 12
5 26 59 46 52 46 34 27 26 23 28 26 29 27 22 20 17 19 17 7 6 5 5 6 6 5 6 6 5 5 4 4 3 3 4 4 5 6 6 8 12 14 13
7 27 44 48 40 56 45 34 28 26 27 28 31 31 27 22 19 19 21 10 5 5 5 6 6 6 6 6 6 6 5 5 5 5 5 5 5 6 8 9 13 14 15
12 6 16 46 43 64 58 41 35 31 32 32 29 36 32 26 21 20 22 17 6 5 5 6 6 7 7 7 6 6 6 7 7 8 7 6 7 8 9 11 14 15 16
25 19 5 34 70 59 70 53 44 39 36 38 32 35 36 30 23 23 23 22 10 5 5 7 7 8 8 8 7 7 7 8 8 8 8 9 9 9 10 13 16 17 18
12 21 25 8 53 56 82 67 52 45 46 43 40 34 37 34 26 24 24 24 16 6 6 6 8 9 10 9 8 8 7 7 8 8 9 9 10 10 12 15 17 19 20
21 22 35 22 33 67 66 78 64 50 50 53 49 42 38 34 29 27 27 25 21 11 8 8 8 10 10 10 10 10 9 9 9 9 10 10 11 12 14 17 18 20 22
37 36 51 52 37 60 77 95 78 66 50 55 57 49 40 35 34 30 29 28 23 16 11 10 10 10 11 11 10 10 10 9 9 10 10 11 12 14 16 18 19 22 23
58 64 62 65 44 36 52 96 92 83 60 55 61 58 46 41 37 35 32 31 25 20 15 12 11 11 12 12 11 10 9 8 7 9 11 13 14 16 19 20 21 23 24
60 68 70 89 83 40 40 83 96 96 77 63 61 63 54 47 41 34 35 35 34 24 18 15 13 12 13 13 12 11 9 8 9 12 13 14 17 18 19 20 23 24 24
32 27 57 85 99 44 45 97 94 98 92 70 62 60 60 55 46 40 38 36 37 30 24 18 15 14 13 13 13 11 10 9 13 15 15 15 16 19 20 20 23 23 25
11 18 5 58 66 45 42 96 97 98 92 85 71 62 60 60 55 50 42 43 38 33 27 22 17 14 13 14 13 12 10 11 16 16 16 17 18 19 21 22 22 21 24
9 9 35 88 79 38 34 89 96 93 98 96 83 75 68 66 68 58 49 48 42 36 28 23 20 15 13 13 13 12 12 12 16 18 18 18 19 21 23 22 22 22 23
15 41 86 85 76 40 22 85 97 96 99 95 96 86 76 70 66 100 63 48 42 37 30 23 22 17 13 13 13 11 14 17 30 27 19 19 20 22 24 23 25 26 26
99 72 83 77 65 52 40 28 73 96 96 96 91 96 88 86 78 64 58 49 42 35 28 24 22 18 14 13 13 12 13 26 41 32 20 20 20 22 23 24 26 26 29
97 66 63 39 46 32 32 32 63 95 96 96 97 96 92 90 87 73 64 53 42 35 30 29 24 18 15 13 13 13 14 32 61 51 20 20 20 21 23 25 26 26 29
53 41 92 67 63 49 60 36 52 91 96 96 97 96 96 95 91 84 72 60 52 47 44 36 32 23 19 15 14 13 15 57 76 55 19 20 21 21 22 23 22 20 24
21 22 73 90 87 64 77 85 35 48 95 97 96 95 96 96 90 94 85 72 64 61 57 48 37 29 21 17 15 15 18 54 91 53 22 24 24 24 22 22 22 21 21
49 30 59 57 41 68 87 98 79 48 98 93 93 95 96 96 95 92 92 85 74 66 57 49 48 44 30 21 17 17 63 36 82 54 26 26 25 25 24 28 24 24 24
28 20 55 56 37 100 91 100 96 86 80 95 96 95 88 94 96 98 93 94 88 80 76 86 67 60 36 24 27 44 92 78 93 71 35 33 54 54 45 49 32 30 30
21 47 58 43 52 91 89 100 98 98 89 88 92 94 97 94 97 97 96 95 96 88 91 93 68 66 58 78 91 89 95 77 92 91 86 70 74 80 72 60 63 66 62
38 60 76 78 67 90 94 99 98 100 99 86 89 86 95 98 97 96 96 98 97 96 96 95 93 98 94 97 96 92 84 61 69 94 91 96 93 87 86 92 94 86 78
40 80 78 86 77 95 97 96 94 92 97 98 91 94 97 98 96 97 97 97 100 98 94 99 96 96 97 97 98 98 93 96 97 97 90 96 95 91 95 97 93 100 92
41 53 66 72 89 96 100 98 95 95 97 97 92 96 97 97 96 98 96 96 95 97 97 97 95 96 96 95 96 96 96 97 96 97 96 97 96 97 92 93 98 98 97

GFSSE_500_rhum_096.txt.gz
RH
4 12 22 26 26 23 18 16 16 17 18 20 25 26 24 20 20 20 18 18 15 9 5 4 4 4 4 4 5 5 5 3 2 3 5 7 7 7 7 7 8 10 10
4 5 6 20 26 27 24 18 19 18 19 20 23 27 26 22 20 20 20 14 15 10 5 4 4 4 4 4 5 5 4 4 3 2 3 5 5 6 6 7 9 10 10
5 4 4 14 33 30 36 24 20 22 20 22 23 26 29 24 20 20 21 14 9 7 5 5 5 5 5 5 5 5 4 4 3 2 2 4 4 5 6 7 9 11 11
8 4 3 6 24 34 36 35 27 24 24 24 26 25 29 28 23 21 21 18 8 6 6 5 5 6 6 6 6 5 5 4 3 3 3 4 5 5 6 8 10 12 12
13 8 6 9 11 25 38 46 32 30 28 26 29 28 25 30 26 23 22 22 15 6 5 5 5 6 6 6 6 5 5 5 5 5 6 6 6 6 7 9 11 12 13
15 16 10 8 8 30 31 51 48 33 34 30 30 33 30 27 31 26 23 24 20 8 5 5 6 6 7 7 6 6 6 6 7 7 8 8 7 8 9 10 11 13 13
16 15 17 14 6 6 23 35 43 45 36 37 34 36 35 32 29 30 26 24 24 16 6 5 6 6 8 8 8 7 7 7 7 7 8 8 9 9 10 10 12 14 15
26 15 16 16 16 22 15 30 43 43 45 38 41 41 40 35 30 29 30 27 24 22 12 5 6 7 8 9 9 8 8 8 7 8 8 8 9 10 10 12 14 16 17
40 32 18 22 16 11 16 14 49 55 54 41 41 45 47 44 34 26 34 30 27 24 19 7 6 7 8 10 10 10 10 9 9 9 8 9 9 10 11 13 16 17 19
59 64 68 60 39 38 27 22 24 61 72 51 42 45 50 51 43 29 35 36 31 27 22 13 8 9 9 10 11 11 10 10 10 9 9 8 10 11 12 14 17 18 19
67 34 61 70 64 46 44 43 28 40 61 69 51 47 50 49 49 44 41 38 34 31 25 18 11 10 10 10 11 12 11 11 10 8 8 11 11 11 13 16 18 19 20
35 21 43 74 73 72 70 75 56 41 68 68 66 61 59 50 51 54 49 42 39 34 30 21 14 12 12 12 12 12 12 11 10 8 10 14 14 13 14 16 17 19 20
24 35 45 54 90 82 79 76 72 51 59 81 82 74 69 57 52 56 56 50 44 38 37 29 18 14 14 14 13 14 13 12 10 9 11 16 16 15 16 17 19 20 20
23 34 28 31 60 49 11 25 45 42 48 67 92 86 70 64 58 54 59 57 48 42 39 36 27 20 14 14 14 14 14 13 11 10 14 16 17 17 16 18 18 20 21
21 20 19 22 26 70 63 43 68 53 32 57 69 92 89 70 66 68 64 60 55 47 41 38 30 24 19 16 15 14 14 14 13 12 15 17 18 18 18 18 20 19 21
15 18 15 20 21 57 69 58 59 44 43 88 76 97 96 89 80 99 98 71 68 57 49 49 31 24 19 19 16 15 14 14 14 11 13 24 29 20 19 20 20 20 19
16 13 12 13 14 28 44 28 36 53 31 80 97 97 96 89 93 84 95 97 72 60 60 63 37 27 21 18 17 15 13 14 14 14 22 31 30 31 20 21 21 21 21
23 18 28 16 14 44 45 50 53 64 47 42 95 90 96 96 92 92 91 97 99 99 83 70 38 33 24 19 17 15 14 14 14 14 17 30 54 48 20 20 21 21 21
32 18 48 26 52 95 83 80 49 39 31 39 58 95 97 96 98 96 81 71 84 93 86 50 44 38 31 23 17 18 16 14 14 14 16 38 61 65 21 21 22 22 24
32 20 14 56 97 82 81 53 55 45 56 38 33 52 96 95 96 97 96 92 78 80 71 64 51 38 28 25 24 18 17 16 15 15 16 48 95 86 22 22 24 25 24
28 15 10 63 100 53 62 69 65 58 58 47 50 73 95 96 96 86 95 97 98 90 85 66 62 51 42 34 32 29 23 20 16 21 64 30 90 96 43 26 31 25 25
24 15 11 99 96 68 52 100 82 62 79 65 63 80 92 96 94 93 85 97 96 95 95 94 91 73 70 75 52 35 24 26 68 62 24 37 86 95 64 34 33 52 54
41 42 26 71 96 72 77 90 74 60 72 88 100 84 77 95 93 98 96 91 96 96 95 96 86 86 64 45 33 57 78 95 84 57 50 75 92 87 92 85 56 79 81
24 35 25 67 73 74 84 87 70 84 87 96 97 99 88 95 94 99 94 94 98 96 96 97 94 94 77 76 82 95 88 86 95 87 93 95 89 88 95 88 90 84 82
29 32 28 38 62 47 80 62 56 68 96 81 92 97 97 98 91 99 96 96 94 97 96 98 98 97 95 93 96 96 96 98 97 98 96 94 91 94 95 91 98 92 87
39 43 36 40 72 80 77 53 70 91 96 96 91 95 98 96 93 94 94 97 96 97 96 98 98 98 98 94 97 96 97 96 97 97 96 97 97 92 84 85 89 90 96

GFSSE_500_rhum_099.txt.gz
RH
4 4 8 19 17 17 18 15 13 13 12 14 18 23 24 22 20 20 20 17 18 16 10 5 4 4 4 5 5 5 4 3 2 3 5 6 7 7 7 7 8 9 9
5 4 5 4 15 19 15 19 16 16 14 13 16 20 23 24 23 20 20 20 13 15 12 6 4 5 5 4 5 5 5 4 3 2 3 4 6 6 6 6 8 9 10
8 6 5 4 3 8 18 16 20 18 18 14 15 17 22 22 24 23 20 21 16 9 9 7 5 5 5 5 5 5 5 4 3 2 2 3 4 5 6 6 8 10 10
10 8 7 5 4 3 4 18 19 20 20 20 16 16 19 21 23 25 22 20 20 13 7 6 5 5 6 6 6 5 5 4 3 3 3 3 4 5 6 7 8 10 12
13 11 10 8 6 5 4 12 24 21 21 22 23 20 21 22 21 25 27 22 20 19 10 6 5 5 6 6 7 6 5 5 4 4 4 5 6 6 6 8 9 11 13
14 14 13 11 9 6 6 9 19 30 26 24 24 25 23 26 25 23 28 27 22 20 18 8 5 5 6 7 8 7 6 6 6 7 7 7 7 7 8 9 10 12 14
16 17 17 16 13 11 7 6 15 26 29 31 27 25 28 27 28 26 26 28 24 22 22 16 6 5 6 7 9 9 8 7 7 7 7 7 8 8 9 9 10 12 15
18 20 22 18 16 14 18 6 5 15 34 41 43 31 28 32 32 32 28 27 29 26 24 21 12 5 6 7 9 10 8 8 8 8 8 8 8 8 9 10 11 13 16
49 56 38 25 19 16 15 18 14 15 16 30 47 47 34 28 34 39 31 31 34 30 27 24 18 8 6 7 9 10 10 10 10 9 9 9 9 9 10 10 12 14 17
69 63 65 63 59 48 27 18 12 14 14 14 34 52 47 32 30 39 38 35 39 35 31 28 23 15 7 8 8 10 10 10 11 10 10 9 9 10 10 11 13 15 17
85 83 83 65 74 83 61 40 32 19 16 16 22 39 59 44 33 34 43 40 43 41 35 31 27 21 10 9 9 10 11 11 11 11 10 8 9 12 12 12 14 16 18
42 60 79 68 70 70 73 71 51 38 31 26 23 31 50 60 42 40 40 43 44 46 41 33 31 23 16 11 11 11 12 12 12 11 10 8 10 14 14 13 14 15 17
31 36 39 57 81 65 38 65 72 70 59 45 36 31 40 62 62 42 50 48 46 48 46 40 34 29 20 13 12 12 13 13 13 13 12 9 9 16 17 16 15 15 16
26 53 49 48 42 64 71 73 67 63 57 54 50 46 48 65 62 63 53 68 53 47 49 47 39 35 26 17 13 14 14 14 14 14 13 11 10 16 18 18 17 16 16
32 34 48 39 32 41 77 82 54 70 37 31 62 58 57 77 83 80 61 68 66 56 49 51 45 42 38 22 18 14 15 15 14 15 14 13 12 15 18 19 19 18 18
37 30 36 33 44 82 61 45 72 71 25 29 55 44 41 70 94 95 78 67 74 67 62 52 50 46 42 29 22 18 16 14 15 15 15 16 15 14 18 23 20 20 20
41 29 57 42 37 68 54 58 58 75 52 21 40 57 34 41 75 83 93 81 83 86 68 58 52 50 45 39 28 21 20 17 14 15 15 16 16 15 19 21 33 23 20
48 33 33 42 33 55 95 91 66 57 36 30 45 66 47 35 39 63 96 97 94 97 96 75 66 62 56 54 37 26 20 20 17 14 14 14 16 16 19 22 52 55 22
58 32 21 67 46 52 65 77 72 44 18 33 61 74 57 50 88 55 96 97 90 85 96 96 89 76 66 68 52 35 30 22 18 15 14 14 14 15 17 25 44 62 33
62 54 24 20 28 18 17 17 17 15 87 72 63 60 50 42 46 89 94 96 98 87 85 84 90 99 92 85 60 41 35 25 19 16 14 14 14 14 16 16 59 84 63
57 58 41 18 15 14 14 21 16 79 67 90 78 67 39 30 30 66 100 94 82 97 93 95 92 96 96 95 87 69 36 26 21 17 15 16 15 19 32 29 44 84 79
46 40 32 28 25 19 41 26 29 89 97 74 56 73 49 32 32 48 80 90 78 97 96 100 92 98 84 82 73 50 59 45 30 21 25 29 39 20 23 54 56 63 72
53 54 37 32 26 21 26 24 88 99 99 77 95 74 58 31 32 76 72 93 95 95 97 97 97 92 97 94 93 91 81 80 73 74 88 95 20 31 70 94 74 68 87
45 59 33 23 20 20 13 13 82 100 93 87 81 72 59 80 91 86 100 90 95 95 97 97 98 97 95 90 90 95 95 95 94 93 77 68 29 69 95 91 92 97 90
75 89 83 43 39 29 17 17 73 90 72 83 84 88 82 99 79 100 96 95 96 94 96 95 96 95 93 93 94 94 88 84 93 93 95 96 96 94 98 98 89 99 96
60 55 42 47 42 48 34 37 93 75 63 77 80 87 90 80 97 97 98 94 97 94 91 88 96 91 98 98 99 92 94 92 92 96 95 87 94 94 98 98 99 96 96

GFSSE_500_rhum_102.txt.gz
RH
4 3 3 4 11 18 15 14 14 14 13 12 13 15 19 18 18 19 20 19 18 19 16 12 5 4 4 4 5 5 5 4 2 3 5 6 7 7 6 6 7 8 10
7 5 4 3 3 5 15 16 13 14 15 14 13 14 16 19 18 18 19 20 20 16 15 14 7 5 6 5 5 5 5 4 3 2 3 4 5 6 6 6 7 8 10
10 9 7 6 4 4 3 8 17 14 14 15 14 14 15 18 20 19 20 19 19 19 11 12 9 5 6 6 6 6 5 4 4 3 2 3 4 4 5 6 7 9 10
11 11 10 8 6 5 4 3 4 15 17 14 16 14 14 17 21 21 20 21 19 18 18 8 7 6 5 6 6 7 6 5 4 3 2 3 3 4 5 6 8 9 11
12 12 12 11 9 7 8 6 3 4 16 20 16 17 15 16 21 23 22 20 18 18 19 16 7 6 5 6 6 7 7 6 5 5 5 5 5 6 6 7 8 9 11
12 13 13 13 12 11 9 8 6 4 4 20 23 18 17 20 19 26 25 22 20 20 19 19 15 7 5 6 7 8 8 6 6 6 6 7 7 7 7 8 9 9 11
12 13 13 15 14 14 13 11 8 6 6 12 30 30 20 18 22 22 28 27 26 22 21 21 20 12 6 6 7 8 10 9 7 7 7 7 7 7 8 9 9 10 11
20 20 14 15 17 18 17 16 14 9 6 6 10 22 31 23 25 21 23 29 27 29 26 24 22 20 10 5 7 8 10 11 9 9 8 8 8 8 8 9 10 10 13
43 26 35 29 17 21 21 18 17 17 12 7 7 12 26 37 38 30 22 22 29 31 34 31 26 23 19 8 6 8 9 11 11 10 10 9 9 9 9 9 10 10 12
43 50 38 51 59 57 38 25 24 22 16 15 14 12 10 19 46 47 31 22 22 30 34 37 32 28 23 14 6 7 9 10 11 11 11 10 10 8 9 10 10 11 12
27 47 55 52 64 70 71 58 52 46 19 16 14 14 14 14 22 39 48 35 23 26 31 35 37 32 26 18 9 8 9 10 11 12 12 11 10 7 9 13 13 12 13
27 26 34 65 72 76 71 73 66 69 43 26 20 16 16 17 22 31 50 47 35 24 31 36 40 36 30 21 16 10 10 10 11 12 12 12 11 9 8 14 16 15 15
32 31 30 45 70 71 84 76 65 68 74 54 44 30 24 21 22 33 48 56 50 36 28 38 39 41 36 29 16 14 12 11 12 12 13 13 12 11 10 13 16 16 16
38 34 31 43 60 70 76 83 80 60 49 53 61 48 36 30 57 61 46 57 61 51 40 35 43 42 42 37 23 15 15 14 13 13 14 14 14 13 12 11 16 18 18
31 39 40 30 33 80 87 69 91 82 51 45 63 62 58 57 85 93 92 86 73 68 57 49 45 48 44 44 35 20 14 14 14 14 14 14 15 15 14 13 15 18 19
4 44 46 40 33 71 91 83 92 82 69 61 65 65 55 67 71 78 84 95 79 78 75 64 52 52 46 44 45 42 22 14 14 14 14 15 15 15 16 14 13 16 19
5 15 51 47 37 64 80 88 81 97 89 83 58 62 47 32 48 46 41 65 87 87 77 75 66 57 52 48 53 45 43 22 17 16 15 15 15 15 16 16 15 16 19
7 9 54 55 42 47 81 90 73 80 86 81 47 50 46 26 21 25 34 38 66 82 78 98 74 58 56 50 55 55 45 40 28 20 19 16 14 14 15 16 17 17 19
14 14 36 65 47 43 51 77 71 96 100 98 74 46 38 37 31 33 54 49 62 72 74 81 96 87 94 92 75 60 55 50 44 30 22 17 14 14 14 14 15 16 16
16 22 27 65 64 42 40 97 96 88 100 98 95 66 47 37 46 63 60 58 40 38 44 83 100 78 90 96 97 83 72 60 60 45 28 22 16 14 13 13 14 14 16
17 19 25 42 70 54 37 60 97 97 100 100 96 71 42 24 54 76 66 49 50 71 50 89 96 97 95 97 88 86 74 78 83 62 39 34 24 16 13 19 17 36 19
18 18 22 34 61 67 40 33 72 67 73 61 80 75 34 22 58 74 50 41 29 39 60 84 99 98 97 97 92 98 90 89 90 87 90 77 46 20 45 47 52 38 33
18 19 21 34 54 73 84 32 29 58 34 17 14 17 23 72 88 74 63 42 22 35 58 99 97 96 98 96 96 98 89 86 98 90 64 76 50 91 52 60 42 70 68
17 23 23 34 54 55 90 88 22 17 15 15 34 26 88 89 75 70 60 38 21 91 92 100 92 98 92 93 96 95 92 98 98 92 84 94 92 95 94 94 94 96 94
40 39 42 37 60 44 72 67 60 51 40 36 40 49 100 94 72 56 56 94 93 98 97 99 97 94 93 92 91 94 97 92 96 91 95 96 96 96 95 94 89 99 100
69 81 85 86 93 96 85 88 71 76 63 44 31 80 99 95 70 86 87 94 97 99 94 94 96 97 95 94 95 90 92 96 97 95 96 95 97 88 88 87 97 99 96

GFSSE_500_rhum_105.txt.gz
RH
8 6 4 2 3 9 12 13 14 15 15 14 12 12 14 16 16 15 14 14 16 18 18 16 9 5 5 5 4 5 5 4 3 2 4 6 7 8 7 6 7 8 9
9 9 8 6 3 3 4 10 13 15 14 14 14 12 13 14 16 16 15 15 15 17 16 15 13 6 6 6 5 5 5 5 4 3 2 3 4 5 6 5 6 7 9
10 10 10 10 9 6 3 3 5 10 15 13 13 14 13 14 16 17 16 16 15 15 18 13 11 9 6 6 7 7 6 5 4 3 3 2 3 4 4 5 6 8 9
10 10 10 10 10 9 8 5 3 2 5 14 16 13 14 13 15 17 18 17 15 15 15 16 11 8 6 6 7 7 7 6 5 4 3 3 3 4 5 5 6 8 9
13 12 12 11 12 12 11 9 8 6 3 3 12 17 14 14 14 17 20 19 17 17 17 17 17 12 7 6 7 7 8 8 6 5 5 4 5 5 6 6 7 8 10
13 13 13 13 13 13 14 14 13 10 8 5 5 11 25 23 17 16 18 21 20 20 20 20 18 17 10 6 6 7 9 10 8 6 6 6 6 7 7 7 8 8 9
14 13 12 13 14 13 13 16 19 23 20 9 6 5 12 30 36 31 22 18 23 24 23 22 22 20 17 8 6 7 9 10 10 9 8 7 7 7 7 7 8 9 9
16 42 29 14 13 15 15 15 15 16 26 20 11 6 6 14 30 30 31 26 21 24 27 26 25 24 21 16 6 6 8 10 12 11 10 9 8 8 8 8 8 9 9
16 21 45 51 29 19 15 16 18 18 19 20 22 10 5 6 20 38 33 37 40 20 25 28 28 27 24 21 14 6 6 9 10 12 12 10 9 9 9 8 9 9 10
18 20 24 52 57 43 36 28 20 22 21 18 18 16 14 10 8 18 37 45 47 44 23 24 29 30 29 26 20 10 6 7 9 10 12 12 11 10 9 8 10 12 11
24 21 24 20 47 58 48 47 56 58 35 22 24 22 16 16 15 11 16 27 40 38 29 24 27 29 30 31 27 19 8 7 8 10 11 12 12 11 10 8 10 13 13
36 25 24 25 53 60 65 62 61 69 67 50 46 42 24 16 15 14 16 20 25 41 53 38 30 31 31 29 30 26 15 8 9 10 10 12 12 12 11 10 8 13 15
6 27 36 32 27 34 74 70 71 77 76 71 62 59 43 30 21 16 17 20 23 26 36 43 40 35 35 34 31 31 24 14 10 11 11 12 12 13 12 12 10 10 15
4 4 5 32 38 32 30 63 75 94 95 79 67 72 64 51 39 30 23 22 24 32 36 46 47 41 41 43 40 35 32 26 13 12 12 12 12 13 14 14 13 11 13
11 7 5 4 14 42 34 32 100 94 87 79 68 70 69 66 56 49 52 72 72 63 65 62 56 50 43 50 52 46 39 35 24 13 13 13 13 14 14 15 15 14 13
12 12 9 7 5 8 45 34 86 97 93 79 58 70 61 53 63 62 63 84 83 96 88 93 90 68 59 51 59 54 54 46 35 23 13 13 14 14 15 15 16 16 16
12 14 12 10 8 5 17 44 38 88 99 97 94 71 75 66 77 64 71 68 86 88 85 88 98 94 76 80 64 63 59 58 50 42 34 15 13 14 15 15 15 16 16
17 16 16 12 9 6 5 48 43 57 97 74 94 78 62 64 73 78 65 39 49 61 60 58 82 79 97 92 78 70 56 56 59 51 45 34 16 17 15 15 15 15 15
8 10 14 12 9 7 5 36 56 46 88 86 96 97 97 83 70 82 92 61 44 46 46 41 47 66 90 99 87 70 67 61 59 57 57 46 33 25 19 16 14 14 14
19 18 8 7 7 9 7 12 62 60 57 97 88 91 97 94 85 58 57 44 39 32 22 33 27 53 74 78 97 95 94 77 80 82 91 63 54 47 22 16 15 14 13
21 22 19 9 9 20 10 8 61 54 62 77 98 100 96 97 79 78 41 41 36 27 31 46 43 44 70 98 75 81 97 98 96 96 93 97 88 76 64 21 17 15 14
20 23 30 16 18 22 22 27 40 64 54 81 82 95 99 96 96 91 59 40 48 19 42 49 29 49 52 50 62 70 78 82 94 96 94 95 94 94 72 39 27 21 16
33 37 29 20 34 48 30 47 28 62 68 57 54 77 96 85 77 92 80 44 45 22 46 35 24 24 48 75 90 88 98 76 99 94 95 96 90 96 97 87 86 92 93
65 41 27 19 29 100 74 59 45 49 93 72 48 51 92 96 98 62 43 31 21 53 47 30 25 23 30 63 98 96 96 99 96 89 93 97 96 96 97 95 89 88 76
57 38 35 32 53 26 38 34 59 66 78 99 43 32 67 63 37 16 19 22 59 65 60 21 27 25 30 59 79 97 96 85 92 99 99 99 96 95 94 93 91 96 97
89 53 43 36 82 60 50 56 61 61 74 99 85 39 31 48 36 28 35 52 84 74 55 60 74 72 98 95 100 96 84 91 90 90 95 100 95 94 93 95 94 97 99

GFSSE_500_rhum_108.txt.gz
RH
8 7 5 4 3 5 12 13 13 14 16 23 19 12 12 14 16 14 14 12 13 14 16 16 13 6 6 6 5 5 5 5 4 3 3 4 6 6 6 6 6 7 8
9 9 9 8 6 4 3 4 10 12 13 13 14 14 13 12 14 16 14 14 13 12 13 16 15 10 6 7 6 6 6 5 4 4 3 3 3 4 5 5 6 7 8
8 9 9 10 9 8 6 3 3 4 9 13 14 13 13 14 12 14 16 15 14 13 12 15 14 12 8 6 7 7 8 6 5 4 3 3 3 3 4 4 5 6 8
10 10 9 10 10 11 10 9 7 4 3 3 8 15 17 13 13 13 15 17 15 14 14 16 15 11 9 6 7 8 9 7 6 4 4 3 3 3 4 5 6 6 8
12 12 12 11 14 11 13 11 11 10 8 5 3 4 10 18 15 14 14 16 18 17 15 15 16 16 10 7 6 7 9 10 8 6 5 4 4 5 5 6 6 7 8
13 13 13 13 15 25 28 18 18 13 13 12 9 8 5 11 21 19 15 15 16 20 18 16 16 17 16 10 6 6 7 10 12 8 6 6 6 6 6 6 7 8 8
11 12 13 14 16 19 24 27 29 24 26 26 25 23 10 7 21 29 32 23 17 17 20 21 18 18 19 16 9 6 7 8 11 12 9 8 7 7 7 7 7 8 9
17 11 13 17 16 19 18 22 28 31 32 29 27 28 18 16 14 30 38 45 52 43 31 20 21 22 21 20 17 7 6 7 8 11 12 11 9 8 8 8 8 8 9
18 16 20 17 38 46 30 18 17 19 23 25 27 26 29 24 19 21 29 32 38 40 51 24 20 23 24 23 22 17 7 6 8 8 10 12 12 10 9 9 8 8 10
22 22 21 30 16 31 48 50 30 21 15 16 19 22 21 20 17 7 19 30 39 44 49 61 36 22 26 25 23 23 18 7 7 8 8 10 12 12 11 10 9 8 11
17 29 27 23 35 20 34 58 57 46 32 23 23 21 21 20 20 17 14 12 31 68 67 70 67 35 27 28 27 22 24 18 8 7 8 9 10 11 12 11 10 9 9
3 4 11 31 30 25 25 24 48 53 51 41 50 54 31 24 25 22 18 18 14 33 52 62 64 57 37 31 30 30 25 26 19 8 9 9 10 11 11 11 11 11 9
9 7 4 4 11 34 30 28 41 66 62 60 58 62 69 38 40 40 29 17 26 34 40 42 57 50 53 40 34 32 33 30 27 21 10 10 10 11 12 12 12 12 12
8 9 10 8 5 4 21 35 30 58 74 67 67 71 75 67 58 54 46 27 40 52 59 53 29 35 42 46 44 40 40 39 33 28 20 12 11 11 12 12 13 13 13
9 9 8 8 9 8 4 6 32 32 41 66 80 92 86 76 75 71 64 65 58 51 59 66 60 38 52 42 41 44 45 45 45 39 34 20 12 12 12 12 13 14 14
10 11 10 8 8 9 9 9 7 16 34 32 67 97 97 95 80 72 77 73 55 64 67 77 77 77 87 72 46 48 50 51 49 46 46 37 16 12 13 14 14 14 15
13 11 11 11 9 7 10 10 10 10 14 34 67 97 83 89 87 82 85 83 67 58 76 91 94 94 88 92 76 71 57 54 59 56 52 49 39 16 12 13 14 14 15
11 12 12 12 13 12 10 12 13 11 17 20 36 81 95 75 74 81 80 78 56 74 76 80 84 92 92 72 96 97 76 79 69 62 60 56 54 49 46 21 12 13 14
9 9 10 10 10 11 13 14 15 16 13 19 28 43 84 97 96 92 88 81 77 82 88 87 97 88 78 82 56 61 66 95 85 70 64 65 62 56 55 51 20 13 13
18 11 10 9 8 9 9 11 14 19 23 17 18 41 55 92 96 89 91 98 88 86 99 93 73 75 80 67 48 43 47 80 97 95 84 71 70 70 65 72 68 46 30
43 46 43 30 28 12 9 9 9 11 22 28 34 50 53 93 96 97 99 98 98 100 96 95 75 60 51 48 45 35 31 36 63 87 98 86 92 98 88 93 75 70 65
27 30 36 38 36 25 21 19 14 16 13 30 30 44 90 79 95 98 97 97 97 89 72 68 54 51 34 27 44 45 30 37 82 73 85 95 93 94 95 96 95 92 98
77 41 29 24 35 34 26 24 20 17 18 26 46 56 62 75 74 97 98 96 95 80 68 77 55 43 35 24 40 38 23 37 63 68 66 74 88 91 94 97 93 93 96
82 66 69 48 44 42 29 34 30 31 36 41 44 52 72 72 75 85 94 94 93 91 90 92 72 38 37 34 37 26 20 16 34 55 66 66 96 92 88 90 94 92 96
99 94 80 97 76 44 49 32 44 72 52 41 65 73 52 65 62 56 60 70 77 72 81 88 29 34 39 36 38 18 17 16 20 41 79 91 93 97 96 94 91 98 97
100 97 66 52 48 59 55 72 96 98 93 95 100 90 57 67 81 70 52 42 75 85 87 36 20 33 53 57 47 39 33 32 52 75 96 98 92 95 92 94 93 96 98

GFSSE_500_rhum_111.txt.gz
RH
8 8 7 4 3 3 7 14 14 15 18 22 20 23 18 13 14 18 15 13 12 14 16 17 14 8 6 7 6 5 5 5 4 3 3 3 4 5 6 6 6 6 7
9 9 9 9 8 5 4 3 5 10 14 15 20 17 16 16 14 13 17 15 13 12 13 16 16 13 7 7 8 7 7 6 5 4 4 3 3 3 4 5 5 6 7
9 9 9 9 12 10 8 7 5 4 4 9 14 15 14 16 15 14 13 16 15 13 13 14 15 14 12 6 7 8 9 8 6 5 4 4 3 3 3 4 5 6 7
11 10 12 11 14 24 12 13 10 9 7 7 9 7 12 20 19 15 13 14 15 16 14 14 15 14 11 9 6 8 8 10 9 6 4 4 3 3 4 4 5 6 6
12 16 20 21 13 18 35 23 21 16 10 9 7 6 6 11 11 16 17 15 14 15 16 15 14 16 14 10 7 6 8 9 11 10 6 5 5 4 5 6 6 6 7
12 21 16 18 14 13 20 30 31 27 22 18 14 11 9 8 9 11 17 20 16 15 14 18 16 15 16 15 10 6 6 8 10 11 10 8 6 6 6 6 6 7 8
10 10 11 11 12 13 16 27 34 34 32 31 32 29 23 22 12 19 30 26 26 22 18 15 19 17 17 17 16 11 6 7 8 10 11 10 9 7 7 7 7 7 8
10 10 10 10 11 12 15 21 31 34 34 32 34 34 33 35 32 18 20 24 34 40 51 54 27 20 20 19 18 18 12 6 7 8 11 12 11 10 8 8 8 8 8
17 16 15 12 16 13 15 18 20 32 26 30 30 30 28 30 35 38 31 29 29 34 44 57 52 37 22 22 21 19 19 14 6 7 8 10 11 11 10 9 9 9 8
18 20 20 19 21 27 26 18 38 41 29 24 22 19 19 22 22 24 26 32 32 31 38 40 48 53 52 27 24 24 21 20 17 7 7 8 9 10 10 11 10 10 10
7 8 13 22 26 25 24 29 25 28 52 47 23 35 31 22 19 22 22 21 12 23 44 53 62 64 58 60 34 29 27 25 23 21 9 8 8 9 10 10 11 11 10
6 5 4 4 6 10 22 30 29 32 24 54 58 41 29 26 24 22 24 21 22 18 20 55 63 63 62 70 54 36 33 31 31 28 24 14 8 9 9 10 11 11 11
7 7 7 7 7 6 4 4 19 36 34 28 32 57 53 39 38 46 44 26 25 26 28 38 50 59 49 57 60 56 39 36 35 35 32 26 16 10 10 10 10 11 12
6 6 6 6 6 6 6 7 4 9 27 45 42 39 64 58 55 58 65 66 35 44 41 42 56 60 62 51 37 34 50 43 39 37 39 33 27 17 11 11 11 11 12
9 9 9 8 7 8 7 7 8 8 7 24 45 48 51 79 72 70 65 78 66 60 62 56 58 69 84 79 48 27 23 34 44 42 40 37 37 33 23 13 12 12 12
9 10 12 12 12 12 10 9 8 8 10 8 14 28 38 39 67 77 82 86 84 85 80 74 74 61 73 80 84 75 45 37 38 44 44 46 46 44 42 31 14 13 13
15 14 13 13 13 13 13 12 11 10 9 9 11 7 8 30 30 64 99 94 96 94 88 86 84 80 82 92 82 91 84 80 62 47 45 47 51 51 51 51 33 15 12
10 10 9 10 10 11 11 12 12 13 11 10 10 11 9 8 30 92 88 86 88 84 90 90 90 82 74 88 96 92 98 84 83 92 73 66 61 58 60 59 57 49 31
6 6 6 6 6 7 8 9 10 10 12 15 14 33 29 12 14 38 94 97 99 92 91 88 87 82 78 90 90 87 91 79 90 86 68 52 81 79 71 67 61 59 57
19 18 15 14 15 14 7 7 8 20 12 18 20 17 20 15 15 17 40 95 97 96 95 99 90 82 84 93 98 97 97 87 74 74 64 50 67 82 86 71 75 67 64
21 22 20 20 24 26 21 17 17 11 19 18 26 20 20 22 20 15 24 44 96 95 94 87 65 97 90 95 98 93 80 70 53 37 40 34 37 92 96 91 85 87 89
31 32 30 35 37 40 33 34 31 46 25 17 27 21 34 24 24 19 15 32 91 96 97 99 90 94 96 100 94 92 69 46 31 32 40 34 29 39 66 75 91 86 92
37 34 42 51 70 66 57 47 35 64 48 36 32 35 42 45 45 32 35 36 48 97 99 97 97 97 96 93 83 72 49 44 33 30 34 36 27 43 78 73 77 89 90
34 34 46 66 75 76 58 40 43 69 46 43 36 59 45 42 34 32 37 49 45 52 94 97 95 96 96 97 94 84 67 36 32 32 34 28 24 21 48 69 70 66 74
57 55 81 73 83 95 99 38 50 67 69 50 71 89 76 32 34 41 36 42 45 50 75 94 95 96 96 98 96 92 75 41 29 34 33 27 20 19 26 62 84 87 78
65 87 70 59 69 97 98 74 72 72 53 68 98 99 79 59 60 49 32 48 53 44 56 70 88 94 95 95 94 92 72 31 47 40 39 34 31 35 57 95 98 97 97

GFSSE_500_rhum_114.txt.gz
RH
8 9 9 7 6 4 3 5 13 21 20 19 23 22 21 22 15 13 16 15 14 13 14 17 16 11 7 8 8 6 5 6 5 4 4 3 4 4 4 5 5 5 6
8 8 9 9 9 8 7 4 4 8 13 16 18 21 24 20 16 16 13 13 16 14 13 14 16 16 10 7 8 9 8 10 7 5 4 4 3 3 3 4 5 5 6
10 9 9 9 10 10 10 8 11 8 6 8 17 23 21 19 18 24 17 14 13 15 14 14 14 15 14 11 6 8 8 10 10 7 5 4 4 3 3 3 4 5 6
12 11 11 10 10 14 15 28 20 15 11 10 16 18 12 11 14 17 24 18 13 13 14 15 14 15 15 13 10 6 8 9 10 10 7 5 4 4 4 4 5 6 6
12 13 17 21 18 27 17 16 31 29 22 23 13 11 12 7 8 11 16 19 19 14 12 15 17 14 15 15 11 8 6 8 9 10 10 7 5 5 5 5 6 6 6
9 10 12 32 26 19 20 14 17 29 33 30 24 18 13 11 15 9 7 7 14 19 18 14 14 17 16 15 16 12 7 6 8 10 10 10 8 6 6 6 6 7 7
8 9 9 11 26 23 15 16 13 16 27 34 33 31 32 29 27 27 28 15 22 24 21 22 16 17 19 17 15 16 14 8 6 7 9 10 10 9 8 7 7 7 7
9 9 9 10 11 11 11 12 13 13 17 28 31 32 31 31 33 37 42 33 24 24 42 40 38 38 23 20 19 17 17 17 9 6 7 9 10 10 9 9 8 8 8
12 11 11 11 14 10 11 11 11 12 16 22 30 29 29 32 32 30 34 41 42 35 36 46 49 46 52 38 26 22 20 19 19 14 6 7 8 9 10 10 10 9 9
13 14 14 14 14 15 17 17 17 24 16 18 21 30 29 26 24 26 25 26 27 35 40 39 46 48 46 40 44 37 26 26 24 23 20 9 7 8 8 10 10 10 10
5 5 6 7 9 13 16 18 20 21 24 24 20 40 46 30 23 20 20 19 21 23 23 24 37 45 52 57 56 59 56 35 29 27 28 25 16 8 8 8 9 10 10
6 7 7 5 5 5 6 7 10 16 24 26 27 26 27 51 44 24 34 27 20 20 23 24 31 32 42 61 60 65 67 66 41 34 35 32 29 23 12 9 9 9 10
6 6 6 6 7 6 6 6 6 5 5 10 21 29 30 25 45 60 45 30 26 26 31 24 25 28 27 46 60 66 71 72 56 38 34 34 37 33 27 18 10 10 10
6 6 6 6 5 5 5 5 5 5 6 5 5 5 27 39 32 29 47 57 46 43 51 53 31 33 41 41 50 53 63 69 68 55 52 37 35 37 37 32 23 14 11
5 5 5 6 6 7 7 6 6 5 6 6 6 5 6 15 40 49 40 50 72 64 60 64 71 52 64 62 50 64 69 67 59 46 42 51 45 40 44 48 39 30 20
5 6 6 6 5 5 6 8 8 9 8 8 7 8 7 6 7 23 46 48 69 76 68 73 77 79 81 82 75 63 73 78 76 59 40 46 48 47 45 47 49 48 44
13 12 12 12 11 11 11 10 11 11 11 10 16 20 40 26 8 6 7 18 48 62 79 83 94 94 94 93 90 86 79 74 75 77 69 90 71 50 47 51 50 52 54
15 13 12 12 11 11 11 11 11 11 12 13 16 19 31 33 11 8 7 5 8 47 82 92 96 98 100 96 94 95 92 88 87 86 86 88 100 99 82 70 67 60 59
8 6 6 6 6 6 5 6 7 8 8 9 11 16 31 36 32 16 10 8 12 39 58 81 90 98 98 97 98 96 95 82 93 97 84 94 81 85 91 50 61 90 87
9 10 10 11 13 13 14 13 12 13 10 7 8 10 32 44 51 64 79 56 14 8 42 87 98 98 98 93 97 97 96 87 86 100 90 99 90 83 64 61 54 34 82
17 18 15 16 17 18 20 22 22 20 21 18 16 17 18 61 59 53 58 50 40 13 12 40 94 96 96 99 96 97 98 92 89 92 98 94 88 66 41 34 40 40 62
32 40 43 37 38 35 28 27 26 28 28 20 19 18 32 38 58 55 41 25 22 19 14 11 26 96 96 97 96 94 92 84 88 100 96 88 69 41 31 29 38 33 29
36 48 50 44 35 31 32 30 34 37 42 46 47 43 24 53 54 64 54 48 24 18 18 16 15 26 82 94 97 93 90 86 99 99 95 82 58 39 34 32 29 31 27
42 39 34 37 51 53 45 47 53 58 51 60 58 60 63 42 49 98 97 94 30 28 30 24 15 27 64 97 97 94 96 97 98 96 92 72 48 35 32 33 30 29 24
36 39 46 61 49 48 44 79 74 74 63 61 68 77 88 72 76 51 59 52 47 38 36 44 59 55 71 92 98 97 97 98 96 92 82 75 57 48 43 39 35 33 26
36 41 57 62 55 60 72 86 78 88 100 96 75 79 84 93 81 96 96 92 77 65 54 52 50 56 64 75 92 97 96 98 96 94 87 81 64 44 36 38 38 39 35

GFSSE_500_rhum_117.txt.gz
RH
8 8 8 9 8 7 5 4 6 17 26 25 22 21 24 23 22 22 14 13 16 16 15 14 16 16 10 7 8 7 5 5 6 5 4 4 3 4 4 4 4 5 6
8 8 8 9 9 9 9 8 6 10 14 20 22 21 20 20 24 22 17 16 13 14 16 15 14 15 16 10 7 9 8 8 9 6 5 4 4 3 3 3 4 5 6
11 10 10 9 9 9 10 12 11 9 12 13 11 16 26 29 25 22 17 17 16 14 13 15 15 14 15 15 11 7 9 9 9 8 6 5 4 4 3 3 4 5 6
12 13 12 12 12 12 10 12 14 26 19 16 11 9 19 24 17 17 17 16 16 16 14 14 15 16 14 15 14 12 7 9 10 9 8 6 5 4 4 4 4 5 6
9 10 11 12 27 28 24 23 23 17 24 29 26 23 12 10 12 6 8 10 13 17 18 15 13 15 15 14 15 14 11 7 8 10 11 9 6 5 5 5 5 6 6
9 9 9 9 10 32 41 30 22 20 19 26 31 30 26 16 13 12 16 11 8 6 6 14 15 15 17 18 16 15 15 10 6 8 10 10 9 7 6 6 6 6 7
10 10 10 10 10 9 12 21 28 24 22 16 18 28 35 32 33 30 29 26 28 21 14 20 22 19 18 18 19 18 16 17 13 6 7 8 9 9 7 7 6 7 7
10 10 10 10 10 9 10 10 13 14 11 13 14 17 28 33 35 33 34 34 38 41 28 30 42 38 35 30 26 22 21 18 20 18 9 7 8 8 8 8 8 8 8
13 12 12 12 12 11 10 10 11 11 13 14 10 13 15 29 34 33 34 35 31 35 38 39 42 43 41 42 46 46 26 24 22 22 21 16 7 8 8 8 8 9 9
17 16 16 15 14 13 12 12 12 13 14 14 14 17 12 15 18 29 30 32 32 28 28 28 31 39 38 37 42 44 50 48 34 27 26 25 23 13 8 8 7 8 9
6 6 6 6 6 7 9 10 12 13 13 14 16 16 23 20 19 27 34 30 24 20 20 21 26 23 24 30 36 39 45 45 53 46 33 32 31 28 24 12 8 8 8
5 6 7 6 7 7 6 5 5 6 7 9 12 16 19 21 24 23 33 49 42 25 30 26 21 21 24 25 26 30 32 50 62 63 60 41 36 36 35 30 23 13 9
6 6 6 6 6 6 6 6 6 6 6 5 6 6 6 11 21 27 29 28 35 51 34 33 29 24 23 23 24 28 26 35 59 65 73 65 43 36 35 39 38 30 22
6 5 5 5 5 6 6 6 6 6 5 5 5 5 5 5 5 5 15 32 32 27 48 56 48 36 37 45 29 27 33 32 38 57 66 70 76 66 54 39 39 41 33
6 5 5 5 5 5 5 5 5 6 6 6 6 5 5 6 21 12 6 7 21 42 36 32 44 55 48 52 66 47 42 49 46 48 61 64 61 56 49 52 47 42 43
6 6 7 8 8 7 7 6 6 5 5 5 5 7 8 21 26 26 27 8 6 14 45 50 48 59 66 62 63 76 77 73 69 60 72 82 75 66 34 33 48 50 49
13 14 14 13 13 13 12 11 11 10 10 10 8 6 7 8 17 22 44 46 23 31 11 14 37 76 80 75 78 81 85 86 78 75 70 74 79 79 69 51 55 48 46
20 19 18 16 15 14 14 14 13 12 12 12 12 12 12 11 12 23 38 56 50 38 10 7 8 36 74 90 88 94 93 88 87 85 80 77 81 84 83 91 87 79 73
10 8 7 6 6 6 6 6 6 7 6 6 7 7 9 10 13 43 42 42 44 40 18 31 14 14 28 79 94 98 96 98 97 98 93 84 89 91 88 99 93 97 80
6 8 9 9 9 9 10 10 10 10 12 13 11 10 14 10 10 24 59 37 46 52 40 32 24 13 16 60 68 97 96 95 97 90 85 87 92 88 99 95 84 66 69
14 21 18 15 16 16 18 23 22 26 26 24 26 21 20 18 16 23 41 56 62 67 69 72 91 16 21 28 99 74 95 92 97 98 94 98 98 89 92 94 85 94 81
23 21 17 23 19 13 15 40 44 49 47 40 35 27 27 27 27 30 27 43 54 91 92 95 99 59 26 12 39 97 92 86 93 96 97 92 87 87 88 97 94 89 61
25 25 25 24 16 20 27 37 37 34 30 29 28 27 27 29 25 25 45 33 39 42 80 85 94 79 61 21 13 24 70 96 95 94 97 96 92 91 93 86 90 74 54
32 31 28 19 24 42 39 48 27 28 32 36 31 43 46 41 40 36 40 57 73 67 60 65 75 82 53 52 34 34 40 66 92 84 98 97 90 89 95 95 94 72 44
37 32 24 24 34 36 48 59 65 57 64 71 69 69 63 57 52 50 47 72 93 88 91 97 96 94 71 42 67 66 57 99 94 93 98 96 95 98 97 97 93 55 39
36 33 25 27 38 29 28 41 50 83 86 71 76 97 88 74 65 76 63 98 95 96 97 98 98 98 98 74 34 42 50 63 99 99 96 94 98 99 97 95 84 65 55

GFSSE_500_rhum_120.txt.gz
RH
7 8 8 8 9 9 8 7 5 8 14 30 33 28 24 21 23 23 22 19 13 13 14 14 13 14 16 12 8 10 8 5 6 5 4 4 4 4 4 4 4 4 5
11 9 9 8 9 9 9 9 9 10 11 19 18 22 26 24 19 19 23 23 18 16 13 13 14 14 14 15 14 7 10 9 9 8 5 4 4 4 4 3 3 4 5
12 12 11 10 10 10 9 9 10 13 14 10 12 13 16 20 26 28 27 25 20 16 15 14 13 14 14 13 14 14 8 9 10 12 9 6 4 4 4 4 3 4 5
9 10 12 12 16 22 21 21 13 14 15 27 20 16 9 11 18 22 18 16 19 18 17 15 13 13 13 14 14 14 13 9 8 10 12 11 7 4 4 4 4 5 5
9 9 10 17 19 12 19 34 33 24 26 22 26 33 27 20 13 12 12 8 8 9 10 13 17 16 13 14 15 15 15 13 10 7 10 11 12 8 4 4 4 5 6
10 10 9 9 16 10 14 10 34 41 33 22 21 24 31 33 25 18 14 12 15 14 10 8 6 11 16 14 15 18 17 17 16 10 6 8 11 11 8 6 5 5 6
10 10 10 10 20 9 9 9 9 12 20 24 24 21 18 20 34 35 32 30 28 25 24 25 26 24 18 18 16 17 20 20 20 18 14 7 7 9 10 9 7 6 6
10 10 10 9 10 9 9 9 8 9 9 14 17 13 11 14 16 28 36 37 33 32 33 35 36 27 30 35 38 29 24 23 23 22 20 20 12 7 7 8 8 8 7
18 14 14 14 13 11 10 10 10 14 10 9 10 11 14 11 12 15 19 31 34 34 35 34 34 37 35 35 39 42 42 48 44 27 25 24 23 20 11 7 7 7 8
22 19 17 16 16 16 16 16 14 12 11 16 14 16 11 12 12 12 14 17 21 28 29 34 34 36 46 45 33 33 34 40 49 56 49 37 30 29 26 20 10 8 8
9 9 7 7 7 7 6 6 7 8 8 23 20 12 20 16 13 14 19 18 17 22 32 32 26 28 27 24 25 23 23 31 36 45 45 46 47 35 33 31 27 18 10
5 5 5 6 6 6 6 6 6 6 7 6 6 6 7 9 10 13 15 18 21 22 21 37 43 30 31 28 22 23 23 24 29 33 38 54 59 58 50 38 36 33 27
7 7 6 6 6 6 6 6 6 6 6 6 6 6 6 5 6 6 8 11 18 23 25 24 28 42 45 33 32 26 23 24 25 30 30 41 54 60 64 56 41 39 38
6 6 6 6 6 5 5 5 5 5 5 5 5 6 6 6 6 6 6 6 5 7 12 20 27 27 31 50 47 37 31 35 29 27 35 35 39 48 49 55 57 45 43
6 6 5 5 5 5 5 5 5 5 4 4 5 5 5 6 6 6 6 6 7 6 4 6 12 31 33 30 38 52 55 44 49 41 38 48 50 50 55 53 49 50 42
7 8 8 8 9 9 9 9 9 9 9 8 7 7 7 5 5 6 7 7 7 28 33 17 15 22 27 44 43 35 50 70 60 58 60 58 65 60 66 74 72 67 41
14 16 16 16 17 17 17 17 16 16 14 13 13 12 11 11 10 8 7 8 24 25 28 30 22 14 57 45 38 53 58 72 84 70 75 75 78 76 69 71 78 73 65
21 21 18 14 11 10 9 8 9 9 10 10 12 12 13 13 14 13 14 12 26 44 35 40 52 50 54 49 25 21 71 80 81 70 75 80 86 85 81 76 76 83 80
13 10 7 6 6 8 9 9 9 9 10 9 9 9 7 7 8 10 11 13 15 36 46 40 49 63 57 55 24 21 32 58 91 86 86 95 99 100 99 85 88 99 93
6 6 6 8 9 11 15 16 15 15 15 14 15 14 15 17 14 11 8 8 9 24 39 51 52 62 69 64 38 45 43 55 78 96 96 96 96 97 98 100 92 95 94
7 9 11 11 14 14 17 18 18 17 17 16 14 13 14 24 32 32 18 17 17 12 20 48 65 66 70 66 49 40 39 33 19 99 98 96 96 97 94 94 95 98 96
13 10 11 14 17 20 17 19 18 20 23 21 21 21 21 21 35 53 41 31 24 18 18 30 66 77 77 84 76 77 62 35 18 87 98 92 93 96 97 97 94 96 95
8 6 8 11 23 24 21 21 22 24 27 31 36 36 34 36 34 40 50 43 35 30 25 32 36 64 84 95 80 77 89 68 50 58 80 83 94 96 95 97 97 97 96
4 6 7 14 25 24 24 23 22 32 41 45 31 46 54 67 55 49 49 39 37 35 32 33 41 51 84 92 98 95 98 96 70 34 38 80 86 96 98 96 97 97 94
5 6 8 25 28 27 26 25 24 31 50 51 68 57 82 88 69 70 52 58 42 34 29 41 44 62 59 70 80 84 92 84 88 84 27 29 75 96 88 90 96 96 96
5 5 8 21 29 32 29 30 30 29 48 65 56 69 94 98 94 91 92 71 63 41 28 27 98 95 98 80 72 56 59 68 84 86 60 50 56 88 100 90 98 91 96

GFSSE_500_rhum_123.txt.gz
RH
8 8 8 8 8 9 9 12 19 17 11 18 17 27 33 26 23 21 23 22 22 18 14 14 15 14 12 14 16 9 8 9 6 7 6 5 4 4 4 4 4 4 5
12 12 10 9 9 10 9 9 9 11 12 13 11 20 17 19 23 24 20 19 22 23 19 16 13 13 14 14 13 15 11 8 9 9 10 6 5 4 4 4 4 4 4
10 11 12 13 16 13 14 14 12 10 13 16 16 17 11 12 10 15 21 25 24 25 24 18 16 14 13 14 15 14 15 13 8 9 10 10 7 4 4 3 3 3 4
10 9 9 20 13 20 19 23 23 25 17 15 16 25 24 19 16 10 15 19 16 16 19 20 18 16 14 14 15 16 15 15 13 8 8 9 10 9 5 4 3 3 4
11 10 9 9 11 20 31 21 22 32 37 29 26 23 25 32 29 26 17 11 11 10 8 8 10 12 13 16 14 14 16 16 16 13 8 7 8 8 9 6 4 4 4
10 10 9 9 10 25 37 12 10 16 14 31 36 33 25 23 27 32 33 27 18 14 13 13 12 9 6 8 14 15 14 16 18 18 17 9 7 7 7 7 6 5 5
11 11 10 10 10 12 11 41 21 15 13 14 11 16 22 22 20 19 22 33 34 33 32 28 28 29 26 19 15 17 17 16 17 19 20 19 16 8 7 7 6 6 6
15 17 18 13 11 11 12 16 12 20 21 21 13 11 10 16 17 12 14 23 30 33 33 32 33 38 38 38 30 30 33 30 21 20 20 22 21 20 16 8 7 7 7
19 17 19 22 22 19 16 14 14 14 13 14 18 19 20 15 11 13 14 13 18 21 30 35 32 33 38 39 35 36 35 37 36 32 35 32 26 26 24 22 14 8 7
27 24 22 20 18 15 13 13 13 12 13 14 15 18 34 31 24 16 16 11 12 12 14 22 30 32 34 44 39 40 41 33 36 36 37 47 47 39 33 30 28 21 12
16 12 10 9 9 9 8 8 8 8 7 7 7 7 7 22 42 26 13 18 16 14 17 18 17 24 36 48 46 27 26 25 26 27 33 38 40 43 46 47 36 34 29
7 6 6 6 5 6 6 6 6 6 6 6 6 6 6 6 6 6 9 9 10 13 14 16 20 22 22 31 39 33 28 27 23 24 25 30 36 39 46 50 52 49 40
7 7 7 6 6 6 6 6 6 6 6 5 5 5 5 5 6 6 6 6 6 6 9 13 16 17 21 24 24 39 42 33 34 28 23 25 28 31 40 49 51 60 57
6 6 6 6 6 6 6 5 5 5 5 5 5 6 5 5 5 5 6 6 6 6 6 6 7 11 18 22 23 25 27 32 42 40 32 31 29 27 30 42 48 44 44
6 6 6 6 6 5 5 5 5 5 5 5 5 5 6 6 6 6 5 6 6 7 6 7 8 20 11 10 19 26 32 32 32 45 56 52 42 39 34 41 44 52 49
7 7 8 8 8 9 10 11 12 12 13 14 13 13 12 10 10 10 10 8 6 6 7 11 6 13 25 36 24 17 28 44 46 57 61 64 61 53 52 47 54 58 55
13 16 18 19 18 17 16 15 14 12 12 11 11 12 13 14 15 15 15 14 12 10 7 7 25 26 27 37 47 49 50 43 42 56 70 85 88 83 64 64 70 74 77
26 26 23 19 15 11 9 8 7 6 6 9 10 11 11 9 8 9 11 14 15 16 14 12 35 34 37 39 44 50 55 69 64 44 58 76 93 88 77 75 81 83 87
30 21 15 11 9 6 5 6 9 9 10 10 11 11 14 18 18 17 15 12 8 9 11 15 18 34 41 55 54 54 57 64 67 60 49 71 93 98 89 89 87 90 91
19 13 10 7 6 8 9 9 9 9 10 14 15 17 16 17 16 16 18 20 19 18 12 8 9 20 40 62 64 64 70 71 67 57 41 44 50 82 96 96 97 97 97
11 10 6 7 9 8 7 6 6 10 14 19 15 16 22 20 21 21 16 14 20 19 26 23 13 11 19 40 87 79 74 92 85 67 66 58 47 81 97 96 97 97 97
8 7 7 8 6 4 4 5 14 16 19 19 16 24 39 35 28 31 28 27 30 20 21 36 28 21 17 21 40 82 88 88 77 81 73 41 42 57 69 95 96 96 96
10 11 8 4 4 5 6 20 22 17 18 21 19 26 33 37 40 48 56 49 42 53 50 59 49 31 25 23 32 57 81 93 99 93 79 60 45 42 26 34 94 95 96
6 4 4 5 5 5 8 21 22 24 26 27 28 29 34 45 60 57 52 83 70 64 67 61 52 43 34 27 26 40 61 75 92 96 97 93 82 70 44 96 95 97 98
4 5 6 6 8 8 7 6 7 18 27 30 24 36 43 48 63 85 60 81 85 74 61 64 53 44 38 35 34 50 51 64 76 95 96 94 81 92 81 84 73 96 99
5 6 7 8 8 9 10 9 9 9 16 32 34 30 36 43 80 85 94 75 71 81 75 59 56 50 41 36 42 42 50 57 68 98 87 91 93 93 93 73 72 64 48